[[{"header":{"parameterUnit":"m.s-1","parameterCategory":1,"la1":31.0,"la2":29.5877,"lo1":-88.7671,"lo2":-86.6584,"dy":0.0162,"dx":0.0185,"nx":115,"ny":88,"refTime":"2023-04-05T18:00:00:Z","depth":0,"parameterNumber":2,"parameterNumberName":"U-component_of_WINDS"},"data":[0.0,0.0,0.0,0.0,0.0,0.0,0.0,0.0,0.0,0.0,0.0,0.0,0.0,0.0,0.0,0.0,0.0,0.0,0.0,0.0,0.0,0.0,0.0,0.0,0.0,0.0,0.0,0.0,0.0,0.0,0.0,0.0,0.0,0.0,0.0,0.0,0.0,0.0,0.0,0.0,0.0,0.0,0.0,0.0,0.0,0.0,0.0,0.0,0.0,0.0,0.0,0.0,0.0,0.0,0.0,0.0,0.0,0.0,0.0,0.0,0.0,0.0,0.0,0.0,0.0,0.0,0.0,0.0,0.0,0.0,0.0,0.0,0.0,0.0,0.0,0.0,0.0,0.0,0.0,0.0,0.0,0.0,0.0,0.0,0.0,0.0,0.0,0.0,0.0,0.0,0.0,0.0,0.0,0.0,0.0,0.0,0.0,0.0,0.0,0.0,0.0,0.0,0.0,0.0,0.0,0.0,0.0,0.0,0.0,0.0,0.0,0.0,0.0,0.0,0.0,0.0,0.0,0.0,0.0,0.0,0.0,0.0,0.0,0.0,0.0,0.0,0.0,0.0,0.0,0.0,0.0,0.0,0.0,0.0,0.0,0.0,0.0,0.0,0.0,0.0,0.0,0.0,0.0,0.0,0.0,0.0,0.0,0.0,0.0,0.0,0.0,0.0,0.0,0.0,0.0,0.0,0.0,0.0,0.0,0.0,0.0,0.0,0.0,0.0,0.0,0.0,0.0,0.0,0.0,0.0,0.0,0.0,0.0,0.0,0.0,0.0,0.0,0.0,0.0,0.0,0.0,0.0,0.0,0.0,0.0,0.0,0.0,0.0,0.0,0.0,0.0,0.0,0.0,0.0,0.0,0.0,0.0,0.0,0.0,0.0,0.0,0.0,0.0,0.0,0.0,0.0,0.0,0.0,0.0,0.0,0.0,0.0,0.0,0.0,0.0,0.0,0.0,0.0,0.0,0.0,0.0,0.0,0.0,0.0,0.0,0.0,0.0,0.0,0.0,0.0,0.0,0.0,0.0,0.0,0.0,0.0,0.0,0.0,0.0,0.0,0.0,0.0,0.0,0.0,0.0,0.0,0.0,0.0,0.0,0.0,0.0,0.0,0.0,0.0,0.0,0.0,0.0,0.0,0.0,0.0,0.0,0.0,0.0,0.0,0.0,0.0,0.0,0.0,0.0,0.0,0.0,0.0,0.0,0.0,0.0,0.0,0.0,0.0,0.0,0.0,0.0,0.0,0.0,0.0,0.0,0.0,0.0,0.0,0.0,0.0,0.0,0.0,0.0,0.0,0.0,0.0,0.0,0.0,0.0,0.0,0.0,0.0,0.0,0.0,0.0,0.0,0.0,0.0,0.0,0.0,0.0,0.0,0.0,0.0,0.0,0.0,0.0,0.0,0.0,0.0,0.0,0.0,0.0,0.0,0.0,0.0,0.0,0.0,0.0,0.0,0.0,0.0,0.0,0.0,0.0,0.0,0.0,0.0,0.0,0.0,0.0,0.0,0.0,0.0,0.0,0.0,0.0,0.0,0.0,0.0,0.0,0.0,0.0,0.0,0.0,0.0,0.0,0.0,0.0,0.0,0.0,0.0,0.0,0.0,0.0,0.0,0.0,0.0,0.0,0.0,0.0,0.0,0.0,0.0,0.0,0.0,0.0,0.0,0.0,0.0,0.0,0.0,0.0,0.0,0.0,0.0,0.0,0.0,0.0,0.0,0.0,0.0,0.0,0.0,0.0,0.0,0.0,0.0,0.0,0.0,0.0,0.0,0.0,0.0,0.0,0.0,0.0,0.0,0.0,0.0,0.0,0.0,0.0,0.0,0.0,0.0,0.0,0.0,0.0,0.0,0.0,0.0,0.0,0.0,0.0,0.0,0.0,0.0,0.0,0.0,0.0,0.0,0.0,0.0,0.0,0.0,0.0,0.0,0.0,0.0,0.0,0.0,0.0,0.0,0.0,0.0,0.0,0.0,0.0,0.0,0.0,0.0,0.0,0.0,0.0,0.0,0.0,0.0,0.0,0.0,0.0,0.0,0.0,0.0,0.0,0.0,0.0,0.0,0.0,0.0,0.0,0.0,0.0,0.0,0.0,0.0,0.0,0.0,0.0,0.0,0.0,0.0,0.0,0.0,0.0,0.0,0.0,0.0,0.0,0.0,0.0,0.0,0.0,0.0,0.0,0.0,0.0,0.0,0.0,0.0,0.0,0.0,0.0,0.0,0.0,0.0,0.0,0.0,0.0,0.0,0.0,0.0,0.0,0.0,0.0,0.0,0.0,0.0,0.0,0.0,0.0,0.0,0.0,0.0,0.0,0.0,0.0,0.0,0.0,0.0,0.0,0.0,0.0,0.0,0.0,0.0,0.0,0.0,0.0,0.0,0.0,0.0,0.0,0.0,0.0,0.0,0.0,0.0,0.0,0.0,0.0,0.0,0.0,0.0,0.0,0.0,0.0,0.0,0.0,0.0,0.0,0.0,0.0,0.0,0.0,0.0,0.0,0.0,0.0,0.0,0.0,0.0,0.0,0.0,0.0,0.0,0.0,0.0,0.0,0.0,0.0,0.0,0.0,0.0,0.0,0.0,0.0,0.0,0.0,0.0,0.0,0.0,0.0,0.0,0.0,0.0,0.0,0.0,0.0,0.0,0.0,0.0,0.0,0.0,0.0,0.0,0.0,0.0,0.0,0.0,0.0,0.0,0.0,0.0,0.0,0.0,0.0,0.0,0.0,0.0,0.0,0.0,0.0,0.0,0.0,0.0,0.0,0.0,0.0,0.0,0.0,0.0,0.0,0.0,0.0,0.0,0.0,0.0,0.0,0.0,0.0,0.0,0.0,0.0,0.0,0.0,0.0,0.0,0.0,0.0,0.0,0.0,0.0,0.0,0.0,0.0,0.0,0.0,0.0,0.0,0.0,0.0,0.0,0.0,0.0,0.0,0.0,0.0,0.0,0.0,0.0,0.0,0.0,0.0,0.0,0.0,0.0,0.0,0.0,0.0,0.0,0.0,0.0,0.0,0.0,0.0,0.0,0.0,0.0,0.0,0.0,0.0,0.0,0.0,0.0,0.0,0.0,0.0,0.0,0.0,0.0,0.0,0.0,0.0,0.0,0.0,0.0,0.0,0.0,0.0,0.0,0.0,0.0,0.0,0.0,0.0,0.0,0.0,0.0,0.0,0.0,0.0,0.0,0.0,0.0,0.0,0.0,0.0,0.0,0.0,0.0,0.0,0.0,0.0,0.0,0.0,0.0,0.0,0.0,0.0,0.0,0.0,0.0,0.0,0.0,0.0,0.0,0.0,0.0,0.0,0.0,0.0,0.0,0.0,0.0,0.0,0.0,0.0,0.0,0.0,0.0,0.0,0.0,0.0,0.0,0.0,0.0,0.0,0.0,0.0,0.0,0.0,0.0,0.0,0.0,0.0,0.0,0.0,0.0,0.0,0.0,0.0,0.0,0.0,0.0,0.0,0.0,0.0,0.0,0.0,0.0,0.0,0.0,0.0,0.0,0.0,0.0,0.0,0.0,0.0,0.0,0.0,0.0,0.0,0.0,0.0,0.0,0.0,0.0,0.0,0.0,0.0,0.0,0.0,0.0,0.0,0.0,0.0,0.0,0.0,0.0,0.0,0.0,0.0,0.0,0.0,0.0,0.0,0.0,0.0,0.0,0.0,0.0,0.0,0.0,0.0,0.0,0.0,0.0,0.0,0.0,0.0,0.0,0.0,0.0,0.0,0.0,0.0,0.0,0.0,0.0,0.0,0.0,0.0,0.0,0.0,0.0,0.0,0.0,0.0,0.0,0.0,0.0,0.0,0.0,0.0,0.0,0.0,0.0,0.0,0.0,0.0,0.0,0.0,0.0,0.0,0.0,0.0,0.0,0.0,0.0,0.0,0.0,0.0,0.0,0.0,0.0,0.0,0.0,0.0,0.0,0.0,0.0,0.0,0.0,0.0,0.0,0.0,0.0,0.0,0.0,0.0,0.0,0.0,0.0,0.0,0.0,0.0,0.0,0.0,0.0,0.0,0.0,0.0,0.0,0.0,0.0,0.0,0.0,0.0,0.0,0.0,0.0,0.0,0.0,0.0,0.0,0.0,0.0,0.0,0.0,0.0,0.0,0.0,0.0,0.0,0.0,0.0,0.0,0.0,0.0,0.0,0.0,0.0,0.0,0.0,0.0,0.0,0.0,0.0,0.0,0.0,0.0,0.0,0.0,0.0,0.0,0.0,0.0,0.0,0.0,0.0,0.0,0.0,0.0,0.0,-3.5182,0.0,0.0,0.0,0.0,0.0,0.0,0.0,0.0,0.0,0.0,0.0,0.0,0.0,0.0,0.0,0.0,0.0,0.0,0.0,0.0,0.0,0.0,0.0,0.0,0.0,0.0,0.0,0.0,0.0,0.0,0.0,0.0,0.0,0.0,0.0,0.0,0.0,0.0,0.0,0.0,0.0,0.0,0.0,0.0,0.0,0.0,0.0,0.0,0.0,0.0,0.0,0.0,0.0,0.0,0.0,0.0,0.0,0.0,0.0,0.0,0.0,0.0,0.0,0.0,0.0,0.0,0.0,0.0,0.0,0.0,0.0,0.0,0.0,0.0,0.0,0.0,0.0,0.0,0.0,0.0,0.0,0.0,0.0,0.0,0.0,0.0,0.0,0.0,0.0,0.0,0.0,0.0,0.0,0.0,0.0,0.0,0.0,0.0,0.0,0.0,0.0,0.0,0.0,0.0,0.0,0.0,0.0,0.0,0.0,0.0,-3.5164,-3.5181,-3.5187,-3.5185,-3.5182,0.0,0.0,0.0,0.0,0.0,0.0,0.0,0.0,0.0,0.0,0.0,0.0,0.0,0.0,0.0,0.0,0.0,0.0,0.0,0.0,0.0,0.0,0.0,0.0,0.0,0.0,0.0,0.0,0.0,0.0,0.0,0.0,0.0,0.0,0.0,0.0,0.0,0.0,0.0,0.0,0.0,0.0,0.0,0.0,0.0,0.0,0.0,0.0,0.0,0.0,0.0,0.0,0.0,0.0,0.0,0.0,0.0,0.0,0.0,0.0,0.0,0.0,0.0,0.0,0.0,0.0,0.0,0.0,0.0,0.0,0.0,0.0,0.0,0.0,0.0,0.0,0.0,0.0,0.0,0.0,0.0,0.0,0.0,0.0,0.0,0.0,0.0,0.0,0.0,0.0,0.0,0.0,0.0,0.0,0.0,0.0,0.0,0.0,0.0,0.0,0.0,0.0,0.0,0.0,0.0,0.0,0.0,0.0,0.0,0.0,0.0,0.0,-3.5185,-3.5182,-3.5182,0.0,0.0,0.0,0.0,0.0,0.0,0.0,0.0,0.0,0.0,0.0,0.0,0.0,0.0,0.0,0.0,0.0,0.0,0.0,0.0,0.0,0.0,0.0,0.0,0.0,0.0,0.0,0.0,0.0,0.0,0.0,0.0,0.0,0.0,0.0,0.0,0.0,0.0,0.0,0.0,0.0,0.0,0.0,0.0,0.0,0.0,0.0,0.0,0.0,0.0,0.0,0.0,0.0,0.0,0.0,0.0,0.0,0.0,0.0,0.0,0.0,0.0,0.0,0.0,0.0,0.0,0.0,0.0,0.0,0.0,0.0,0.0,0.0,0.0,0.0,0.0,0.0,0.0,0.0,0.0,0.0,0.0,0.0,0.0,0.0,0.0,0.0,0.0,0.0,0.0,0.0,0.0,0.0,0.0,0.0,0.0,0.0,0.0,0.0,0.0,0.0,0.0,0.0,0.0,0.0,0.0,0.0,0.0,0.0,0.0,-3.5182,-3.5182,-3.5182,0.0,-3.5182,0.0,0.0,0.0,0.0,0.0,0.0,0.0,0.0,0.0,0.0,0.0,0.0,0.0,0.0,0.0,0.0,0.0,0.0,0.0,0.0,0.0,0.0,0.0,0.0,0.0,0.0,0.0,0.0,0.0,0.0,0.0,0.0,0.0,0.0,0.0,0.0,0.0,0.0,0.0,0.0,0.0,0.0,0.0,0.0,0.0,0.0,0.0,0.0,0.0,0.0,0.0,0.0,0.0,0.0,0.0,0.0,0.0,0.0,0.0,0.0,0.0,0.0,0.0,0.0,0.0,0.0,0.0,0.0,0.0,0.0,0.0,0.0,0.0,0.0,0.0,0.0,0.0,0.0,0.0,0.0,0.0,0.0,0.0,0.0,0.0,0.0,0.0,0.0,0.0,0.0,0.0,0.0,0.0,0.0,0.0,0.0,0.0,0.0,0.0,0.0,0.0,0.0,0.0,0.0,0.0,0.0,0.0,0.0,0.0,0.0,-3.5262,-3.5262,-3.5243,-3.5266,0.0,0.0,0.0,0.0,0.0,0.0,0.0,0.0,0.0,0.0,0.0,0.0,0.0,0.0,0.0,0.0,0.0,0.0,0.0,0.0,0.0,0.0,0.0,0.0,0.0,0.0,0.0,0.0,0.0,0.0,0.0,0.0,0.0,0.0,0.0,0.0,0.0,0.0,0.0,0.0,0.0,0.0,0.0,0.0,0.0,0.0,0.0,0.0,0.0,0.0,0.0,0.0,0.0,0.0,0.0,0.0,0.0,0.0,0.0,0.0,0.0,0.0,0.0,0.0,0.0,0.0,0.0,0.0,0.0,0.0,0.0,0.0,0.0,0.0,0.0,0.0,0.0,0.0,0.0,0.0,0.0,0.0,0.0,0.0,0.0,0.0,0.0,0.0,0.0,0.0,0.0,0.0,0.0,0.0,0.0,0.0,0.0,0.0,0.0,0.0,0.0,0.0,0.0,0.0,0.0,0.0,0.0,0.0,0.0,0.0,-3.5312,-3.5308,-3.5308,-3.5308,-3.5312,-3.5308,0.0,0.0,0.0,0.0,0.0,0.0,0.0,0.0,0.0,0.0,0.0,0.0,0.0,0.0,0.0,0.0,0.0,0.0,0.0,0.0,0.0,0.0,0.0,0.0,0.0,0.0,0.0,0.0,0.0,0.0,0.0,0.0,0.0,0.0,0.0,0.0,0.0,0.0,0.0,0.0,0.0,0.0,0.0,0.0,0.0,0.0,0.0,0.0,0.0,0.0,0.0,0.0,0.0,0.0,0.0,0.0,0.0,0.0,0.0,0.0,0.0,0.0,0.0,0.0,0.0,0.0,0.0,0.0,0.0,0.0,0.0,0.0,0.0,0.0,0.0,0.0,0.0,0.0,0.0,0.0,0.0,0.0,0.0,0.0,0.0,0.0,0.0,0.0,0.0,0.0,0.0,0.0,0.0,0.0,0.0,0.0,0.0,0.0,0.0,0.0,0.0,0.0,0.0,0.0,0.0,0.0,0.0,0.0,-3.53,-3.5308,-3.5308,-3.5308,-3.5308,-3.5308,0.0,0.0,0.0,0.0,0.0,0.0,0.0,0.0,0.0,0.0,0.0,0.0,0.0,0.0,0.0,0.0,0.0,0.0,0.0,0.0,0.0,0.0,0.0,0.0,0.0,0.0,0.0,0.0,0.0,0.0,0.0,0.0,0.0,0.0,0.0,0.0,0.0,0.0,0.0,0.0,0.0,0.0,0.0,0.0,0.0,0.0,0.0,0.0,0.0,0.0,0.0,0.0,0.0,0.0,0.0,0.0,0.0,0.0,0.0,0.0,0.0,0.0,0.0,0.0,0.0,0.0,0.0,0.0,0.0,0.0,0.0,0.0,0.0,0.0,0.0,0.0,0.0,0.0,0.0,0.0,0.0,0.0,0.0,0.0,0.0,0.0,0.0,0.0,0.0,0.0,0.0,0.0,0.0,0.0,0.0,0.0,0.0,0.0,0.0,0.0,0.0,0.0,0.0,0.0,0.0,0.0,0.0,0.0,0.0,-3.5364,-3.5405,-3.542,-3.5439,-3.542,-3.5412,0.0,0.0,0.0,0.0,0.0,0.0,0.0,0.0,0.0,0.0,0.0,0.0,0.0,0.0,0.0,0.0,0.0,0.0,0.0,0.0,0.0,0.0,0.0,0.0,0.0,0.0,0.0,0.0,0.0,0.0,0.0,0.0,0.0,0.0,0.0,0.0,0.0,0.0,0.0,0.0,0.0,0.0,0.0,0.0,0.0,0.0,0.0,0.0,0.0,0.0,0.0,0.0,0.0,0.0,0.0,0.0,0.0,0.0,0.0,0.0,0.0,0.0,0.0,0.0,0.0,0.0,0.0,0.0,0.0,0.0,0.0,0.0,0.0,0.0,0.0,0.0,0.0,0.0,0.0,0.0,0.0,0.0,0.0,0.0,0.0,0.0,0.0,0.0,0.0,0.0,0.0,0.0,0.0,0.0,0.0,0.0,0.0,0.0,0.0,0.0,0.0,0.0,0.0,0.0,0.0,0.0,0.0,0.0,0.0,-3.6234,0.0,-3.6308,-3.6295,-3.6315,-3.6147,0.0,0.0,0.0,0.0,0.0,0.0,0.0,0.0,0.0,0.0,0.0,0.0,0.0,0.0,0.0,0.0,0.0,0.0,0.0,0.0,0.0,0.0,0.0,0.0,0.0,0.0,0.0,0.0,0.0,0.0,0.0,0.0,0.0,0.0,0.0,0.0,0.0,0.0,0.0,0.0,0.0,0.0,0.0,0.0,0.0,0.0,0.0,0.0,0.0,0.0,0.0,0.0,0.0,0.0,0.0,0.0,0.0,0.0,0.0,0.0,0.0,0.0,0.0,0.0,0.0,0.0,0.0,0.0,0.0,0.0,0.0,0.0,0.0,0.0,0.0,0.0,0.0,0.0,0.0,0.0,0.0,0.0,0.0,0.0,0.0,0.0,0.0,0.0,0.0,0.0,0.0,0.0,0.0,0.0,0.0,0.0,0.0,0.0,0.0,0.0,0.0,0.0,0.0,0.0,0.0,0.0,0.0,0.0,-3.7144,-3.793,-3.795,-3.7899,-3.7969,-3.7918,-3.7565,0.0,0.0,0.0,0.0,0.0,0.0,0.0,0.0,0.0,0.0,0.0,0.0,0.0,0.0,0.0,0.0,0.0,0.0,0.0,0.0,0.0,0.0,0.0,0.0,0.0,0.0,0.0,0.0,0.0,0.0,0.0,0.0,0.0,0.0,0.0,0.0,0.0,0.0,0.0,0.0,0.0,0.0,0.0,0.0,0.0,0.0,0.0,0.0,0.0,0.0,0.0,0.0,0.0,0.0,0.0,0.0,0.0,0.0,0.0,0.0,0.0,0.0,0.0,0.0,0.0,0.0,0.0,0.0,0.0,0.0,0.0,0.0,0.0,0.0,0.0,0.0,0.0,0.0,0.0,0.0,0.0,0.0,0.0,0.0,0.0,0.0,0.0,0.0,0.0,0.0,0.0,0.0,0.0,0.0,0.0,0.0,0.0,0.0,0.0,0.0,0.0,0.0,0.0,0.0,0.0,0.0,0.0,0.0,0.0,-3.8092,-3.8073,-3.8053,-3.8053,-3.8073,-3.7943,0.0,0.0,0.0,0.0,0.0,0.0,0.0,0.0,0.0,0.0,0.0,0.0,0.0,0.0,0.0,0.0,0.0,0.0,0.0,0.0,0.0,0.0,0.0,0.0,0.0,0.0,0.0,0.0,0.0,0.0,0.0,0.0,0.0,0.0,0.0,0.0,0.0,0.0,0.0,0.0,0.0,0.0,0.0,0.0,0.0,0.0,0.0,0.0,0.0,0.0,0.0,0.0,0.0,0.0,0.0,0.0,0.0,0.0,0.0,0.0,0.0,0.0,0.0,0.0,0.0,0.0,0.0,0.0,0.0,0.0,0.0,0.0,0.0,0.0,0.0,0.0,0.0,0.0,0.0,0.0,0.0,0.0,0.0,0.0,0.0,0.0,0.0,0.0,0.0,0.0,0.0,0.0,0.0,0.0,0.0,0.0,0.0,0.0,0.0,0.0,0.0,0.0,0.0,0.0,0.0,0.0,0.0,0.0,0.0,-3.9655,-3.9573,-3.9548,-3.9534,-3.9554,-3.9251,-3.8619,0.0,0.0,0.0,0.0,0.0,0.0,0.0,0.0,0.0,0.0,0.0,0.0,0.0,0.0,0.0,0.0,0.0,0.0,0.0,0.0,0.0,0.0,0.0,0.0,0.0,0.0,0.0,0.0,0.0,0.0,0.0,0.0,0.0,0.0,0.0,0.0,0.0,0.0,0.0,0.0,0.0,0.0,0.0,0.0,0.0,0.0,0.0,0.0,0.0,0.0,0.0,0.0,0.0,0.0,0.0,0.0,0.0,0.0,0.0,0.0,0.0,0.0,0.0,0.0,0.0,0.0,0.0,0.0,0.0,0.0,0.0,0.0,0.0,0.0,0.0,0.0,0.0,0.0,0.0,0.0,0.0,0.0,0.0,0.0,0.0,0.0,0.0,0.0,0.0,0.0,0.0,0.0,0.0,0.0,0.0,0.0,0.0,0.0,0.0,0.0,0.0,0.0,0.0,0.0,0.0,0.0,0.0,0.0,-4.2417,-4.2276,-4.2151,-4.206,-4.2002,-4.1228,0.0,0.0,0.0,0.0,0.0,0.0,0.0,0.0,0.0,0.0,0.0,0.0,0.0,0.0,0.0,0.0,0.0,0.0,0.0,0.0,0.0,0.0,0.0,0.0,0.0,0.0,0.0,0.0,0.0,0.0,0.0,0.0,0.0,0.0,0.0,0.0,0.0,0.0,0.0,0.0,0.0,0.0,0.0,0.0,0.0,0.0,0.0,0.0,0.0,0.0,0.0,0.0,0.0,0.0,0.0,0.0,0.0,0.0,0.0,0.0,0.0,0.0,0.0,0.0,0.0,0.0,0.0,0.0,0.0,0.0,0.0,0.0,0.0,0.0,0.0,0.0,0.0,0.0,0.0,0.0,0.0,0.0,0.0,0.0,0.0,0.0,0.0,0.0,0.0,0.0,0.0,0.0,0.0,0.0,0.0,0.0,0.0,0.0,0.0,0.0,0.0,0.0,0.0,0.0,0.0,0.0,0.0,0.0,0.0,-4.4978,-4.5055,-4.4385,-4.3086,-4.246,-4.1883,0.0,0.0,0.0,0.0,0.0,0.0,0.0,0.0,0.0,0.0,0.0,0.0,0.0,0.0,0.0,0.0,0.0,0.0,0.0,0.0,0.0,0.0,0.0,0.0,0.0,0.0,0.0,0.0,0.0,0.0,0.0,0.0,0.0,0.0,0.0,0.0,0.0,0.0,0.0,0.0,0.0,0.0,0.0,0.0,0.0,0.0,0.0,0.0,0.0,0.0,0.0,0.0,0.0,0.0,0.0,0.0,0.0,0.0,0.0,0.0,0.0,0.0,0.0,0.0,0.0,0.0,0.0,0.0,0.0,0.0,0.0,0.0,0.0,0.0,0.0,0.0,0.0,0.0,0.0,0.0,0.0,0.0,0.0,0.0,0.0,0.0,0.0,0.0,0.0,0.0,0.0,0.0,0.0,0.0,0.0,0.0,0.0,0.0,0.0,0.0,0.0,0.0,0.0,0.0,0.0,0.0,0.0,0.0,-4.4208,-4.6107,-4.7212,-4.7127,-4.5713,-4.4482,-4.346,0.0,0.0,0.0,0.0,0.0,0.0,0.0,0.0,0.0,0.0,0.0,0.0,0.0,0.0,0.0,0.0,0.0,0.0,0.0,0.0,0.0,0.0,0.0,0.0,0.0,0.0,0.0,0.0,0.0,0.0,0.0,0.0,0.0,0.0,0.0,0.0,0.0,0.0,0.0,0.0,0.0,0.0,0.0,0.0,0.0,0.0,0.0,0.0,0.0,0.0,0.0,0.0,0.0,0.0,0.0,0.0,0.0,0.0,0.0,0.0,0.0,0.0,0.0,0.0,0.0,0.0,0.0,0.0,0.0,0.0,0.0,0.0,0.0,0.0,0.0,0.0,0.0,0.0,0.0,0.0,0.0,0.0,0.0,0.0,0.0,0.0,0.0,0.0,0.0,0.0,0.0,0.0,0.0,0.0,0.0,0.0,0.0,0.0,0.0,0.0,0.0,0.0,0.0,0.0,0.0,0.0,0.0,0.0,-4.5398,-4.6621,-4.8978,-4.9884,-4.9176,-4.7291,-4.5391,0.0,0.0,0.0,0.0,0.0,0.0,0.0,0.0,0.0,0.0,0.0,0.0,0.0,0.0,0.0,0.0,0.0,0.0,0.0,0.0,0.0,0.0,0.0,0.0,0.0,0.0,0.0,0.0,0.0,0.0,0.0,0.0,0.0,0.0,0.0,0.0,0.0,0.0,0.0,0.0,0.0,0.0,0.0,0.0,0.0,0.0,0.0,0.0,0.0,0.0,0.0,0.0,0.0,0.0,0.0,0.0,0.0,0.0,0.0,0.0,0.0,0.0,0.0,0.0,0.0,0.0,0.0,0.0,0.0,0.0,0.0,0.0,0.0,0.0,0.0,0.0,0.0,0.0,0.0,0.0,0.0,0.0,0.0,0.0,0.0,0.0,0.0,0.0,0.0,0.0,0.0,0.0,0.0,0.0,0.0,0.0,0.0,0.0,0.0,0.0,0.0,0.0,0.0,0.0,0.0,0.0,0.0,0.0,-4.6313,-4.921,-5.0484,-5.1371,-5.1839,-4.8833,-4.6353,0.0,0.0,0.0,0.0,0.0,0.0,0.0,0.0,0.0,0.0,0.0,0.0,0.0,0.0,0.0,0.0,0.0,0.0,0.0,0.0,0.0,0.0,0.0,0.0,0.0,0.0,0.0,0.0,0.0,0.0,0.0,0.0,0.0,0.0,0.0,0.0,0.0,0.0,0.0,0.0,0.0,0.0,0.0,0.0,0.0,0.0,0.0,0.0,-4.5466,0.0,0.0,0.0,0.0,0.0,0.0,0.0,0.0,0.0,0.0,0.0,0.0,0.0,0.0,0.0,0.0,0.0,0.0,0.0,0.0,0.0,0.0,0.0,0.0,0.0,0.0,0.0,0.0,0.0,0.0,0.0,0.0,0.0,0.0,0.0,0.0,0.0,0.0,0.0,0.0,0.0,0.0,0.0,0.0,0.0,0.0,0.0,0.0,0.0,0.0,0.0,0.0,0.0,0.0,0.0,0.0,0.0,0.0,0.0,-4.7413,-5.0022,-5.1348,-5.2232,-5.256,-5.012,-4.7674,0.0,0.0,0.0,0.0,0.0,0.0,0.0,0.0,0.0,0.0,0.0,0.0,0.0,0.0,0.0,0.0,0.0,0.0,0.0,0.0,0.0,0.0,0.0,0.0,0.0,0.0,0.0,0.0,0.0,0.0,0.0,0.0,0.0,0.0,0.0,0.0,0.0,0.0,0.0,0.0,0.0,0.0,0.0,0.0,0.0,0.0,0.0,0.0,0.0,0.0,0.0,0.0,0.0,0.0,0.0,0.0,0.0,0.0,0.0,0.0,0.0,0.0,0.0,0.0,0.0,0.0,0.0,0.0,0.0,0.0,0.0,0.0,0.0,0.0,0.0,0.0,0.0,0.0,0.0,0.0,0.0,0.0,0.0,0.0,0.0,0.0,0.0,0.0,0.0,0.0,0.0,0.0,0.0,0.0,0.0,0.0,0.0,0.0,0.0,0.0,0.0,0.0,0.0,0.0,0.0,0.0,0.0,-4.6206,-4.8476,-5.0454,-5.1929,-5.277,-5.2863,-5.1076,-4.8852,-4.622,0.0,0.0,0.0,0.0,0.0,0.0,0.0,0.0,0.0,0.0,0.0,0.0,0.0,0.0,0.0,0.0,0.0,0.0,0.0,0.0,0.0,0.0,0.0,0.0,0.0,0.0,0.0,0.0,0.0,0.0,0.0,0.0,0.0,0.0,0.0,0.0,0.0,0.0,-4.5438,-4.5495,0.0,0.0,0.0,0.0,0.0,0.0,0.0,0.0,-4.387,0.0,0.0,0.0,0.0,0.0,0.0,0.0,0.0,0.0,0.0,0.0,0.0,0.0,0.0,0.0,0.0,0.0,0.0,0.0,0.0,0.0,0.0,0.0,0.0,0.0,0.0,0.0,0.0,0.0,0.0,0.0,0.0,0.0,0.0,0.0,0.0,0.0,0.0,0.0,0.0,0.0,0.0,0.0,0.0,0.0,0.0,0.0,0.0,0.0,0.0,0.0,0.0,0.0,0.0,0.0,0.0,-4.4565,-4.6518,-4.9042,-5.2171,-5.2554,-5.3044,-5.3684,-5.1389,-4.8881,-4.6284,0.0,0.0,0.0,0.0,0.0,0.0,0.0,0.0,0.0,0.0,0.0,0.0,0.0,0.0,0.0,0.0,0.0,0.0,0.0,0.0,0.0,0.0,0.0,0.0,0.0,0.0,0.0,0.0,0.0,0.0,0.0,0.0,0.0,0.0,0.0,0.0,0.0,0.0,0.0,-4.5671,-4.575,0.0,0.0,0.0,0.0,0.0,0.0,0.0,0.0,-4.4194,0.0,0.0,0.0,0.0,0.0,0.0,0.0,0.0,0.0,0.0,0.0,0.0,0.0,0.0,0.0,0.0,0.0,0.0,0.0,0.0,0.0,0.0,0.0,0.0,0.0,0.0,0.0,0.0,0.0,0.0,0.0,0.0,0.0,0.0,0.0,0.0,0.0,0.0,0.0,0.0,0.0,0.0,0.0,0.0,0.0,0.0,0.0,0.0,0.0,0.0,0.0,0.0,0.0,0.0,0.0,-4.4892,-4.7028,-4.9639,-5.2567,-5.2263,-5.244,-5.3235,-5.0782,-4.8198,0.0,0.0,0.0,0.0,0.0,0.0,0.0,0.0,0.0,0.0,0.0,0.0,0.0,0.0,0.0,0.0,0.0,0.0,0.0,0.0,0.0,0.0,0.0,0.0,0.0,0.0,0.0,0.0,0.0,0.0,0.0,0.0,0.0,0.0,0.0,0.0,0.0,0.0,0.0,0.0,-4.5788,-4.5859,-4.59,0.0,0.0,0.0,0.0,0.0,0.0,-4.3932,-4.3208,0.0,0.0,0.0,0.0,0.0,0.0,0.0,0.0,0.0,0.0,0.0,0.0,0.0,0.0,0.0,0.0,0.0,0.0,0.0,0.0,0.0,0.0,0.0,0.0,0.0,0.0,0.0,0.0,0.0,0.0,0.0,0.0,0.0,0.0,0.0,0.0,0.0,0.0,0.0,0.0,0.0,0.0,0.0,0.0,0.0,0.0,0.0,0.0,0.0,0.0,0.0,0.0,0.0,0.0,0.0,-4.5212,-4.7552,-5.0157,-5.2785,-5.1952,-5.1816,-5.261,-5.0157,-4.7574,0.0,0.0,0.0,0.0,0.0,0.0,0.0,0.0,0.0,0.0,0.0,0.0,0.0,0.0,0.0,0.0,0.0,0.0,0.0,0.0,0.0,0.0,0.0,0.0,0.0,0.0,0.0,0.0,0.0,0.0,0.0,0.0,0.0,0.0,0.0,0.0,0.0,0.0,0.0,0.0,0.0,-4.5956,-4.5994,-4.6026,0.0,0.0,0.0,0.0,-4.4735,-4.3608,0.0,0.0,0.0,0.0,0.0,0.0,0.0,0.0,0.0,0.0,0.0,0.0,0.0,0.0,0.0,0.0,0.0,0.0,0.0,0.0,0.0,0.0,0.0,0.0,0.0,0.0,0.0,0.0,0.0,0.0,0.0,0.0,0.0,0.0,0.0,0.0,0.0,0.0,0.0,0.0,0.0,0.0,0.0,0.0,0.0,0.0,0.0,0.0,0.0,0.0,0.0,0.0,0.0,0.0,0.0,0.0,-4.6053,-4.7864,-5.043,-5.3586,-5.2245,-5.1816,-5.263,-5.0177,-4.7574,0.0,0.0,0.0,0.0,0.0,0.0,0.0,0.0,0.0,0.0,0.0,0.0,0.0,0.0,0.0,0.0,0.0,0.0,0.0,0.0,0.0,0.0,0.0,0.0,0.0,0.0,0.0,0.0,0.0,0.0,0.0,0.0,0.0,0.0,0.0,0.0,0.0,0.0,0.0,0.0,0.0,-4.6007,-4.6075,-4.6083,-4.608,0.0,0.0,-4.5663,-4.4902,-4.463,0.0,0.0,0.0,0.0,0.0,0.0,0.0,0.0,0.0,0.0,0.0,0.0,0.0,0.0,0.0,0.0,0.0,0.0,0.0,0.0,0.0,0.0,0.0,0.0,0.0,0.0,0.0,0.0,0.0,0.0,0.0,0.0,0.0,0.0,0.0,0.0,0.0,0.0,0.0,0.0,0.0,0.0,0.0,0.0,0.0,0.0,0.0,0.0,0.0,0.0,0.0,0.0,0.0,0.0,0.0,-4.4392,-4.617,-4.7903,-5.0235,-5.3098,-5.203,-5.1347,-5.1223,-4.963,-4.7338,0.0,0.0,0.0,0.0,0.0,0.0,0.0,0.0,0.0,0.0,0.0,0.0,0.0,0.0,0.0,0.0,0.0,0.0,0.0,0.0,0.0,0.0,0.0,0.0,0.0,0.0,0.0,0.0,0.0,0.0,0.0,0.0,0.0,0.0,0.0,0.0,0.0,0.0,0.0,0.0,0.0,0.0,-4.615,-4.6569,0.0,0.0,0.0,-4.6599,-4.5725,0.0,0.0,0.0,0.0,0.0,0.0,0.0,0.0,0.0,0.0,0.0,0.0,0.0,0.0,0.0,0.0,0.0,0.0,0.0,0.0,0.0,0.0,0.0,0.0,0.0,0.0,0.0,0.0,0.0,0.0,0.0,0.0,0.0,0.0,0.0,0.0,0.0,0.0,0.0,0.0,0.0,0.0,0.0,0.0,0.0,0.0,0.0,0.0,0.0,0.0,0.0,0.0,0.0,0.0,0.0,0.0,0.0,-4.6193,-4.7923,-5.0177,-5.2864,-5.1972,-5.1191,-5.0755,-4.9496,0.0,0.0,0.0,0.0,0.0,0.0,0.0,0.0,0.0,0.0,0.0,0.0,0.0,0.0,0.0,0.0,0.0,0.0,0.0,0.0,0.0,0.0,0.0,0.0,0.0,0.0,0.0,-3.9838,0.0,0.0,0.0,0.0,0.0,0.0,0.0,0.0,0.0,0.0,0.0,0.0,0.0,0.0,-4.616,-4.6222,-4.6772,-4.6982,0.0,0.0,-4.6972,-4.6312,-4.4925,-4.386,0.0,0.0,0.0,0.0,0.0,0.0,0.0,0.0,0.0,0.0,0.0,0.0,0.0,0.0,0.0,0.0,0.0,0.0,0.0,0.0,0.0,0.0,0.0,0.0,0.0,0.0,0.0,0.0,0.0,0.0,0.0,0.0,0.0,0.0,0.0,0.0,0.0,0.0,0.0,0.0,0.0,0.0,0.0,0.0,0.0,0.0,0.0,0.0,0.0,0.0,0.0,0.0,0.0,0.0,-4.3579,-4.6154,-4.7903,-5.045,-5.3703,-5.2265,-5.1757,-5.2454,-5.0104,-4.7549,0.0,0.0,0.0,0.0,0.0,0.0,0.0,0.0,0.0,0.0,0.0,0.0,0.0,0.0,0.0,0.0,0.0,0.0,0.0,0.0,0.0,0.0,0.0,0.0,0.0,0.0,0.0,0.0,0.0,0.0,0.0,0.0,0.0,0.0,0.0,0.0,0.0,0.0,0.0,0.0,0.0,-4.6214,-4.6275,-4.6344,-4.6366,0.0,-4.6337,-4.6331,-4.6211,-4.5423,-4.454,-4.373,0.0,0.0,0.0,0.0,0.0,0.0,0.0,0.0,0.0,0.0,0.0,0.0,0.0,0.0,0.0,0.0,0.0,0.0,0.0,0.0,0.0,0.0,0.0,0.0,0.0,0.0,0.0,0.0,0.0,0.0,0.0,0.0,0.0,0.0,0.0,0.0,0.0,0.0,0.0,0.0,0.0,0.0,0.0,0.0,0.0,0.0,0.0,0.0,0.0,0.0,0.0,0.0,0.0,-4.3521,-4.617,-4.7923,-5.0216,-5.3001,-5.2011,-5.1562,-5.1872,-4.9893,-4.7826,0.0,0.0,0.0,0.0,0.0,0.0,0.0,0.0,0.0,0.0,0.0,0.0,0.0,0.0,0.0,0.0,0.0,0.0,0.0,0.0,0.0,0.0,0.0,0.0,0.0,0.0,0.0,0.0,-4.0773,-4.0809,-4.0809,0.0,0.0,0.0,0.0,0.0,0.0,0.0,0.0,0.0,0.0,-4.6269,-4.6295,-4.6752,0.0,0.0,-4.6301,-4.61,-4.5531,-4.4276,-4.3255,-4.2907,-4.0994,0.0,0.0,0.0,0.0,0.0,0.0,0.0,0.0,0.0,0.0,0.0,0.0,0.0,0.0,0.0,0.0,0.0,0.0,0.0,0.0,0.0,0.0,0.0,0.0,0.0,0.0,0.0,0.0,0.0,0.0,0.0,0.0,0.0,0.0,0.0,0.0,0.0,0.0,0.0,0.0,0.0,0.0,0.0,0.0,0.0,0.0,0.0,0.0,0.0,0.0,0.0,0.0,-4.3248,-4.6154,-4.7903,-5.0059,-5.2648,-5.1835,-5.1523,-5.1737,-5.0109,-4.8358,0.0,0.0,0.0,0.0,0.0,0.0,0.0,0.0,0.0,0.0,0.0,0.0,0.0,0.0,0.0,0.0,0.0,0.0,0.0,0.0,0.0,0.0,0.0,0.0,0.0,0.0,0.0,0.0,-4.1009,-4.0859,-4.0859,0.0,0.0,0.0,0.0,0.0,0.0,0.0,0.0,0.0,0.0,-4.6287,-4.6307,-4.6836,-4.6894,-4.6055,-4.5918,-4.5604,-4.4732,-4.3421,-4.248,-4.2422,0.0,0.0,0.0,0.0,0.0,0.0,0.0,0.0,0.0,0.0,0.0,0.0,0.0,0.0,0.0,0.0,0.0,0.0,0.0,0.0,0.0,0.0,0.0,0.0,0.0,0.0,0.0,-4.2756,0.0,0.0,-4.1457,0.0,0.0,0.0,0.0,0.0,0.0,0.0,0.0,0.0,0.0,0.0,0.0,0.0,0.0,0.0,0.0,0.0,0.0,0.0,0.0,0.0,0.0,-4.2708,-4.6151,-4.7923,-5.0059,-5.257,-5.1835,-5.1797,-5.2576,-5.0971,-4.9245,-4.7492,0.0,0.0,0.0,0.0,0.0,0.0,0.0,0.0,0.0,0.0,0.0,0.0,0.0,0.0,0.0,0.0,0.0,0.0,0.0,0.0,0.0,0.0,0.0,0.0,0.0,0.0,-4.2231,-4.1466,-4.0988,0.0,0.0,0.0,0.0,0.0,0.0,0.0,0.0,0.0,-4.3704,-4.5215,-4.6306,-4.6303,-4.6322,-4.6028,-4.5169,-4.5016,-4.4707,-4.3846,-4.3181,-4.2711,0.0,0.0,0.0,0.0,0.0,0.0,0.0,0.0,0.0,0.0,0.0,0.0,0.0,0.0,0.0,0.0,0.0,0.0,0.0,0.0,0.0,0.0,0.0,0.0,0.0,0.0,0.0,-4.4647,-4.3605,0.0,0.0,0.0,0.0,0.0,0.0,0.0,0.0,0.0,0.0,0.0,-4.8124,-4.7861,0.0,0.0,0.0,0.0,0.0,0.0,0.0,0.0,0.0,0.0,0.0,0.0,-4.3265,-4.6128,-4.7914,-5.0083,-5.259,-5.1855,-5.1836,-5.2656,-5.1053,-4.9072,-4.6704,0.0,0.0,0.0,0.0,0.0,0.0,0.0,0.0,0.0,0.0,0.0,0.0,0.0,0.0,0.0,0.0,0.0,0.0,0.0,0.0,0.0,0.0,0.0,0.0,0.0,-4.3175,0.0,0.0,0.0,0.0,0.0,0.0,0.0,0.0,0.0,0.0,0.0,-4.3709,-4.371,-4.5207,-4.629,-4.6243,-4.575,-4.5279,0.0,0.0,0.0,0.0,0.0,0.0,0.0,0.0,0.0,0.0,0.0,0.0,0.0,0.0,-3.9418,-3.8266,-3.8276,-3.8442,-3.8419,0.0,0.0,0.0,0.0,0.0,0.0,0.0,0.0,0.0,0.0,0.0,0.0,0.0,0.0,-4.6411,0.0,-4.5091,0.0,0.0,0.0,0.0,0.0,0.0,0.0,0.0,-4.8851,-4.9774,-5.0381,-5.0126,-4.9557,0.0,-4.7868,-4.5799,0.0,0.0,0.0,0.0,0.0,0.0,0.0,0.0,-4.3727,-4.6582,-4.8055,-4.991,-5.2082,-5.1678,-5.168,-5.2187,-5.0917,-4.9367,-4.7602,-4.6125,-4.4543,0.0,0.0,0.0,0.0,0.0,0.0,0.0,0.0,0.0,0.0,0.0,0.0,0.0,0.0,0.0,0.0,0.0,0.0,0.0,0.0,0.0,0.0,0.0,-4.3656,0.0,0.0,0.0,0.0,0.0,0.0,0.0,0.0,0.0,-4.1652,-4.3066,-4.4157,-4.4168,-4.5384,-4.615,-4.5806,0.0,0.0,0.0,0.0,0.0,0.0,0.0,-4.1207,-4.1503,-4.123,-4.1016,-4.1191,-4.0742,-4.0545,-4.1069,0.0,0.0,-4.0118,-4.0081,-4.0259,-4.0221,-4.0205,-4.0217,-4.0217,-4.0192,-4.0092,0.0,0.0,0.0,0.0,0.0,0.0,0.0,0.0,-4.8179,-4.818,0.0,-4.7212,0.0,0.0,0.0,0.0,-4.6695,-4.6969,0.0,0.0,-5.1063,-5.2108,-5.3643,-5.2937,-5.2195,-5.1358,-5.0443,-4.8708,-4.6168,-4.2772,0.0,0.0,0.0,0.0,0.0,0.0,-4.4062,-4.7382,-4.8349,-4.9656,-5.1341,-5.1405,-5.1387,-5.1387,-5.0663,-5.0189,-4.9994,-4.766,-4.6248,-4.6045,-4.2891,0.0,0.0,0.0,0.0,0.0,0.0,0.0,0.0,0.0,0.0,0.0,0.0,0.0,0.0,0.0,0.0,0.0,0.0,0.0,0.0,-4.4908,0.0,0.0,0.0,0.0,0.0,0.0,0.0,0.0,0.0,-4.3418,-4.2617,-4.394,-4.4997,-4.4971,0.0,0.0,0.0,0.0,-4.4351,-4.2774,-4.2464,-4.2151,-4.136,-4.1211,-4.149,-4.2296,0.0,0.0,-4.3572,-4.367,-4.3612,-4.371,-4.3671,-4.3473,-4.2669,-4.2973,-4.3421,-4.3457,-4.3373,-4.3549,-4.354,-4.3194,-4.3005,-5.3517,0.0,0.0,0.0,0.0,-5.067,-5.1026,-5.1532,-5.1574,-5.1229,-5.0664,-4.9782,0.0,0.0,0.0,0.0,0.0,0.0,-5.0198,-5.1044,-5.2337,-5.3261,-5.3808,-5.3619,-5.3389,-5.3111,-5.1691,-5.0602,-4.9687,-4.6345,-4.3715,-4.182,0.0,0.0,0.0,0.0,-4.5253,-4.7409,-4.8398,-4.97,-5.1364,-5.1386,-5.1387,-5.1387,-5.1171,-5.0779,-5.0189,-4.9394,-4.8105,-4.625,-4.5215,0.0,0.0,0.0,0.0,0.0,0.0,0.0,0.0,0.0,0.0,0.0,0.0,0.0,0.0,0.0,0.0,0.0,0.0,0.0,-4.5746,-4.5343,-4.4898,0.0,0.0,0.0,0.0,0.0,0.0,0.0,0.0,0.0,-4.4297,-4.4678,-4.4977,0.0,0.0,-4.6108,-4.5878,-4.5293,-4.4731,-4.4257,-4.3668,0.0,-4.2924,-4.2924,-4.3035,-4.329,-4.3398,-4.3524,-4.3685,-4.3705,-4.3902,-4.4489,-4.4648,-4.4726,-4.5073,-4.431,-4.3734,-4.3616,-4.361,-4.3603,-4.3599,-4.3544,-4.3452,-5.6541,-5.4279,-5.3237,-5.2601,-5.2294,-5.2316,-5.2596,-5.3037,-5.3067,-5.2809,-5.234,-5.1802,-5.1081,-5.0235,-4.9757,0.0,0.0,0.0,-5.214,-5.2572,-5.3689,-5.4446,-5.4842,-5.4913,-5.4743,-5.4351,-5.3064,-5.2035,-5.1257,-4.8902,-4.6578,-4.4303,0.0,0.0,-4.2844,-4.3845,-4.5242,-4.6943,-4.7913,-4.9193,-5.0836,-5.0917,-5.0937,-5.0918,-5.0586,-5.0194,-4.9705,-4.9306,-4.8376,-4.678,-4.5738,-4.4215,0.0,0.0,0.0,0.0,0.0,0.0,0.0,0.0,0.0,0.0,0.0,-3.9966,-4.081,0.0,0.0,0.0,-4.4231,-4.5592,-4.6728,-4.6341,0.0,0.0,0.0,0.0,0.0,0.0,0.0,-4.4201,-4.4953,-4.5469,-4.547,-4.5462,-4.5476,-4.5423,-4.5865,-4.6073,-4.5732,0.0,-4.4773,-4.4442,-4.3929,-4.361,-4.361,-4.3653,-4.3808,-4.4183,-4.4524,-4.4727,-4.4731,-4.4751,-4.4909,-4.5381,-4.5523,-4.5683,-4.621,-4.5418,-4.471,-4.4663,-4.4614,-4.4592,-4.4599,-4.454,-4.4404,-5.9127,-5.8173,-5.5746,-5.4242,-5.3437,-5.3492,-5.3494,-5.3428,-5.349,-5.3453,-5.3395,-5.3318,-5.2817,-5.2026,-5.2029,0.0,-5.3234,-5.3497,-5.4065,-5.4895,-5.5047,-5.5595,-5.6492,-5.6416,-5.5968,-5.5204,-5.4328,-5.3044,-5.1434,-5.0495,-4.9237,-4.7528,-4.4258,-4.2981,-4.3661,-4.3776,-4.4599,-4.6192,-4.7129,-4.8391,-4.9973,-4.9979,-5.0,-4.998,-4.916,-4.8691,-4.867,-4.7925,-4.7448,-4.7237,-4.5072,-4.3702,-4.3416,0.0,0.0,0.0,0.0,0.0,0.0,0.0,0.0,0.0,0.0,0.0,0.0,0.0,0.0,-4.3637,-4.6019,0.0,-4.7694,-4.7695,0.0,0.0,0.0,-4.4979,-4.4189,-4.4812,-4.5294,-4.5308,0.0,0.0,-4.642,-4.6404,-4.6417,-4.6414,-4.6287,-4.5907,-4.5108,-4.5069,-4.4695,-4.4069,-4.3848,-4.3841,-4.4,-4.4024,-4.4298,-4.5008,-4.5773,-4.6184,-4.6204,-4.6204,-4.6266,-4.6233,-4.6278,-4.6286,-4.6289,-4.6225,-4.629,-4.6119,-4.6073,-4.6068,-4.5985,-4.5906,-4.5657,-5.9992,-5.9184,-5.8516,-5.7774,-5.7043,-5.7055,-5.6681,-5.6077,-5.6107,-5.5733,-5.5068,-5.4453,-5.3742,-5.2964,-5.3021,-5.3181,-5.3467,-5.4204,-5.4717,-5.5016,-5.5733,-5.6232,-5.6473,-5.5812,-5.5427,-5.5196,-5.3735,-5.2789,-5.2306,-5.084,-4.9544,-4.8437,-4.6326,-4.503,-4.4631,-4.5306,-4.5855,-4.6273,-4.7149,-4.8117,-4.9118,-4.8553,-4.8222,-4.8203,-4.7383,-4.6914,-4.6913,-4.6714,-4.6299,-4.5608,-4.5004,-4.4044,-4.2688,-4.1838,0.0,0.0,0.0,0.0,0.0,0.0,0.0,0.0,0.0,-4.0318,-4.1843,0.0,-4.2312,0.0,-4.6436,-4.7851,-4.8515,-4.853,0.0,0.0,-4.8032,-4.7828,-4.7619,-4.7776,-4.7903,-4.7891,-4.8061,-4.8172,-4.8194,-4.8187,-4.8167,-4.8151,-4.7021,-4.6121,-4.5926,-4.5887,-4.5825,-4.5592,-4.5517,-4.5563,-4.552,-4.5623,-4.5703,-4.5948,-4.6184,-4.6302,-4.6302,-4.6302,-4.6302,-4.6305,-4.6295,-4.6303,-4.6288,-4.6288,-4.6279,-4.623,-4.6189,-4.6162,-4.6106,-4.609,-4.5988,-6.0512,-6.0089,-6.0069,-5.9608,-5.8781,-5.805,-5.7453,-5.6973,-5.6579,-5.6145,-5.5665,-5.5254,-5.4842,-5.4429,-5.4513,-5.4611,-5.4699,-5.5266,-5.5534,-5.5608,-5.6145,-5.6234,-5.5902,-5.5415,-5.5026,-5.4693,-5.3348,-5.2698,-5.2626,-5.1318,-5.0062,-4.8797,-4.783,-4.6348,-4.4487,-4.5265,-4.5352,-4.4596,-4.6191,-4.7431,-4.8238,-4.7477,-4.7028,-4.6991,-4.58,-4.5135,-4.5133,-4.5149,-4.4931,-4.4439,-4.4426,-4.3784,-4.2432,-4.1964,-4.1331,0.0,0.0,0.0,0.0,0.0,0.0,0.0,0.0,0.0,0.0,0.0,-4.4328,-4.6565,-4.7948,-4.8905,-4.9389,-4.9396,-4.9384,-4.9378,-4.904,-4.8796,-4.8803,-4.88,-4.8791,-4.8805,-4.8801,-4.8798,-4.8791,-4.8806,-4.8631,-4.828,-4.7384,-4.6784,-4.6725,-4.6472,-4.6199,-4.6199,-4.6199,-4.6209,-4.6212,-4.6228,-4.6262,-4.6298,-4.6302,-4.6302,-4.6302,-4.6302,-4.6302,-4.6302,-4.6291,-4.6301,-4.6306,-4.6289,-4.6285,-4.6261,-4.6217,-4.6169,-4.6126,-4.6114,-4.6071,-6.0723,-6.0627,-6.0627,-6.0146,-5.9223,-5.7676,-5.7011,-5.6942,-5.6184,-5.581,-5.5724,-5.5796,-5.5826,-5.5827,-5.5958,-5.6062,-5.613,-5.6252,-5.6308,-5.6305,-5.626,-5.5872,-5.5201,-5.4981,-5.4526,-5.3815,-5.2936,-5.2522,-5.2511,-5.1769,-5.0516,-4.8864,-4.8796,-4.7142,-4.4042,-4.4727,-4.4317,-4.2639,-4.4919,-4.649,-4.7238,-4.6418,-4.5969,-4.5891,-4.4271,-4.3373,-4.3353,-4.3368,-4.3364,-4.3364,-4.3474,-4.3189,-4.2427,-4.1774,-4.1421,0.0,-3.9909,0.0,0.0,0.0,0.0,0.0,0.0,0.0,0.0,-4.5606,-4.7356,-4.9073,-4.9766,-5.015,-5.0237,-5.0256,-5.0257,-5.0224,-4.9574,-4.9117,-4.9124,-4.9124,-4.9117,-4.9122,-4.9118,-4.9118,-4.9001,-4.8943,-4.8651,-4.793,-4.7583,-4.7404,-4.7404,-4.6722,-4.6199,-4.6199,-4.6199,-4.6213,-4.6198,-4.6206,-4.6236,-4.6275,-4.6298,-4.6298,-4.63,-4.6302,-4.6302,-4.6302,-4.6288,-4.6296,-4.6305,-4.6288,-4.6288,-4.6291,-4.6253,-4.6206,-4.6119,-4.6108,-4.6076,-6.0396,-5.9762,-5.9742,-5.9281,-5.8434,-5.7445,-5.7022,-5.7003,-5.683,-5.6389,-5.5776,-5.5846,-5.5914,-5.5977,-5.611,-5.6185,-5.6272,-5.6352,-5.6368,-5.6357,-5.5716,-5.5354,-5.5118,-5.3816,-5.3082,-5.2897,-5.2058,-5.1646,-5.1644,-5.147,-5.0512,-4.8831,-4.8794,-4.7448,-4.493,0.0,0.0,0.0,-4.4642,-4.533,-4.5454,-4.4634,-4.4188,-4.4133,-4.2513,0.0,-4.1589,-4.1587,-4.1604,-4.1618,-4.2261,0.0,0.0,0.0,0.0,0.0,0.0,0.0,0.0,0.0,0.0,0.0,-4.5952,-4.6123,-4.5791,-4.7373,-4.9113,-5.074,-5.0448,-5.0379,-5.1066,-5.1143,-5.1138,-5.1067,-5.0913,-5.0821,-5.0837,-5.0817,-5.0837,-5.0833,-5.0813,-5.0541,-4.9859,-4.9781,-4.943,-4.8573,-4.793,-4.7524,-4.7462,-4.6725,-4.6219,-4.6199,-4.6206,-4.62,-4.6206,-4.6198,-4.6211,-4.6284,-4.6288,-4.6292,-4.6298,-4.63,-4.6302,-4.6302,-4.6288,-4.6294,-4.6296,-4.6306,-4.6289,-4.6301,-4.6305,-4.6258,-4.618,-4.6138,-4.6104,-5.9915,-5.9473,-5.9069,-5.8434,0.0,-5.7195,-5.6753,-5.6368,-5.6368,-5.615,-5.5816,-5.5914,-5.5977,-5.6046,-5.6197,-5.6285,-5.635,-5.6402,-5.6184,-5.5798,-5.5393,-5.4764,-5.3933,-5.3082,-5.2483,-5.2038,-5.1629,-5.1394,-5.1394,-5.1394,-5.0731,-4.9462,-4.9421,-4.8174,-4.5714,-4.5207,-4.5012,-4.4992,-4.4992,-4.5208,-4.5565,-4.4374,-4.3711,-4.3657,-4.2018,0.0,0.0,0.0,0.0,0.0,0.0,0.0,0.0,-4.3626,0.0,-4.4852,-4.4487,-4.4829,-4.6037,-4.6193,-4.655,-4.7418,-4.8273,-4.8599,-4.8157,-4.8965,-5.0014,-5.1248,-5.0994,-5.092,-5.133,-5.1364,-5.1336,-5.13,-5.1308,-5.13,-5.13,-5.13,-5.13,-5.13,-5.13,-5.0969,-5.0112,-4.9995,-4.9469,-4.8358,-4.7797,-4.7349,-4.692,-4.6491,-4.6219,-4.6199,-4.6206,-4.6196,-4.6203,-4.6209,-4.6201,-4.6253,-4.6282,-4.6306,-4.6292,-4.6298,-4.6302,-4.6302,-4.6305,-4.6288,-4.6293,-4.6299,-4.6305,-4.6288,-4.6296,-4.6275,-4.622,-4.6183,-4.6134,-5.9415,-5.9223,-5.8415,-5.755,-5.6772,-5.6772,-5.6368,-5.5705,-5.5724,0.0,0.0,-5.595,-5.6046,-5.6137,-5.6103,-5.6119,-5.6164,-5.6039,-5.5599,-5.4986,-5.4828,-5.4035,-5.2708,-5.2522,-5.2097,-5.1414,-5.1394,-5.1394,-5.1394,-5.1394,-5.0945,-5.0182,-5.0104,-4.8972,-4.6768,-4.5324,-4.5304,-4.6612,-4.5595,-4.5343,-4.6007,-4.466,-4.3918,-4.3918,-4.2398,-4.1558,-4.1558,-4.1558,-4.1558,-4.1597,-4.3061,-4.3681,-4.3187,-4.4571,-4.5813,-4.6543,-4.5994,-4.6521,-4.8627,-4.8276,-4.8337,-4.9176,-4.993,-5.0271,-5.0124,-5.0238,-5.062,-5.1327,-5.1402,-5.1402,-5.1396,-5.1352,-5.1303,-5.1304,-5.13,-5.13,-5.13,-5.13,-5.13,-5.13,-5.13,-5.0891,-4.9898,-4.9742,-4.9157,-4.7696,-4.7212,-4.7037,-4.6391,-4.6238,-4.6199,-4.6199,-4.6199,-4.6203,-4.6216,-4.62,-4.6206,-4.6201,-4.6255,-4.6282,-4.6306,-4.6294,-4.63,-4.6302,-4.6302,-4.6303,-4.629,-4.6288,-4.6294,-4.6288,-4.6303,-4.6284,-4.6228,-4.6198,-4.6169,-5.9108,-5.8415,-5.753,-5.6665,-5.5876,-5.5895,-5.585,-5.5776,-5.5796,-5.5808,-5.5884,-5.5958,-5.6114,-5.6233,-5.55,-5.5219,-5.5251,-5.455,-5.4225,-5.4123,-5.3418,-5.2936,-5.2663,-5.1921,-5.1511,-5.1414,-5.1394,-5.1394,-5.1394,-5.1394,-5.0965,-5.0221,-5.0104,-4.954,-4.8525,-4.8213,-4.8193,-4.8388,-4.6163,-4.507,-4.5168,-4.4933,-4.4816,-4.4777,-4.384,-4.3315,-4.3334,-4.3315,-4.3333,-4.3354,-4.4289,-4.5088,-4.5732,-4.6603,-4.7533,-4.835,-4.8321,-4.8413,-4.8803,-4.9369,-5.0115,-5.0945,-5.1152,-5.0904,-5.0202,-5.0785,-5.1265,-5.1386,-5.14,-5.1398,-5.1383,-5.1343,-5.1303,-5.1304,-5.13,-5.13,-5.13,-5.13,-5.13,-5.13,-5.13,-5.0696,-4.9333,-4.9021,-4.8397,-4.6881,-4.653,-4.6355,-4.6277,-4.6199,-4.6199,-4.6199,-4.6199,-4.6199,-4.6203,-4.6203,-4.6209,-4.6206,-4.622,-4.6233,-4.6282,-4.6292,-4.63,-4.6302,-4.6302,-4.6302,-4.6303,-4.629,-4.6297,-4.6306,-4.6288,-4.6279,-4.6216,-4.6211,-4.6177,-5.8627,-5.8146,-5.6857,-5.6069,-5.5695,-5.5726,-5.5778,-5.5856,-5.5885,-5.5922,-5.5967,-5.6059,-5.6185,-5.6264,-5.5903,-5.5541,-5.5131,-5.4782,-5.4137,-5.3299,-5.2876,-5.2431,-5.198,-5.157,-5.1394,-5.1394,-5.1394,-5.1394,-5.1394,-5.1394,-5.1199,-5.0789,-5.0338,-4.9889,-4.9499,-4.9032,-4.8798,-4.8779,-4.7666,-4.6846,-4.6415,-4.5948,-4.548,-4.5012,-4.4153,-4.3705,-4.3705,-4.3705,-4.3918,-4.4387,-4.5226,-4.6105,-4.6963,-4.7758,-4.8595,-4.9434,-4.9508,-4.972,-5.0191,-5.0579,-5.0972,-5.1369,-5.1392,-5.1238,-5.0848,-5.1157,-5.1402,-5.1387,-5.1397,-5.139,-5.1397,-5.1333,-5.1312,-5.13,-5.13,-5.13,-5.13,-5.13,-5.13,-5.13,-5.13,-5.0657,-4.9001,-4.8806,-4.8144,-4.6566,-4.6199,-4.6199,-4.6199,-4.6199,-4.6199,-4.6199,-4.6199,-4.6199,-4.6199,-4.6199,-4.6199,-4.6209,-4.6206,-4.622,-4.6233,-4.6286,-4.6294,-4.63,-4.6302,-4.6302,-4.6302,-4.6305,-4.6294,-4.6304,-4.6289,-4.6281,-4.6266,-4.6192,-4.6137,-5.8195,-5.791,-5.637,-5.5735,-5.5745,-5.5797,-5.5856,-5.5931,-5.5993,-5.6026,-5.6086,-5.6178,-5.6259,-5.6297,-5.6208,-5.5794,-5.5237,-5.5009,-5.4223,-5.3093,-5.2997,-5.2624,-5.2038,-5.1999,-5.198,-5.1999,-5.198,-5.1999,-5.198,-5.1804,-5.159,-5.1355,-5.0729,-5.0397,-5.0377,-4.9735,-4.9384,-4.9384,-4.9384,-4.8915,-4.7879,-4.7042,-4.6261,-4.5595,-4.4758,-4.427,-4.4271,-4.4291,-4.4699,-4.5537,-4.6222,-4.7061,-4.8094,-4.874,-4.9481,-5.026,-5.0397,-5.067,-5.1316,-5.1394,-5.1394,-5.1394,-5.1394,-5.1394,-5.1396,-5.139,-5.1401,-5.1387,-5.1396,-5.1388,-5.1397,-5.133,-5.1304,-5.13,-5.13,-5.13,-5.13,-5.13,-5.13,-5.13,-5.13,-5.0716,-4.9469,-4.8904,-4.8086,-4.6644,-4.6199,-4.6199,-4.6199,-4.6199,-4.6199,-4.6199,-4.6199,-4.6199,-4.6199,-4.6199,-4.6199,-4.6199,-4.6213,-4.6212,-4.6226,-4.6258,-4.6288,-4.6298,-4.6302,-4.6302,-4.6302,-4.6302,-4.6288,-4.6301,-4.6289,-4.63,-4.6264,-4.6176,-4.6107,-5.7912,-5.7196,-5.6221,-5.5826,-5.5885,-5.5885,-5.594,-5.5993,-5.6075,-5.617,-5.6272,-5.6285,-5.6339,-5.6275,-5.568,-5.5326,-5.514,-5.444,-5.4038,-5.3873,-5.3873,-5.3834,-5.3678,-5.3698,-5.3737,-5.3698,-5.3659,-5.358,-5.358,-5.2917,-5.2175,-5.1492,-5.1316,-5.1277,-5.1238,-5.116,-5.1121,-5.1141,-5.116,-5.036,-4.8779,-4.79,-4.7432,-4.7352,-4.6515,-4.6066,-4.5968,-4.6046,-4.6456,-4.7274,-4.7391,-4.8191,-4.9616,-4.9948,-5.0358,-5.1199,-5.1258,-5.1336,-5.1394,-5.1394,-5.1394,-5.1394,-5.1394,-5.1394,-5.1394,-5.1385,-5.1398,-5.1387,-5.1399,-5.1398,-5.14,-5.134,-5.13,-5.13,-5.13,-5.13,-5.13,-5.13,-5.13,-5.13,-5.13,-5.093,-4.9956,-4.9216,-4.8125,-4.6589,-4.6375,-4.6293,-4.6199,-4.6199,-4.6199,-4.6199,-4.6199,-4.6199,-4.6199,-4.6199,-4.6199,-4.6199,-4.6213,-4.6209,-4.6223,-4.6255,-4.6288,-4.6294,-4.63,-4.63,-4.6302,-4.6302,-4.6306,-4.6301,-4.6289,-4.6277,-4.6223,-4.6174,-4.6127,-5.7898,-5.711,-5.6222,-5.5895,-5.5969,-5.599,-5.6083,-5.6163,-5.62,-5.629,-5.6363,-5.6363,-5.6373,-5.637,-5.6098,-5.5701,-5.5182,-5.485,-5.4428,-5.4029,-5.399,-5.399,-5.399,-5.399,-5.399,-5.399,-5.399,-5.399,-5.3932,-5.362,-5.3014,-5.2234,-5.2156,-5.1921,-5.1433,-5.1394,-5.1394,-5.1394,-5.1394,-5.1043,-5.036,-4.9519,-4.8601,-4.7684,-4.7235,-4.6807,-4.6358,-4.6302,-4.669,-4.7528,-4.7606,-4.8347,-5.0026,-5.0104,-5.0475,-5.1297,-5.1394,-5.1394,-5.1394,-5.1394,-5.1394,-5.1394,-5.1394,-5.1394,-5.1394,-5.1385,-5.1396,-5.1386,-5.1384,-5.1385,-5.1394,-5.133,-5.1303,-5.1304,-5.13,-5.13,-5.13,-5.13,-5.13,-5.13,-5.13,-5.0969,-5.0112,-4.9294,-4.8319,-4.7232,-4.6956,-4.678,-4.6332,-4.6199,-4.6199,-4.6199,-4.6199,-4.6199,-4.6199,-4.6199,-4.6199,-4.6199,-4.6203,-4.6196,-4.6212,-4.6226,-4.6258,-4.629,-4.6296,-4.63,-4.6302,-4.6302,-4.6306,-4.6302,-4.6289,-4.6276,-4.6219,-4.6177,-4.6162,-5.7854,-5.6907,-5.6231,-5.6014,-5.607,-5.6121,-5.6213,-5.6291,-5.6319,-5.6359,-5.6386,-5.6406,-5.6414,-5.6437,-5.6482,-5.6149,-5.5636,-5.5577,-5.5289,-5.4752,-5.4713,-5.4713,-5.4732,-5.4713,-5.4713,-5.4713,-5.4732,-5.4615,-5.4381,-5.4361,-5.3912,-5.3151,-5.2821,-5.237,-5.1804,-5.157,-5.1394,-5.1394,-5.1394,-5.1394,-5.1297,-5.0789,-4.9655,-4.8094,-4.7723,-4.7198,-4.6341,-4.6302,-4.671,-4.7547,-4.7606,-4.8367,-4.9967,-5.0104,-5.0494,-5.1277,-5.1394,-5.1394,-5.1394,-5.1394,-5.1394,-5.1394,-5.1394,-5.1394,-5.1396,-5.1402,-5.1391,-5.1402,-5.1387,-5.1397,-5.1388,-5.1364,-5.1317,-5.1292,-5.1304,-5.13,-5.13,-5.13,-5.13,-5.13,-5.13,-5.0969,-5.0151,-4.9469,-4.8768,-4.7715,-4.7443,-4.717,-4.6429,-4.6199,-4.6199,-4.6199,-4.6199,-4.6199,-4.6199,-4.6199,-4.6199,-4.6199,-4.6199,-4.6206,-4.62,-4.6215,-4.6228,-4.6284,-4.6292,-4.6298,-4.63,-4.6302,-4.629,-4.6304,-4.6289,-4.6276,-4.6204,-4.6209,-4.6169,-5.7661,-5.6331,-5.6222,-5.6187,-5.6192,-5.6259,-5.6291,-5.6314,-5.6373,-5.6386,-5.6422,-5.6465,-5.6484,-5.6503,-5.6506,-5.6514,-5.6506,-5.6467,-5.6428,-5.6331,-5.637,-5.645,-5.6487,-5.6487,-5.6428,-5.6272,-5.6233,-5.5923,-5.5259,-5.5242,-5.4791,-5.3951,-5.3229,-5.2743,-5.2489,-5.1843,-5.1414,-5.1414,-5.1394,-5.1394,-5.1394,-5.1355,-5.0477,-4.8876,-4.8035,-4.7334,-4.6515,-4.6341,-4.6729,-4.7606,-4.7664,-4.8386,-4.9889,-5.0143,-5.0553,-5.1277,-5.1394,-5.1394,-5.1394,-5.1394,-5.1394,-5.1394,-5.1394,-5.1394,-5.1394,-5.1396,-5.1402,-5.139,-5.1402,-5.1386,-5.1385,-5.1386,-5.1364,-5.1297,-5.1296,-5.1304,-5.13,-5.13,-5.13,-5.13,-5.13,-5.0989,-5.017,-4.9995,-4.9196,-4.8086,-4.7544,-4.7212,-4.6452,-4.6199,-4.6199,-4.6199,-4.6199,-4.6199,-4.6199,-4.6199,-4.6199,-4.6199,-4.6199,-4.6203,-4.6196,-4.6209,-4.6242,-4.6275,-4.6284,-4.629,-4.6298,-4.6288,-4.6297,-4.6306,-4.6288,-4.6276,-4.6208,-4.6212,-4.6169,-5.7703,-5.6216,-5.6245,-5.6252,-5.6278,-5.6328,-5.6359,-5.6373,-5.6426,-5.6471,-5.6465,-5.6481,-5.6531,-5.6541,-5.656,-5.6582,-5.6604,-5.6604,-5.6604,-5.6604,-5.6604,-5.6604,-5.6604,-5.6604,-5.6604,-5.6604,-5.6604,-5.645,-5.6177,-5.6138,-5.5689,-5.4947,-5.4519,-5.3856,-5.2841,-5.2392,-5.198,-5.1453,-5.1394,-5.1394,-5.1394,-5.1394,-5.0828,-4.9733,-4.9362,-4.8798,-4.7939,-4.79,-4.8057,-4.8349,-4.8369,-4.8896,-4.9987,-5.0631,-5.1063,-5.1355,-5.1394,-5.1394,-5.1394,-5.1394,-5.1394,-5.1394,-5.1394,-5.1394,-5.1394,-5.1394,-5.1398,-5.1389,-5.1394,-5.1384,-5.1386,-5.139,-5.1384,-5.1364,-5.132,-5.1303,-5.13,-5.1308,-5.13,-5.13,-5.13,-5.1145,-5.0911,-5.0833,-5.017,-4.8709,-4.8319,-4.7657,-4.6589,-4.6199,-4.6199,-4.6199,-4.6199,-4.6199,-4.6199,-4.6199,-4.6199,-4.6199,-4.6199,-4.6199,-4.6206,-4.62,-4.6234,-4.6231,-4.6258,-4.6288,-4.6296,-4.6291,-4.6301,-4.6306,-4.6288,-4.6277,-4.6212,-4.6198,-4.6173,-5.7534,-5.6369,-5.6317,-5.6353,-5.6333,-5.6368,-5.6418,-5.6449,-5.6478,-5.6497,-5.6506,-5.6511,-5.6558,-5.6584,-5.6604,-5.6604,-5.6604,-5.6604,-5.6604,-5.6604,-5.6604,-5.6604,-5.6604,-5.6604,-5.6604,-5.6604,-5.6604,-5.6604,-5.6604,-5.6604,-5.6294,-5.5728,-5.5456,-5.4732,-5.368,-5.3268,-5.2683,-5.198,-5.1824,-5.1707,-5.1453,-5.1394,-5.1121,-5.0612,-5.0534,-4.995,-4.8876,-4.8798,-4.8798,-4.8798,-4.8798,-4.9189,-5.0065,-5.0926,-5.1394,-5.1394,-5.1394,-5.1394,-5.1394,-5.1394,-5.1394,-5.1394,-5.1394,-5.1394,-5.1394,-5.1394,-5.1398,-5.1384,-5.1389,-5.1394,-5.1383,-5.1385,-5.139,-5.1392,-5.1347,-5.1327,-5.134,-5.1303,-5.1308,-5.13,-5.13,-5.13,-5.13,-5.1281,-5.0482,-4.9021,-4.8787,-4.8086,-4.6644,-4.6199,-4.6199,-4.6199,-4.6199,-4.6199,-4.6199,-4.6199,-4.6199,-4.6199,-4.6199,-4.6199,-4.6199,-4.6209,-4.6206,-4.6203,-4.6236,-4.6267,-4.63,-4.6294,-4.6302,-4.6307,-4.6288,-4.6277,-4.6234,-4.6201,-4.618,-5.7203,-5.6503,-5.643,-5.6456,-5.6401,-5.6409,-5.6453,-5.6482,-5.652,-5.6509,-5.6511,-5.656,-5.6604,-5.6604,-5.6604,-5.6604,-5.6604,-5.6604,-5.6604,-5.6604,-5.6604,-5.6604,-5.6604,-5.6604,-5.6604,-5.6604,-5.6604,-5.6604,-5.6604,-5.6604,-5.6547,-5.6411,-5.5747,-5.5318,-5.5222,-5.4342,-5.358,-5.2878,-5.2646,-5.2253,-5.1531,-5.1433,-5.1355,-5.1316,-5.1297,-5.0575,-4.9013,-4.8954,-4.9052,-4.8993,-4.8974,-4.9267,-5.0182,-5.0965,-5.1394,-5.1394,-5.1394,-5.1394,-5.1394,-5.1394,-5.1394,-5.1394,-5.1394,-5.1394,-5.1394,-5.1394,-5.1394,-5.1396,-5.1402,-5.1389,-5.139,-5.1401,-5.1386,-5.1394,-5.1375,-5.1394,-5.1378,-5.1343,-5.1303,-5.1304,-5.13,-5.13,-5.13,-5.1164,-5.0463,-4.9255,-4.8651,-4.8066,-4.6566,-4.6199,-4.6199,-4.6199,-4.6199,-4.6199,-4.6199,-4.6199,-4.6199,-4.6199,-4.6199,-4.6199,-4.6199,-4.6206,-4.6203,-4.6201,-4.6219,-4.6269,-4.6298,-4.6293,-4.6302,-4.6288,-4.6288,-4.6277,-4.6236,-4.6203,-4.6213,-5.8037,-5.7332,-5.7293,-5.6972,-5.6504,-5.6461,-5.6482,-5.65,-5.6555,-5.658,-5.6563,-5.6584,-5.6604,-5.6604,-5.6604,-5.6604,-5.6604,-5.6604,-5.6604,-5.6604,-5.6604,-5.6604,-5.6604,-5.6604,-5.6604,-5.6604,-5.6604,-5.6604,-5.6604,-5.6604,-5.6604,-5.6528,-5.6333,-5.5864,-5.5339,-5.5005,-5.4459,-5.362,-5.2995,-5.2548,-5.2234,-5.1707,-5.1394,-5.1394,-5.1394,-5.1082,-5.0633,-5.0594,-5.0575,-5.0535,-5.0594,-5.0731,-5.1004,-5.1258,-5.1394,-5.1394,-5.1394,-5.1394,-5.1394,-5.1394,-5.1394,-5.1394,-5.1394,-5.1394,-5.1394,-5.1394,-5.139,-5.1386,-5.1388,-5.1386,-5.1403,-5.1396,-5.1399,-5.1386,-5.1394,-5.1396,-5.1381,-5.1336,-5.1307,-5.1304,-5.13,-5.13,-5.1183,-5.0911,-5.0034,-4.9021,-4.8339,-4.7462,-4.655,-4.6199,-4.6199,-4.6199,-4.6199,-4.6199,-4.6199,-4.6199,-4.6199,-4.6199,-4.6199,-4.6199,-4.6199,-4.6199,-4.62,-4.622,-4.6238,-4.6251,-4.6282,-4.6294,-4.6303,-4.6288,-4.6288,-4.6256,-4.6214,-4.6206,-4.6213,-5.8924,-5.8218,-5.8199,-5.7734,-5.701,-5.6985,-5.6809,-5.6572,-5.6602,-5.6604,-5.6604,-5.6604,-5.6604,-5.6604,-5.6604,-5.6604,-5.6604,-5.6604,-5.6604,-5.6604,-5.6604,-5.6604,-5.6604,-5.6604,-5.6604,-5.6604,-5.6604,-5.6604,-5.6604,-5.6604,-5.6604,-5.6604,-5.6604,-5.6352,-5.5825,-5.5747,-5.5357,-5.4537,-5.3951,-5.3368,-5.2743,-5.2175,-5.1707,-5.1472,-5.1394,-5.1394,-5.1394,-5.1394,-5.1394,-5.1394,-5.1394,-5.1394,-5.1394,-5.1394,-5.1394,-5.1394,-5.1394,-5.1394,-5.1394,-5.1394,-5.1394,-5.1394,-5.1394,-5.1394,-5.1394,-5.1392,-5.1386,-5.1399,-5.1394,-5.1389,-5.1389,-5.1399,-5.1384,-5.1383,-5.1386,-5.1395,-5.1398,-5.1366,-5.1336,-5.1319,-5.1304,-5.13,-5.1125,-5.0541,-4.9703,-4.8904,-4.8047,-4.7193,-4.6491,-4.6219,-4.6199,-4.6199,-4.6199,-4.6199,-4.6199,-4.6199,-4.6199,-4.6199,-4.6199,-4.6199,-4.6199,-4.6199,-4.6209,-4.6223,-4.6243,-4.6257,-4.6287,-4.6299,-4.6306,-4.6289,-4.6286,-4.627,-4.6243,-4.6203,-4.6196,-5.9854,-5.9098,-5.9074,-5.8613,-5.7882,-5.7769,-5.7339,-5.6758,-5.6604,-5.6604,-5.6604,-5.6604,-5.6604,-5.6604,-5.6604,-5.6604,-5.6604,-5.6604,-5.6604,-5.6604,-5.6604,-5.6604,-5.6604,-5.6604,-5.6604,-5.6604,-5.6604,-5.6604,-5.6604,-5.6604,-5.6604,-5.6604,-5.6604,-5.6584,-5.6489,-5.6567,-5.6138,-5.5454,-5.524,-5.4361,-5.3055,-5.2685,-5.2331,-5.157,-5.1453,-5.1394,-5.1394,-5.1394,-5.1394,-5.1394,-5.1394,-5.1394,-5.1394,-5.1394,-5.1394,-5.1394,-5.1394,-5.1394,-5.1394,-5.1394,-5.1394,-5.1394,-5.1394,-5.1394,-5.1394,-5.1388,-5.1401,-5.1399,-5.1389,-5.1383,-5.1394,-5.1399,-5.1392,-5.139,-5.1386,-5.1402,-5.14,-5.1394,-5.1372,-5.1314,-5.1296,-5.1242,-5.1125,-5.0346,-4.9527,-4.8709,-4.7855,-4.6979,-4.6491,-4.6199,-4.6199,-4.6199,-4.6199,-4.6199,-4.6199,-4.6199,-4.6199,-4.6199,-4.6203,-4.6206,-4.6209,-4.6213,-4.6222,-4.6231,-4.6251,-4.6284,-4.6295,-4.6304,-4.6289,-4.6287,-4.6297,-4.6277,-4.6255,-4.6215,-4.62,-6.075,-5.9971,-5.9971,-5.9509,-5.8705,-5.81,-5.771,-5.7404,-5.684,-5.6662,-5.6623,-5.6604,-5.6623,-5.6623,-5.6643,-5.6604,-5.6721,-5.6682,-5.6604,-5.6604,-5.6604,-5.6604,-5.6604,-5.6604,-5.6604,-5.6604,-5.6604,-5.6604,-5.6604,-5.6604,-5.6604,-5.6604,-5.6604,-5.6604,-5.6604,-5.6604,-5.6508,-5.6177,-5.5591,-5.5144,-5.45,-5.3309,-5.2626,-5.2351,-5.1765,-5.1433,-5.1394,-5.1394,-5.1394,-5.1394,-5.1394,-5.1394,-5.1394,-5.1394,-5.1394,-5.1394,-5.1394,-5.1394,-5.1394,-5.1394,-5.1394,-5.1394,-5.1394,-5.1394,-5.1394,-5.1392,-5.1386,-5.1401,-5.1394,-5.1389,-5.1386,-5.1394,-5.1394,-5.1395,-5.1386,-5.1402,-5.1403,-5.1381,-5.1364,-5.1317,-5.131,-5.1046,-5.0447,-4.9703,-4.8884,-4.8027,-4.7228,-4.6569,-4.6297,-4.6199,-4.6199,-4.6199,-4.6199,-4.6199,-4.6199,-4.6199,-4.6199,-4.6199,-4.6209,-4.6203,-4.6231,-4.624,-4.6275,-4.6292,-4.6266,-4.6294,-4.6303,-4.6288,-4.6288,-4.6301,-4.6288,-4.6267,-4.6226,-4.6203,-4.6196,-6.1291,-6.0794,-6.0823,-6.0387,-5.9622,-5.9115,-5.8688,-5.8222,-5.7484,-5.7113,-5.7035,-5.6721,-5.6801,-5.7074,-5.7113,-5.7328,-5.7621,-5.7641,-5.768,-5.768,-5.7719,-5.7309,-5.6821,-5.6604,-5.6604,-5.6604,-5.6623,-5.6604,-5.6604,-5.6604,-5.6604,-5.6604,-5.6604,-5.6604,-5.6604,-5.6604,-5.6604,-5.6508,-5.6059,-5.5708,-5.5203,-5.4342,-5.3387,-5.286,-5.2156,-5.1824,-5.1472,-5.1394,-5.1394,-5.1394,-5.1394,-5.1394,-5.1394,-5.1394,-5.1394,-5.1394,-5.1394,-5.1394,-5.1394,-5.1394,-5.1394,-5.1394,-5.1394,-5.1394,-5.1392,-5.139,-5.1384,-5.1399,-5.1394,-5.1391,-5.1399,-5.1394,-5.1393,-5.1384,-5.1386,-5.1399,-5.1387,-5.1392,-5.1374,-5.1339,-5.1288,-5.1025,-5.0146,-4.9324,-4.8463,-4.7641,-4.6839,-4.6452,-4.6199,-4.6199,-4.6199,-4.6199,-4.6199,-4.6199,-4.6199,-4.6199,-4.6209,-4.6213,-4.6237,-4.6226,-4.6236,-4.6267,-4.6277,-4.6288,-4.6296,-4.6303,-4.6289,-4.6288,-4.6302,-4.6291,-4.6277,-4.6258,-4.6215,-4.6213,-4.6206,-6.1554,-6.1495,-6.1559,-6.1186,-6.0558,-6.0425,-5.9839,-5.9158,-5.8304,-5.7953,-5.7816,-5.7192,-5.7426,-5.7933,-5.7953,-5.8324,-5.8985,-5.8829,-5.8946,-5.8887,-5.879,-5.8265,-5.7248,-5.7189,-5.7035,-5.6899,-5.674,-5.6682,-5.6643,-5.6604,-5.6604,-5.6604,-5.6604,-5.6604,-5.6604,-5.6604,-5.6604,-5.6604,-5.6526,-5.6157,-5.563,-5.5162,-5.442,-5.3426,-5.2724,-5.2156,-5.1609,-5.1394,-5.1394,-5.1394,-5.1394,-5.1394,-5.1394,-5.1394,-5.1394,-5.1394,-5.1394,-5.1394,-5.1394,-5.1394,-5.1394,-5.1394,-5.1394,-5.1396,-5.1396,-5.1392,-5.1388,-5.139,-5.1394,-5.1384,-5.14,-5.1399,-5.1385,-5.1387,-5.1384,-5.1398,-5.1395,-5.1398,-5.1399,-5.1399,-5.1386,-5.0962,-5.0108,-4.9283,-4.8441,-4.7184,-4.6537,-4.6339,-4.6199,-4.6199,-4.6199,-4.6199,-4.6199,-4.6199,-4.6199,-4.6199,-4.6216,-4.6228,-4.6262,-4.6277,-4.6245,-4.627,-4.6294,-4.6301,-4.6306,-4.6289,-4.6306,-4.63,-4.6288,-4.6273,-4.6228,-4.6212,-4.6196,-4.6199,-4.6208,-6.1554,-6.1495,-6.1578,-6.1498,-6.126,-6.0659,-6.0308,-6.0061,-5.9202,-5.8831,-5.8753,-5.8614,-5.8634,-5.8831,-5.8831,-5.8948,-5.9239,-5.9258,-5.9122,-5.9122,-5.9122,-5.8985,-5.8575,-5.8556,-5.8168,-5.7738,-5.7543,-5.7211,-5.6821,-5.6701,-5.6604,-5.6604,-5.6604,-5.6604,-5.6604,-5.6604,-5.6604,-5.6604,-5.6604,-5.6528,-5.6196,-5.565,-5.5142,-5.45,-5.3368,-5.2273,-5.159,-5.1394,-5.1394,-5.1394,-5.1394,-5.1394,-5.1394,-5.1394,-5.1394,-5.1394,-5.1394,-5.1394,-5.1394,-5.1394,-5.1394,-5.1396,-5.1396,-5.1398,-5.1387,-5.1385,-5.1387,-5.1391,-5.1391,-5.1394,-5.14,-5.1386,-5.1386,-5.1385,-5.1399,-5.1391,-5.139,-5.14,-5.1388,-5.1401,-5.1357,-5.0823,-4.9382,-4.9087,-4.8145,-4.6865,-4.6391,-4.6232,-4.6206,-4.6199,-4.6199,-4.6199,-4.6199,-4.6199,-4.6203,-4.6209,-4.6217,-4.6238,-4.6284,-4.6299,-4.6283,-4.6267,-4.6289,-4.6289,-4.6288,-4.6284,-4.6273,-4.6261,-4.6245,-4.622,-4.6196,-4.6203,-4.6192,-4.6201,-4.6204,-6.1554,-6.1495,-6.1578,-6.1576,-6.1513,-6.1146,-6.0971,-6.0837,-6.01,-5.971,-5.9612,-5.9336,-5.9336,-5.971,-5.9749,-5.9885,-6.0254,-6.0312,-6.0332,-6.0371,-6.0351,-6.0332,-6.0312,-6.0176,-5.9727,-5.8636,-5.8421,-5.7953,-5.7367,-5.7113,-5.7016,-5.6623,-5.6604,-5.6604,-5.6604,-5.6604,-5.6604,-5.6604,-5.6604,-5.6604,-5.6489,-5.6196,-5.5611,-5.5066,-5.368,-5.2411,-5.2078,-5.157,-5.1433,-5.1394,-5.1394,-5.1394,-5.1394,-5.1394,-5.1394,-5.1394,-5.1394,-5.1394,-5.1394,-5.1398,-5.1402,-5.1402,-5.1385,-5.1393,-5.1396,-5.1398,-5.1401,-5.1384,-5.1385,-5.1385,-5.1387,-5.1384,-5.14,-5.1398,-5.1391,-5.1384,-5.1402,-5.1398,-5.1392,-5.1388,-5.1386,-5.0442,-4.9538,-4.8928,-4.7945,-4.6705,-4.6351,-4.6212,-4.62,-4.6213,-4.6206,-4.6203,-4.6199,-4.6199,-4.6206,-4.6206,-4.6236,-4.6262,-4.6282,-4.6288,-4.6289,-4.6267,-4.6262,-4.6279,-4.6277,-4.6248,-4.6232,-4.6214,-4.6195,-4.6196,-4.6176,-4.6177,-4.617,-4.6189,-4.6201,-6.1554,-6.1495,-6.1578,-6.1576,-6.1591,-6.1576,-6.1576,-6.1542,-6.0939,-6.0607,-6.049,-5.9788,-6.01,-6.0471,-6.0607,-6.1056,-6.1444,-6.1562,-6.1347,-6.1074,-6.1327,-6.121,-6.1213,-6.1154,-6.0859,-5.9571,-5.9358,-5.8831,-5.8187,-5.7816,-5.7406,-5.6899,-5.6604,-5.6604,-5.6604,-5.6604,-5.6604,-5.6604,-5.6604,-5.6604,-5.6604,-5.6508,-5.6098,-5.5142,-5.4188,-5.3192,-5.28,-5.2195,-5.1668,-5.159,-5.1472,-5.1394,-5.1394,-5.1394,-5.1394,-5.1394,-5.1394,-5.1396,-5.14,-5.1385,-5.139,-5.1393,-5.1397,-5.1402,-5.1385,-5.1386,-5.1386,-5.1387,-5.1386,-5.1386,-5.1384,-5.1396,-5.139,-5.1387,-5.14,-5.1394,-5.1394,-5.1394,-5.1394,-5.1394,-5.1314,-5.0605,-4.9569,-4.8745,-4.7645,-4.6721,-4.6406,-4.6206,-4.6212,-4.6203,-4.6213,-4.6203,-4.6199,-4.6213,-4.62,-4.6233,-4.6257,-4.6258,-4.6289,-4.6287,-4.6279,-4.6266,-4.6236,-4.6236,-4.623,-4.6216,-4.6178,-4.6174,-4.6176,-4.6165,-4.617,-4.6149,-4.6149,-4.6162,-4.6177,-6.1554,-6.1514,-6.1578,-6.1576,-6.1591,-6.1595,-6.1634,-6.1676,-6.1505,-6.1486,-6.1425,-6.1308,-6.121,-6.1425,-6.1464,-6.1601,-6.1601,-6.1444,-6.1154,-6.0842,-6.1132,-6.1232,-6.092,-6.1291,-6.1366,-6.1171,-6.0568,-5.9729,-5.889,-5.8187,-5.7894,-5.7523,-5.6977,-5.6701,-5.6623,-5.6604,-5.6604,-5.6604,-5.6604,-5.6604,-5.6604,-5.6565,-5.6274,-5.5474,-5.483,-5.4363,-5.3698,-5.2995,-5.2489,-5.2431,-5.1765,-5.1492,-5.1453,-5.1453,-5.1394,-5.1394,-5.1396,-5.14,-5.1385,-5.139,-5.1396,-5.1402,-5.1385,-5.1386,-5.1386,-5.1386,-5.1384,-5.1401,-5.1397,-5.1395,-5.1393,-5.1385,-5.14,-5.1396,-5.1396,-5.1394,-5.1394,-5.1394,-5.1394,-5.1394,-5.1238,-5.0809,-4.9614,-4.8597,-4.7754,-4.6908,-4.6379,-4.6233,-4.6217,-4.6209,-4.62,-4.6209,-4.6199,-4.62,-4.6198,-4.6253,-4.6274,-4.6287,-4.6288,-4.6278,-4.6259,-4.6226,-4.6206,-4.6195,-4.6189,-4.6174,-4.615,-4.6146,-4.6134,-4.6145,-4.6128,-4.6114,-4.6132,-4.6154,-4.617,-6.1583,-6.1554,-6.1578,-6.1588,-6.1595,-6.1625,-6.166,-6.1698,-6.1698,-6.1698,-6.1698,-6.1698,-6.1698,-6.1698,-6.1698,-6.1503,-6.1037,-6.049,-6.0119,-5.9885,-6.0139,-6.049,-6.0334,-6.0881,-6.131,-6.1447,-6.1193,-6.0607,-5.9827,-5.9397,-5.8656,-5.7836,-5.7367,-5.7035,-5.6682,-5.6604,-5.6604,-5.6604,-5.6604,-5.6604,-5.6604,-5.6604,-5.6313,-5.604,-5.5532,-5.5083,-5.4654,-5.3834,-5.3405,-5.321,-5.2546,-5.2175,-5.1941,-5.1668,-5.1414,-5.1396,-5.14,-5.1385,-5.1393,-5.1397,-5.1385,-5.1386,-5.1386,-5.1402,-5.1396,-5.139,-5.1389,-5.1384,-5.1385,-5.1402,-5.1402,-5.1398,-5.1394,-5.1394,-5.1394,-5.1394,-5.1394,-5.1394,-5.1394,-5.1394,-5.1316,-5.0672,-4.9306,-4.8445,-4.782,-4.7155,-4.645,-4.6282,-4.6245,-4.624,-4.6212,-4.6212,-4.6206,-4.6228,-4.6228,-4.6273,-4.6306,-4.6289,-4.6281,-4.6262,-4.6238,-4.62,-4.6173,-4.6146,-4.6135,-4.6123,-4.6115,-4.6102,-4.6099,-4.61,-4.6076,-4.6076,-4.6104,-4.6126,-4.6142,-6.1597,-6.1578,-6.158,-6.1623,-6.1641,-6.1693,-6.1707,-6.1718,-6.1698,-6.1698,-6.1698,-6.1698,-6.1601,-6.1405,-6.1132,-6.0722,-6.0061,-5.9417,-5.9124,-5.8929,-5.9183,-5.9553,-5.9963,-6.0432,-6.0881,-6.162,-6.162,-6.133,-6.0744,-6.0295,-5.9514,-5.8695,-5.8168,-5.7523,-5.7016,-5.674,-5.6682,-5.6604,-5.6604,-5.6604,-5.6604,-5.6604,-5.6604,-5.6584,-5.5923,-5.5591,-5.5474,-5.4713,-5.4322,-5.4029,-5.3483,-5.286,-5.2608,-5.2042,-5.1615,-5.1442,-5.1389,-5.1391,-5.1399,-5.1385,-5.1386,-5.1384,-5.1395,-5.1402,-5.139,-5.1384,-5.1399,-5.1399,-5.1386,-5.1394,-5.1396,-5.1394,-5.1394,-5.1394,-5.1394,-5.1394,-5.1394,-5.1394,-5.1394,-5.1394,-5.1394,-5.0731,-4.956,-4.8681,-4.8133,-4.7332,-4.6628,-4.6312,-4.6279,-4.6253,-4.625,-4.6214,-4.6219,-4.6253,-4.6272,-4.6286,-4.6289,-4.6301,-4.6266,-4.6238,-4.6209,-4.6176,-4.6135,-4.6115,-4.6069,-4.606,-4.6075,-4.6075,-4.6076,-4.6061,-4.6032,-4.6037,-4.609,-4.6113,-4.6134,-6.158,-6.158,-6.1584,-6.1621,-6.1676,-6.1699,-6.1707,-6.1698,-6.1698,-6.1698,-6.1581,-6.162,-6.1213,-6.0549,-5.9746,-5.9395,-5.92,-5.8948,-5.8499,-5.8109,-5.8538,-5.8985,-5.9417,-6.01,-6.0822,-6.1542,-6.1698,-6.1659,-6.131,-6.0764,-6.0354,-5.9729,-5.8616,-5.7699,-5.7484,-5.7035,-5.6623,-5.6623,-5.6604,-5.6604,-5.6604,-5.6604,-5.6604,-5.6567,-5.645,-5.6333,-5.6196,-5.5552,-5.5181,-5.5047,-5.4322,-5.3506,-5.2869,-5.2656,-5.2098,-5.1652,-5.1398,-5.1397,-5.1386,-5.1386,-5.14,-5.139,-5.139,-5.1396,-5.1383,-5.14,-5.1403,-5.1399,-5.1401,-5.1386,-5.1392,-5.1394,-5.1394,-5.1394,-5.1394,-5.1394,-5.1394,-5.1394,-5.1394,-5.1394,-5.1394,-5.0945,-5.0124,-4.9286,-4.8466,-4.7608,-4.6884,-4.6528,-4.6292,-4.6288,-4.6264,-4.6247,-4.6245,-4.6276,-4.6284,-4.6289,-4.6282,-4.6285,-4.6243,-4.6209,-4.616,-4.615,-4.6134,-4.6108,-4.6061,-4.6022,-4.6027,-4.6022,-4.6032,-4.6026,-4.6002,-4.6037,-4.6076,-4.6099,-4.6106,-6.163,-6.1623,-6.1641,-6.1654,-6.1699,-6.1707,-6.1713,-6.1698,-6.1698,-6.1427,-6.1017,-6.0959,-6.049,-5.9612,-5.8753,-5.8382,-5.8265,-5.7972,-5.7543,-5.725,-5.7621,-5.8243,-5.9024,-5.9573,-6.0295,-6.1464,-6.1698,-6.1698,-6.1525,-6.133,-6.0959,-6.0334,-5.9612,-5.8714,-5.805,-5.7504,-5.7035,-5.676,-5.6604,-5.6604,-5.6604,-5.6604,-5.6604,-5.6604,-5.6604,-5.6604,-5.6508,-5.6313,-5.602,-5.5866,-5.5207,-5.4333,-5.3518,-5.2958,-5.2301,-5.1503,-5.1387,-5.1386,-5.1384,-5.1397,-5.1385,-5.1388,-5.1366,-5.1346,-5.1353,-5.1356,-5.1346,-5.1333,-5.1369,-5.1399,-5.1386,-5.139,-5.1394,-5.1394,-5.1394,-5.1394,-5.1394,-5.1394,-5.1394,-5.1394,-5.1355,-5.1004,-5.0477,-4.9462,-4.8603,-4.7803,-4.7002,-4.6454,-4.63,-4.6282,-4.6278,-4.6255,-4.6276,-4.6287,-4.6289,-4.6304,-4.6266,-4.626,-4.624,-4.6183,-4.6135,-4.6126,-4.6108,-4.609,-4.6047,-4.6012,-4.6002,-4.6002,-4.6002,-4.6002,-4.6002,-4.6037,-4.6071,-4.6099,-4.6126,-6.1231,-6.1026,-6.1504,-6.1588,-6.1373,-6.1364,-6.121,-6.1035,-6.0976,-6.0646,-6.0159,-5.9827,-5.9339,-5.8714,-5.7933,-5.7504,-5.7465,-5.6879,-5.6662,-5.6604,-5.6818,-5.766,-5.8673,-5.9297,-6.0059,-6.1679,-6.1698,-6.1698,-6.1698,-6.1601,-6.1288,-6.0725,-6.0354,-5.971,-5.8714,-5.7933,-5.7367,-5.6662,-5.6604,-5.6604,-5.6604,-5.6604,-5.6604,-5.6604,-5.6604,-5.6604,-5.6606,-5.6571,-5.6552,-5.6397,-5.5999,-5.5126,-5.4055,-5.3397,-5.2539,-5.1755,-5.1398,-5.139,-5.1384,-5.1373,-5.1381,-5.1366,-5.1346,-5.1323,-5.1308,-5.1296,-5.131,-5.1297,-5.1378,-5.1391,-5.1399,-5.1388,-5.1392,-5.1394,-5.1394,-5.1394,-5.1394,-5.1394,-5.1394,-5.1394,-5.1394,-5.1394,-5.0711,-4.9599,-4.8701,-4.7959,-4.7217,-4.6458,-4.6305,-4.629,-4.6293,-4.6272,-4.6285,-4.6289,-4.6302,-4.6288,-4.626,-4.6212,-4.6203,-4.6181,-4.6111,-4.6108,-4.611,-4.6071,-4.6037,-4.6007,-4.6002,-4.5982,-4.5982,-4.5982,-4.6002,-4.6007,-4.6047,-4.6075,-4.6145,-6.0,-5.9393,-6.0995,-6.1171,-6.0468,-6.049,-6.0041,-5.9532,-5.9414,-5.9356,-5.9104,-5.8421,-5.805,-5.7719,-5.7231,-5.6821,-5.674,-5.6623,-5.6604,-5.6604,-5.676,-5.7621,-5.8595,-5.9336,-5.9961,-6.1444,-6.1698,-6.1698,-6.1698,-6.1698,-6.164,-6.1522,-6.09,-6.0471,-5.9651,-5.8597,-5.7621,-5.6957,-5.6779,-5.6682,-5.6643,-5.6604,-5.6604,-5.6604,-5.6604,-5.6604,-5.6606,-5.6616,-5.6602,-5.6582,-5.6419,-5.5682,-5.4472,-5.3905,-5.3,-5.1992,-5.1433,-5.1399,-5.1344,-5.1344,-5.1372,-5.1336,-5.13,-5.1304,-5.13,-5.13,-5.1312,-5.1307,-5.1366,-5.1403,-5.1394,-5.1388,-5.139,-5.1394,-5.1394,-5.1394,-5.1394,-5.1394,-5.1394,-5.1394,-5.1394,-5.1392,-5.1039,-4.9965,-4.9111,-4.8388,-4.7081,-4.6302,-4.6287,-4.6293,-4.6301,-4.6285,-4.6289,-4.6304,-4.6287,-4.6262,-4.6212,-4.6183,-4.615,-4.6134,-4.6093,-4.6095,-4.609,-4.6066,-4.6012,-4.6007,-4.5982,-4.5982,-4.5982,-4.5982,-4.6002,-4.6012,-4.6047,-4.6075,-4.6141,-5.9417,-5.918,-5.9846,-5.9905,-5.9592,-5.9612,-5.9417,-5.9141,-5.9102,-5.877,-5.8265,-5.7465,-5.7074,-5.6957,-5.684,-5.6604,-5.6604,-5.6604,-5.6604,-5.6604,-5.6799,-5.7621,-5.8575,-5.9356,-5.9981,-6.1366,-6.1698,-6.1698,-6.1698,-6.1698,-6.1698,-6.1542,-6.1269,-6.0842,-6.0119,-5.9261,-5.8246,-5.7543,-5.727,-5.7153,-5.6643,-5.6604,-5.6604,-5.6604,-5.6604,-5.661,-5.6616,-5.6605,-5.661,-5.6616,-5.6601,-5.582,-5.484,-5.4323,-5.3372,-5.2203,-5.1698,-5.1366,-5.1317,-5.1317,-5.1333,-5.1316,-5.1304,-5.13,-5.13,-5.13,-5.13,-5.1316,-5.133,-5.1349,-5.1403,-5.1396,-5.1386,-5.1392,-5.1394,-5.1394,-5.1394,-5.1394,-5.1392,-5.1392,-5.1392,-5.1392,-5.0939,-5.0349,-4.9573,-4.8779,-4.7393,-4.6302,-4.629,-4.6297,-4.6305,-4.6289,-4.6286,-4.6255,-4.6251,-4.622,-4.618,-4.615,-4.6117,-4.608,-4.6066,-4.6032,-4.6032,-4.6012,-4.6012,-4.6007,-4.5982,-4.5982,-4.5982,-4.5982,-4.6007,-4.6012,-4.6052,-4.6071,-4.6113,-5.8573,-5.84,-5.8636,-5.8714,-5.8714,-5.8714,-5.8558,-5.8363,-5.8304,-5.805,-5.7406,-5.6821,-5.6604,-5.6604,-5.6604,-5.6604,-5.6604,-5.6604,-5.6604,-5.6604,-5.6779,-5.7641,-5.8575,-5.9356,-5.9981,-6.1327,-6.1698,-6.1698,-6.1698,-6.1698,-6.1698,-6.1698,-6.1679,-6.1252,-6.0822,-5.9924,-5.9046,-5.8363,-5.7836,-5.7621,-5.7016,-5.6721,-5.6608,-5.661,-5.661,-5.6619,-5.6607,-5.6615,-5.658,-5.6562,-5.6462,-5.6083,-5.5292,-5.4459,-5.3584,-5.2707,-5.1908,-5.1342,-5.1303,-5.1303,-5.1296,-5.1304,-5.13,-5.13,-5.13,-5.13,-5.13,-5.1304,-5.13,-5.132,-5.1372,-5.1391,-5.1384,-5.1392,-5.1394,-5.1394,-5.1394,-5.1394,-5.139,-5.1388,-5.1388,-5.1364,-5.085,-5.026,-4.9211,-4.84,-4.7235,-4.6362,-4.6293,-4.6301,-4.6288,-4.6288,-4.6277,-4.6239,-4.6211,-4.617,-4.6146,-4.6122,-4.609,-4.6052,-4.6037,-4.6002,-4.5982,-4.6002,-4.6007,-4.6002,-4.5982,-4.5982,-4.5982,-4.5982,-4.6002,-4.6007,-4.6037,-4.6076,-4.6104,-5.7394,-5.6779,-5.7523,-5.7836,-5.7836,-5.7816,-5.7445,-5.6977,-5.6899,-5.684,-5.6779,-5.6623,-5.6604,-5.6604,-5.6604,-5.6604,-5.6604,-5.6604,-5.6604,-5.6604,-5.6662,-5.7641,-5.8441,-5.9143,-5.971,-6.1249,-6.1562,-6.1483,-6.1698,-6.1698,-6.1698,-6.1698,-6.1698,-6.164,-6.1542,-6.0803,-5.9944,-5.9085,-5.8304,-5.7933,-5.7523,-5.6977,-5.6651,-5.6616,-5.6602,-5.6609,-5.6617,-5.6582,-5.6562,-5.6536,-5.6522,-5.6135,-5.5457,-5.4596,-5.3722,-5.2834,-5.192,-5.1421,-5.13,-5.13,-5.13,-5.13,-5.13,-5.13,-5.13,-5.13,-5.13,-5.13,-5.1296,-5.1317,-5.1352,-5.1386,-5.1379,-5.1386,-5.1388,-5.1388,-5.1386,-5.1386,-5.1401,-5.1399,-5.1396,-5.1296,-5.0778,-5.0068,-4.8864,-4.786,-4.6899,-4.644,-4.6332,-4.6304,-4.6289,-4.6284,-4.6266,-4.624,-4.6186,-4.6138,-4.6113,-4.6085,-4.6066,-4.6032,-4.6007,-4.6002,-4.5982,-4.5982,-4.5982,-4.5982,-4.5982,-4.5982,-4.5982,-4.5982,-4.5982,-4.6007,-4.6032,-4.6066,-4.609,-5.6809,-5.6623,-5.6879,-5.7016,-5.7016,-5.6996,-5.684,-5.6623,-5.6604,-5.6604,-5.6604,-5.6604,-5.6604,-5.6604,-5.6604,-5.6604,-5.6604,-5.6604,-5.6604,-5.6604,-5.6604,-5.7231,-5.7992,-5.8519,-5.9222,-6.0412,-6.0861,-6.1252,-6.1698,-6.1698,-6.1698,-6.1698,-6.1698,-6.1698,-6.164,-6.1271,-6.0842,-5.9983,-5.9143,-5.8421,-5.7797,-5.71,-5.6637,-5.6641,-5.6611,-5.6598,-5.6601,-5.656,-5.6531,-5.6518,-5.6494,-5.6299,-5.5857,-5.5151,-5.4325,-5.3498,-5.2645,-5.1885,-5.1515,-5.13,-5.13,-5.1359,-5.132,-5.132,-5.13,-5.13,-5.13,-5.13,-5.1308,-5.1323,-5.132,-5.1323,-5.1336,-5.1383,-5.1386,-5.1386,-5.1386,-5.1386,-5.1383,-5.1383,-5.1403,-5.1375,-5.1034,-5.0365,-4.9217,-4.8193,-4.7331,-4.6593,-4.633,-4.6306,-4.6289,-4.6277,-4.6253,-4.622,-4.618,-4.6138,-4.6099,-4.6076,-4.6042,-4.6007,-4.6002,-4.5982,-4.5982,-4.5982,-4.5982,-4.5982,-4.5982,-4.5982,-4.5982,-4.5982,-4.5982,-4.5982,-4.6007,-4.6061,-4.61,-5.6531,-5.6604,-5.6604,-5.6604,-5.6604,-5.6604,-5.6604,-5.6604,-5.6604,-5.6604,-5.6604,-5.6604,-5.6604,-5.6604,-5.6604,-5.6604,-5.6604,-5.6604,-5.6604,-5.6604,-5.6604,-5.7172,-5.7601,-5.7855,-5.8695,-5.969,-6.0334,-6.0764,-6.1193,-6.1542,-6.1679,-6.1698,-6.1698,-6.1698,-6.1679,-6.1562,-6.1405,-6.0666,-6.0002,-5.9165,-5.8369,-5.7574,-5.6899,-5.6691,-5.658,-5.6562,-5.6558,-5.6525,-5.6487,-5.6489,-5.6488,-5.6484,-5.6239,-5.5681,-5.4956,-5.4262,-5.3541,-5.284,-5.245,-5.2333,-5.243,-5.2372,-5.1749,-5.1339,-5.13,-5.13,-5.13,-5.13,-5.13,-5.1292,-5.1307,-5.131,-5.1336,-5.1369,-5.1391,-5.1391,-5.1394,-5.1394,-5.1372,-5.1369,-5.1366,-5.1336,-5.1229,-5.0543,-4.9701,-4.874,-4.7816,-4.7125,-4.6425,-4.6325,-4.6288,-4.6274,-4.6245,-4.6212,-4.6173,-4.613,-4.6095,-4.6052,-4.6037,-4.6007,-4.5982,-4.5982,-4.5982,-4.5982,-4.5982,-4.5982,-4.5982,-4.5982,-4.5982,-4.5982,-4.5982,-4.5982,-4.5982,-4.6032,-4.609,-5.6542,-5.6604,-5.6604,-5.6604,-5.6604,-5.6604,-5.6604,-5.6604,-5.6604,-5.6604,-5.6604,-5.6604,-5.6604,-5.6604,-5.6604,-5.6604,-5.6604,-5.6604,-5.6604,-5.6602,-5.6602,-5.7109,-5.7421,-5.7656,-5.8178,-5.8983,-5.9627,-5.9917,-6.041,-6.0803,-6.121,-6.1542,-6.1447,-6.1544,-6.162,-6.1679,-6.1601,-6.1232,-6.0588,-5.9714,-5.8842,-5.8087,-5.7278,-5.6815,-5.6542,-5.6515,-5.6499,-5.6497,-5.6494,-5.6491,-5.6492,-5.6484,-5.6238,-5.5704,-5.5388,-5.494,-5.4281,-5.381,-5.3595,-5.3478,-5.3537,-5.3225,-5.2353,-5.171,-5.1456,-5.1554,-5.1515,-5.1378,-5.13,-5.1292,-5.1303,-5.1307,-5.1333,-5.1359,-5.1385,-5.1385,-5.1385,-5.1385,-5.134,-5.1336,-5.131,-5.1284,-5.1214,-5.0661,-5.0197,-4.9503,-4.8604,-4.7677,-4.6983,-4.6341,-4.6308,-4.6255,-4.6228,-4.6183,-4.6146,-4.613,-4.6099,-4.6076,-4.6061,-4.6032,-4.6007,-4.5982,-4.5982,-4.5982,-4.5982,-4.5982,-4.5982,-4.5982,-4.5982,-4.5982,-4.5982,-4.5982,-4.5982,-4.5982,-4.6032,-5.6542,-5.6604,-5.6604,-5.6604,-5.6604,-5.6604,-5.6604,-5.6604,-5.6604,-5.6604,-5.6604,-5.6604,-5.6604,-5.6604,-5.6604,-5.6604,-5.6604,-5.6604,-5.6558,-5.6555,-5.6553,-5.6704,-5.6835,-5.7007,-5.7456,-5.7983,-5.8532,-5.9023,-5.9405,-5.9898,-6.0371,-6.0666,-6.0764,-6.1076,-6.1388,-6.1679,-6.1581,-6.1427,-6.0744,-6.005,-5.9182,-5.831,-5.746,-5.6776,-5.6511,-5.6495,-5.6494,-5.6488,-5.6484,-5.6496,-5.648,-5.6492,-5.6429,-5.621,-5.5976,-5.5158,-5.4433,-5.3868,-5.3888,-5.3907,-5.4004,-5.4102,-5.3444,-5.2879,-5.2469,-5.2197,-5.2021,-5.1826,-5.169,-5.1776,-5.1702,-5.1647,-5.1612,-5.1576,-5.1521,-5.1346,-5.1346,-5.1346,-5.1319,-5.1319,-5.1296,-5.1292,-5.1203,-5.1145,-5.0681,-5.0119,-4.9413,-4.8466,-4.7598,-4.696,-4.6347,-4.628,-4.6238,-4.6203,-4.616,-4.6146,-4.6113,-4.6081,-4.6071,-4.6056,-4.6007,-4.5982,-4.5982,-4.5982,-4.5982,-4.5982,-4.5982,-4.5982,-4.5982,-4.5982,-4.5982,-4.5982,-4.5982,-4.5982,-4.5982,-5.6542,-5.6604,-5.6604,-5.6604,-5.6604,-5.6604,-5.6604,-5.6604,-5.6604,-5.6604,-5.6604,-5.6604,-5.6582,-5.6558,-5.6558,-5.6555,-5.6548,-5.6548,-5.6525,-5.652,-5.6478,-5.6527,-5.6498,-5.653,-5.6826,-5.7235,-5.7648,-5.8182,-5.8549,-5.9012,-5.9507,-5.982,-5.9881,-6.0195,-6.0451,-6.0488,-6.0568,-6.0688,-6.0575,-6.0095,-5.9305,-5.8473,-5.7695,-5.6709,-5.6511,-5.6494,-5.6491,-5.6496,-5.6488,-5.6484,-5.6487,-5.6487,-5.6487,-5.6448,-5.639,-5.5704,-5.5411,-5.5119,-5.5119,-5.5061,-5.4963,-5.4905,-5.4827,-5.4457,-5.3833,-5.3385,-5.2995,-5.2664,-5.2528,-5.2391,-5.2216,-5.208,-5.1963,-5.1865,-5.1593,-5.132,-5.13,-5.13,-5.13,-5.13,-5.13,-5.13,-5.13,-5.13,-5.1183,-5.0696,-5.0178,-4.9513,-4.8535,-4.767,-4.6853,-4.6345,-4.629,-4.6221,-4.6186,-4.6142,-4.613,-4.6099,-4.61,-4.6066,-4.6012,-4.5982,-4.5982,-4.5982,-4.5982,-4.5982,-4.5982,-4.5982,-4.5982,-4.5982,-4.5982,-4.5982,-4.5982,-4.5982,-4.5982,-5.6542,-5.6604,-5.6604,-5.6604,-5.6604,-5.6604,-5.6604,-5.6604,-5.6582,-5.6584,-5.6602,-5.6584,-5.6558,-5.6528,-5.6506,-5.6497,-5.6508,-5.6504,-5.6498,-5.6475,-5.6471,-5.6476,-5.6465,-5.6504,-5.6593,-5.6796,-5.7073,-5.7467,-5.7808,-5.8194,-5.8538,-5.8967,-5.9017,-5.9217,-5.9493,-5.9532,-5.9631,-5.9729,-6.021,-6.022,-5.9234,-5.8672,-5.8258,-5.6807,-5.6492,-5.6491,-5.648,-5.65,-5.6487,-5.6487,-5.6487,-5.6487,-5.6487,-5.6487,-5.6429,-5.639,-5.6156,-5.6117,-5.6054,-5.6039,-5.6156,-5.6253,-5.6448,-5.5821,-5.51,-5.4359,-5.3872,-5.3401,-5.3206,-5.3186,-5.3069,-5.2859,-5.2703,-5.2353,-5.1982,-5.1612,-5.132,-5.132,-5.13,-5.13,-5.13,-5.13,-5.13,-5.13,-5.13,-5.1028,-5.0778,-5.026,-4.9526,-4.8511,-4.7642,-4.6758,-4.6359,-4.6298,-4.6206,-4.617,-4.615,-4.6141,-4.6114,-4.6085,-4.6026,-4.6002,-4.5982,-4.5982,-4.5982,-4.5982,-4.5982,-4.5982,-4.5982,-4.5982,-4.5982,-4.5982,-4.5982,-4.5982,-4.5982,-5.6542,-5.6604,-5.6604,-5.6604,-5.6604,-5.6604,-5.6541,-5.6511,-5.6511,-5.6453,-5.6511,-5.6492,-5.6523,-5.6508,-5.6485,-5.6494,-5.648,-5.6469,-5.6461,-5.6425,-5.6416,-5.6402,-5.6422,-5.6417,-5.6417,-5.6456,-5.6641,-5.6816,-5.6967,-5.7212,-5.7551,-5.8047,-5.8133,-5.8314,-5.8809,-5.8848,-5.887,-5.8851,-5.9161,-5.9249,-5.8337,-5.7988,-5.7531,-5.6779,-5.6497,-5.6494,-5.6488,-5.6492,-5.6487,-5.6487,-5.6487,-5.6487,-5.6487,-5.6487,-5.6487,-5.6487,-5.6487,-5.6487,-5.6487,-5.6487,-5.6487,-5.6487,-5.6468,-5.639,-5.5976,-5.5295,-5.4706,-5.4238,-5.4004,-5.4024,-5.3946,-5.3716,-5.3366,-5.2879,-5.2348,-5.1865,-5.1378,-5.132,-5.13,-5.13,-5.13,-5.13,-5.13,-5.13,-5.13,-5.1261,-5.1222,-5.086,-5.0306,-4.946,-4.8634,-4.7727,-4.664,-4.6392,-4.6347,-4.6195,-4.618,-4.6142,-4.6113,-4.6081,-4.6026,-4.6002,-4.5982,-4.5982,-4.5982,-4.5982,-4.5982,-4.5982,-4.5982,-4.5982,-4.5982,-4.5982,-4.5982,-4.5982,-4.5982,-5.6548,-5.6604,-5.6604,-5.6372,-5.6057,-5.5996,-5.5775,-5.5435,-5.5371,-5.534,-5.5526,-5.6072,-5.6475,-5.6457,-5.6449,-5.6453,-5.6431,-5.6417,-5.6378,-5.6358,-5.6317,-5.6294,-5.6321,-5.6329,-5.6309,-5.6309,-5.6345,-5.6391,-5.6369,-5.6472,-5.6877,-5.7184,-5.7275,-5.7506,-5.8002,-5.8007,-5.8068,-5.7953,-5.8071,-5.7787,-5.7382,-5.7479,-5.7329,-5.6784,-5.6485,-5.6484,-5.648,-5.6487,-5.6487,-5.6487,-5.6487,-5.6487,-5.6487,-5.6487,-5.6487,-5.6487,-5.6487,-5.6487,-5.6487,-5.6487,-5.6487,-5.6487,-5.6487,-5.6409,-5.6429,-5.5821,-5.5762,-5.5372,-5.5353,-5.5372,-5.5158,-5.4924,-5.4145,-5.3537,-5.2777,-5.2138,-5.1632,-5.13,-5.13,-5.13,-5.13,-5.13,-5.13,-5.13,-5.13,-5.13,-5.1281,-5.1281,-5.0766,-5.0355,-4.9552,-4.8763,-4.7732,-4.7009,-4.6936,-4.6596,-4.6189,-4.6157,-4.6305,-4.6129,-4.6134,-4.6046,-4.5982,-4.5997,-4.5997,-4.5982,-4.5982,-4.5997,-4.5997,-4.5982,-4.5982,-4.5982,-4.6002,-4.5997,-4.5997,-5.6282,-5.6272,-5.6235,-5.5845,-5.5198,-5.5092,-5.4674,-5.4123,-5.3952,-5.3965,-5.4169,-5.5478,-5.6054,-5.6236,-5.6218,-5.6285,-5.6336,-5.6319,-5.6277,-5.6246,-5.6207,-5.6193,-5.6172,-5.6178,-5.6185,-5.6213,-5.6246,-5.6278,-5.6333,-5.6373,-5.6416,-5.6418,-5.6452,-5.6523,-5.6509,-5.6597,-5.6836,-5.6942,-5.6956,-5.6792,-5.6953,-5.7282,-5.7026,-5.6723,-5.6482,-5.6484,-5.648,-5.6487,-5.6487,-5.6487,-5.6487,-5.6487,-5.6487,-5.6487,-5.6487,-5.6487,-5.6487,-5.6487,-5.6487,-5.6487,-5.6487,-5.6487,-5.6487,-5.6487,-5.6487,-5.6468,-5.6409,-5.639,-5.637,-5.6288,-5.6074,-5.5801,-5.4963,-5.4024,-5.3206,-5.2271,-5.1749,-5.132,-5.13,-5.13,-5.13,-5.13,-5.13,-5.13,-5.13,-5.13,-5.13,-5.13,-5.1187,-5.0858,-5.0321,-4.9727,-4.8974,-4.8359,-4.7787,-4.7356,-4.6908,-4.6986,-4.7135,-4.6629,-4.6222,-4.6129,-4.6055,-4.5991,-4.5991,-4.5986,-4.598,-4.5975,-4.5986,-4.598,-4.5956,-4.5969,-4.5986,-4.5986,-4.5991,-5.5072,-5.4498,-5.4498,-5.44,-5.4242,-5.4233,-5.4103,-5.3952,-5.3864,-5.3872,-5.3779,-5.3977,-5.4558,-5.5261,-5.5255,-5.548,-5.6052,-5.6122,-5.617,-5.6145,-5.6099,-5.6067,-5.6062,-5.6062,-5.609,-5.611,-5.6156,-5.6206,-5.6239,-5.6302,-5.6349,-5.6401,-5.6409,-5.6448,-5.6486,-5.6531,-5.6558,-5.6589,-5.6603,-5.6615,-5.662,-5.6774,-5.6692,-5.655,-5.6482,-5.648,-5.6496,-5.6487,-5.6487,-5.6487,-5.6487,-5.6487,-5.6487,-5.6487,-5.6487,-5.6487,-5.6487,-5.6487,-5.6487,-5.6487,-5.6487,-5.6487,-5.6487,-5.6487,-5.6487,-5.6487,-5.6448,-5.6448,-5.6448,-5.6448,-5.6312,-5.6312,-5.5704,-5.4554,-5.3595,-5.2426,-5.1554,-5.1378,-5.13,-5.13,-5.13,-5.13,-5.13,-5.13,-5.13,-5.13,-5.13,-5.13,-5.13,-5.1147,-5.0992,-5.054,-4.9999,-4.9393,-4.8707,-4.8392,-4.8064,-4.8107,-4.7981,-4.7524,-4.6965,-4.6304,-4.6171,-4.6266,-4.6075,-4.5972,-4.5953,-4.5941,-4.5923,-4.5917,-4.5923,-4.5929,-4.5972,-4.5989,-4.5975]},{"header":{"parameterUnit":"m.s-1","parameterCategory":1,"la1":31.0,"la2":29.5877,"lo1":-88.7671,"lo2":-86.6584,"dy":0.0162,"dx":0.0185,"nx":115,"ny":88,"refTime":"2023-04-05T18:00:00:Z","depth":0,"parameterNumber":3,"parameterNumberName":"V-component_of_WINDS"},"data":[0.0,0.0,0.0,0.0,0.0,0.0,0.0,0.0,0.0,0.0,0.0,0.0,0.0,0.0,0.0,0.0,0.0,0.0,0.0,0.0,0.0,0.0,0.0,0.0,0.0,0.0,0.0,0.0,0.0,0.0,0.0,0.0,0.0,0.0,0.0,0.0,0.0,0.0,0.0,0.0,0.0,0.0,0.0,0.0,0.0,0.0,0.0,0.0,0.0,0.0,0.0,0.0,0.0,0.0,0.0,0.0,0.0,0.0,0.0,0.0,0.0,0.0,0.0,0.0,0.0,0.0,0.0,0.0,0.0,0.0,0.0,0.0,0.0,0.0,0.0,0.0,0.0,0.0,0.0,0.0,0.0,0.0,0.0,0.0,0.0,0.0,0.0,0.0,0.0,0.0,0.0,0.0,0.0,0.0,0.0,0.0,0.0,0.0,0.0,0.0,0.0,0.0,0.0,0.0,0.0,0.0,0.0,0.0,0.0,0.0,0.0,0.0,0.0,0.0,0.0,0.0,0.0,0.0,0.0,0.0,0.0,0.0,0.0,0.0,0.0,0.0,0.0,0.0,0.0,0.0,0.0,0.0,0.0,0.0,0.0,0.0,0.0,0.0,0.0,0.0,0.0,0.0,0.0,0.0,0.0,0.0,0.0,0.0,0.0,0.0,0.0,0.0,0.0,0.0,0.0,0.0,0.0,0.0,0.0,0.0,0.0,0.0,0.0,0.0,0.0,0.0,0.0,0.0,0.0,0.0,0.0,0.0,0.0,0.0,0.0,0.0,0.0,0.0,0.0,0.0,0.0,0.0,0.0,0.0,0.0,0.0,0.0,0.0,0.0,0.0,0.0,0.0,0.0,0.0,0.0,0.0,0.0,0.0,0.0,0.0,0.0,0.0,0.0,0.0,0.0,0.0,0.0,0.0,0.0,0.0,0.0,0.0,0.0,0.0,0.0,0.0,0.0,0.0,0.0,0.0,0.0,0.0,0.0,0.0,0.0,0.0,0.0,0.0,0.0,0.0,0.0,0.0,0.0,0.0,0.0,0.0,0.0,0.0,0.0,0.0,0.0,0.0,0.0,0.0,0.0,0.0,0.0,0.0,0.0,0.0,0.0,0.0,0.0,0.0,0.0,0.0,0.0,0.0,0.0,0.0,0.0,0.0,0.0,0.0,0.0,0.0,0.0,0.0,0.0,0.0,0.0,0.0,0.0,0.0,0.0,0.0,0.0,0.0,0.0,0.0,0.0,0.0,0.0,0.0,0.0,0.0,0.0,0.0,0.0,0.0,0.0,0.0,0.0,0.0,0.0,0.0,0.0,0.0,0.0,0.0,0.0,0.0,0.0,0.0,0.0,0.0,0.0,0.0,0.0,0.0,0.0,0.0,0.0,0.0,0.0,0.0,0.0,0.0,0.0,0.0,0.0,0.0,0.0,0.0,0.0,0.0,0.0,0.0,0.0,0.0,0.0,0.0,0.0,0.0,0.0,0.0,0.0,0.0,0.0,0.0,0.0,0.0,0.0,0.0,0.0,0.0,0.0,0.0,0.0,0.0,0.0,0.0,0.0,0.0,0.0,0.0,0.0,0.0,0.0,0.0,0.0,0.0,0.0,0.0,0.0,0.0,0.0,0.0,0.0,0.0,0.0,0.0,0.0,0.0,0.0,0.0,0.0,0.0,0.0,0.0,0.0,0.0,0.0,0.0,0.0,0.0,0.0,0.0,0.0,0.0,0.0,0.0,0.0,0.0,0.0,0.0,0.0,0.0,0.0,0.0,0.0,0.0,0.0,0.0,0.0,0.0,0.0,0.0,0.0,0.0,0.0,0.0,0.0,0.0,0.0,0.0,0.0,0.0,0.0,0.0,0.0,0.0,0.0,0.0,0.0,0.0,0.0,0.0,0.0,0.0,0.0,0.0,0.0,0.0,0.0,0.0,0.0,0.0,0.0,0.0,0.0,0.0,0.0,0.0,0.0,0.0,0.0,0.0,0.0,0.0,0.0,0.0,0.0,0.0,0.0,0.0,0.0,0.0,0.0,0.0,0.0,0.0,0.0,0.0,0.0,0.0,0.0,0.0,0.0,0.0,0.0,0.0,0.0,0.0,0.0,0.0,0.0,0.0,0.0,0.0,0.0,0.0,0.0,0.0,0.0,0.0,0.0,0.0,0.0,0.0,0.0,0.0,0.0,0.0,0.0,0.0,0.0,0.0,0.0,0.0,0.0,0.0,0.0,0.0,0.0,0.0,0.0,0.0,0.0,0.0,0.0,0.0,0.0,0.0,0.0,0.0,0.0,0.0,0.0,0.0,0.0,0.0,0.0,0.0,0.0,0.0,0.0,0.0,0.0,0.0,0.0,0.0,0.0,0.0,0.0,0.0,0.0,0.0,0.0,0.0,0.0,0.0,0.0,0.0,0.0,0.0,0.0,0.0,0.0,0.0,0.0,0.0,0.0,0.0,0.0,0.0,0.0,0.0,0.0,0.0,0.0,0.0,0.0,0.0,0.0,0.0,0.0,0.0,0.0,0.0,0.0,0.0,0.0,0.0,0.0,0.0,0.0,0.0,0.0,0.0,0.0,0.0,0.0,0.0,0.0,0.0,0.0,0.0,0.0,0.0,0.0,0.0,0.0,0.0,0.0,0.0,0.0,0.0,0.0,0.0,0.0,0.0,0.0,0.0,0.0,0.0,0.0,0.0,0.0,0.0,0.0,0.0,0.0,0.0,0.0,0.0,0.0,0.0,0.0,0.0,0.0,0.0,0.0,0.0,0.0,0.0,0.0,0.0,0.0,0.0,0.0,0.0,0.0,0.0,0.0,0.0,0.0,0.0,0.0,0.0,0.0,0.0,0.0,0.0,0.0,0.0,0.0,0.0,0.0,0.0,0.0,0.0,0.0,0.0,0.0,0.0,0.0,0.0,0.0,0.0,0.0,0.0,0.0,0.0,0.0,0.0,0.0,0.0,0.0,0.0,0.0,0.0,0.0,0.0,0.0,0.0,0.0,0.0,0.0,0.0,0.0,0.0,0.0,0.0,0.0,0.0,0.0,0.0,0.0,0.0,0.0,0.0,0.0,0.0,0.0,0.0,0.0,0.0,0.0,0.0,0.0,0.0,0.0,0.0,0.0,0.0,0.0,0.0,0.0,0.0,0.0,0.0,0.0,0.0,0.0,0.0,0.0,0.0,0.0,0.0,0.0,0.0,0.0,0.0,0.0,0.0,0.0,0.0,0.0,0.0,0.0,0.0,0.0,0.0,0.0,0.0,0.0,0.0,0.0,0.0,0.0,0.0,0.0,0.0,0.0,0.0,0.0,0.0,0.0,0.0,0.0,0.0,0.0,0.0,0.0,0.0,0.0,0.0,0.0,0.0,0.0,0.0,0.0,0.0,0.0,0.0,0.0,0.0,0.0,0.0,0.0,0.0,0.0,0.0,0.0,0.0,0.0,0.0,0.0,0.0,0.0,0.0,0.0,0.0,0.0,0.0,0.0,0.0,0.0,0.0,0.0,0.0,0.0,0.0,0.0,0.0,0.0,0.0,0.0,0.0,0.0,0.0,0.0,0.0,0.0,0.0,0.0,0.0,0.0,0.0,0.0,0.0,0.0,0.0,0.0,0.0,0.0,0.0,0.0,0.0,0.0,0.0,0.0,0.0,0.0,0.0,0.0,0.0,0.0,0.0,0.0,0.0,0.0,0.0,0.0,0.0,0.0,0.0,0.0,0.0,0.0,0.0,0.0,0.0,0.0,0.0,0.0,0.0,0.0,0.0,0.0,0.0,0.0,0.0,0.0,0.0,0.0,0.0,0.0,0.0,0.0,0.0,0.0,0.0,0.0,0.0,0.0,0.0,0.0,0.0,0.0,0.0,0.0,0.0,0.0,0.0,0.0,0.0,0.0,0.0,0.0,0.0,0.0,0.0,0.0,0.0,0.0,0.0,0.0,0.0,0.0,0.0,0.0,0.0,0.0,0.0,0.0,0.0,0.0,0.0,0.0,0.0,0.0,0.0,0.0,0.0,0.0,0.0,0.0,0.0,0.0,0.0,0.0,0.0,0.0,0.0,0.0,0.0,0.0,0.0,0.0,0.0,0.0,0.0,0.0,0.0,0.0,0.0,0.0,0.0,0.0,0.0,0.0,0.0,0.0,0.0,0.0,0.0,0.0,0.0,0.0,0.0,0.0,0.0,0.0,0.0,0.0,0.0,0.0,0.0,0.0,0.0,0.0,0.0,0.0,0.0,0.0,0.0,0.0,0.0,0.0,0.0,0.0,0.0,0.0,0.0,-0.7518,0.0,0.0,0.0,0.0,0.0,0.0,0.0,0.0,0.0,0.0,0.0,0.0,0.0,0.0,0.0,0.0,0.0,0.0,0.0,0.0,0.0,0.0,0.0,0.0,0.0,0.0,0.0,0.0,0.0,0.0,0.0,0.0,0.0,0.0,0.0,0.0,0.0,0.0,0.0,0.0,0.0,0.0,0.0,0.0,0.0,0.0,0.0,0.0,0.0,0.0,0.0,0.0,0.0,0.0,0.0,0.0,0.0,0.0,0.0,0.0,0.0,0.0,0.0,0.0,0.0,0.0,0.0,0.0,0.0,0.0,0.0,0.0,0.0,0.0,0.0,0.0,0.0,0.0,0.0,0.0,0.0,0.0,0.0,0.0,0.0,0.0,0.0,0.0,0.0,0.0,0.0,0.0,0.0,0.0,0.0,0.0,0.0,0.0,0.0,0.0,0.0,0.0,0.0,0.0,0.0,0.0,0.0,0.0,0.0,0.0,-0.7876,-0.7799,-0.768,-0.7599,-0.7518,0.0,0.0,0.0,0.0,0.0,0.0,0.0,0.0,0.0,0.0,0.0,0.0,0.0,0.0,0.0,0.0,0.0,0.0,0.0,0.0,0.0,0.0,0.0,0.0,0.0,0.0,0.0,0.0,0.0,0.0,0.0,0.0,0.0,0.0,0.0,0.0,0.0,0.0,0.0,0.0,0.0,0.0,0.0,0.0,0.0,0.0,0.0,0.0,0.0,0.0,0.0,0.0,0.0,0.0,0.0,0.0,0.0,0.0,0.0,0.0,0.0,0.0,0.0,0.0,0.0,0.0,0.0,0.0,0.0,0.0,0.0,0.0,0.0,0.0,0.0,0.0,0.0,0.0,0.0,0.0,0.0,0.0,0.0,0.0,0.0,0.0,0.0,0.0,0.0,0.0,0.0,0.0,0.0,0.0,0.0,0.0,0.0,0.0,0.0,0.0,0.0,0.0,0.0,0.0,0.0,0.0,0.0,0.0,0.0,0.0,0.0,0.0,-0.7599,-0.7518,-0.7518,0.0,0.0,0.0,0.0,0.0,0.0,0.0,0.0,0.0,0.0,0.0,0.0,0.0,0.0,0.0,0.0,0.0,0.0,0.0,0.0,0.0,0.0,0.0,0.0,0.0,0.0,0.0,0.0,0.0,0.0,0.0,0.0,0.0,0.0,0.0,0.0,0.0,0.0,0.0,0.0,0.0,0.0,0.0,0.0,0.0,0.0,0.0,0.0,0.0,0.0,0.0,0.0,0.0,0.0,0.0,0.0,0.0,0.0,0.0,0.0,0.0,0.0,0.0,0.0,0.0,0.0,0.0,0.0,0.0,0.0,0.0,0.0,0.0,0.0,0.0,0.0,0.0,0.0,0.0,0.0,0.0,0.0,0.0,0.0,0.0,0.0,0.0,0.0,0.0,0.0,0.0,0.0,0.0,0.0,0.0,0.0,0.0,0.0,0.0,0.0,0.0,0.0,0.0,0.0,0.0,0.0,0.0,0.0,0.0,0.0,-0.7518,-0.7518,-0.7518,0.0,-0.7518,0.0,0.0,0.0,0.0,0.0,0.0,0.0,0.0,0.0,0.0,0.0,0.0,0.0,0.0,0.0,0.0,0.0,0.0,0.0,0.0,0.0,0.0,0.0,0.0,0.0,0.0,0.0,0.0,0.0,0.0,0.0,0.0,0.0,0.0,0.0,0.0,0.0,0.0,0.0,0.0,0.0,0.0,0.0,0.0,0.0,0.0,0.0,0.0,0.0,0.0,0.0,0.0,0.0,0.0,0.0,0.0,0.0,0.0,0.0,0.0,0.0,0.0,0.0,0.0,0.0,0.0,0.0,0.0,0.0,0.0,0.0,0.0,0.0,0.0,0.0,0.0,0.0,0.0,0.0,0.0,0.0,0.0,0.0,0.0,0.0,0.0,0.0,0.0,0.0,0.0,0.0,0.0,0.0,0.0,0.0,0.0,0.0,0.0,0.0,0.0,0.0,0.0,0.0,0.0,0.0,0.0,0.0,0.0,0.0,0.0,-0.7134,-0.7134,-0.713,-0.7215,0.0,0.0,0.0,0.0,0.0,0.0,0.0,0.0,0.0,0.0,0.0,0.0,0.0,0.0,0.0,0.0,0.0,0.0,0.0,0.0,0.0,0.0,0.0,0.0,0.0,0.0,0.0,0.0,0.0,0.0,0.0,0.0,0.0,0.0,0.0,0.0,0.0,0.0,0.0,0.0,0.0,0.0,0.0,0.0,0.0,0.0,0.0,0.0,0.0,0.0,0.0,0.0,0.0,0.0,0.0,0.0,0.0,0.0,0.0,0.0,0.0,0.0,0.0,0.0,0.0,0.0,0.0,0.0,0.0,0.0,0.0,0.0,0.0,0.0,0.0,0.0,0.0,0.0,0.0,0.0,0.0,0.0,0.0,0.0,0.0,0.0,0.0,0.0,0.0,0.0,0.0,0.0,0.0,0.0,0.0,0.0,0.0,0.0,0.0,0.0,0.0,0.0,0.0,0.0,0.0,0.0,0.0,0.0,0.0,0.0,-0.6984,-0.6903,-0.6903,-0.6903,-0.6984,-0.7103,0.0,0.0,0.0,0.0,0.0,0.0,0.0,0.0,0.0,0.0,0.0,0.0,0.0,0.0,0.0,0.0,0.0,0.0,0.0,0.0,0.0,0.0,0.0,0.0,0.0,0.0,0.0,0.0,0.0,0.0,0.0,0.0,0.0,0.0,0.0,0.0,0.0,0.0,0.0,0.0,0.0,0.0,0.0,0.0,0.0,0.0,0.0,0.0,0.0,0.0,0.0,0.0,0.0,0.0,0.0,0.0,0.0,0.0,0.0,0.0,0.0,0.0,0.0,0.0,0.0,0.0,0.0,0.0,0.0,0.0,0.0,0.0,0.0,0.0,0.0,0.0,0.0,0.0,0.0,0.0,0.0,0.0,0.0,0.0,0.0,0.0,0.0,0.0,0.0,0.0,0.0,0.0,0.0,0.0,0.0,0.0,0.0,0.0,0.0,0.0,0.0,0.0,0.0,0.0,0.0,0.0,0.0,0.0,-0.6942,-0.6903,-0.6903,-0.6903,-0.6903,-0.6903,0.0,0.0,0.0,0.0,0.0,0.0,0.0,0.0,0.0,0.0,0.0,0.0,0.0,0.0,0.0,0.0,0.0,0.0,0.0,0.0,0.0,0.0,0.0,0.0,0.0,0.0,0.0,0.0,0.0,0.0,0.0,0.0,0.0,0.0,0.0,0.0,0.0,0.0,0.0,0.0,0.0,0.0,0.0,0.0,0.0,0.0,0.0,0.0,0.0,0.0,0.0,0.0,0.0,0.0,0.0,0.0,0.0,0.0,0.0,0.0,0.0,0.0,0.0,0.0,0.0,0.0,0.0,0.0,0.0,0.0,0.0,0.0,0.0,0.0,0.0,0.0,0.0,0.0,0.0,0.0,0.0,0.0,0.0,0.0,0.0,0.0,0.0,0.0,0.0,0.0,0.0,0.0,0.0,0.0,0.0,0.0,0.0,0.0,0.0,0.0,0.0,0.0,0.0,0.0,0.0,0.0,0.0,0.0,0.0,-0.6714,-0.6602,-0.6525,-0.6528,-0.6525,-0.6563,0.0,0.0,0.0,0.0,0.0,0.0,0.0,0.0,0.0,0.0,0.0,0.0,0.0,0.0,0.0,0.0,0.0,0.0,0.0,0.0,0.0,0.0,0.0,0.0,0.0,0.0,0.0,0.0,0.0,0.0,0.0,0.0,0.0,0.0,0.0,0.0,0.0,0.0,0.0,0.0,0.0,0.0,0.0,0.0,0.0,0.0,0.0,0.0,0.0,0.0,0.0,0.0,0.0,0.0,0.0,0.0,0.0,0.0,0.0,0.0,0.0,0.0,0.0,0.0,0.0,0.0,0.0,0.0,0.0,0.0,0.0,0.0,0.0,0.0,0.0,0.0,0.0,0.0,0.0,0.0,0.0,0.0,0.0,0.0,0.0,0.0,0.0,0.0,0.0,0.0,0.0,0.0,0.0,0.0,0.0,0.0,0.0,0.0,0.0,0.0,0.0,0.0,0.0,0.0,0.0,0.0,0.0,0.0,0.0,-0.6634,0.0,-0.6443,-0.64,-0.6403,-0.6455,0.0,0.0,0.0,0.0,0.0,0.0,0.0,0.0,0.0,0.0,0.0,0.0,0.0,0.0,0.0,0.0,0.0,0.0,0.0,0.0,0.0,0.0,0.0,0.0,0.0,0.0,0.0,0.0,0.0,0.0,0.0,0.0,0.0,0.0,0.0,0.0,0.0,0.0,0.0,0.0,0.0,0.0,0.0,0.0,0.0,0.0,0.0,0.0,0.0,0.0,0.0,0.0,0.0,0.0,0.0,0.0,0.0,0.0,0.0,0.0,0.0,0.0,0.0,0.0,0.0,0.0,0.0,0.0,0.0,0.0,0.0,0.0,0.0,0.0,0.0,0.0,0.0,0.0,0.0,0.0,0.0,0.0,0.0,0.0,0.0,0.0,0.0,0.0,0.0,0.0,0.0,0.0,0.0,0.0,0.0,0.0,0.0,0.0,0.0,0.0,0.0,0.0,0.0,0.0,0.0,0.0,0.0,0.0,-0.6759,-0.6688,-0.6692,-0.664,-0.6695,-0.6643,-0.6624,0.0,0.0,0.0,0.0,0.0,0.0,0.0,0.0,0.0,0.0,0.0,0.0,0.0,0.0,0.0,0.0,0.0,0.0,0.0,0.0,0.0,0.0,0.0,0.0,0.0,0.0,0.0,0.0,0.0,0.0,0.0,0.0,0.0,0.0,0.0,0.0,0.0,0.0,0.0,0.0,0.0,0.0,0.0,0.0,0.0,0.0,0.0,0.0,0.0,0.0,0.0,0.0,0.0,0.0,0.0,0.0,0.0,0.0,0.0,0.0,0.0,0.0,0.0,0.0,0.0,0.0,0.0,0.0,0.0,0.0,0.0,0.0,0.0,0.0,0.0,0.0,0.0,0.0,0.0,0.0,0.0,0.0,0.0,0.0,0.0,0.0,0.0,0.0,0.0,0.0,0.0,0.0,0.0,0.0,0.0,0.0,0.0,0.0,0.0,0.0,0.0,0.0,0.0,0.0,0.0,0.0,0.0,0.0,0.0,-0.6204,-0.6201,-0.6197,-0.6197,-0.6201,-0.6264,0.0,0.0,0.0,0.0,0.0,0.0,0.0,0.0,0.0,0.0,0.0,0.0,0.0,0.0,0.0,0.0,0.0,0.0,0.0,0.0,0.0,0.0,0.0,0.0,0.0,0.0,0.0,0.0,0.0,0.0,0.0,0.0,0.0,0.0,0.0,0.0,0.0,0.0,0.0,0.0,0.0,0.0,0.0,0.0,0.0,0.0,0.0,0.0,0.0,0.0,0.0,0.0,0.0,0.0,0.0,0.0,0.0,0.0,0.0,0.0,0.0,0.0,0.0,0.0,0.0,0.0,0.0,0.0,0.0,0.0,0.0,0.0,0.0,0.0,0.0,0.0,0.0,0.0,0.0,0.0,0.0,0.0,0.0,0.0,0.0,0.0,0.0,0.0,0.0,0.0,0.0,0.0,0.0,0.0,0.0,0.0,0.0,0.0,0.0,0.0,0.0,0.0,0.0,0.0,0.0,0.0,0.0,0.0,0.0,-0.5529,-0.5826,-0.5999,-0.6085,-0.6088,-0.6129,-0.6246,0.0,0.0,0.0,0.0,0.0,0.0,0.0,0.0,0.0,0.0,0.0,0.0,0.0,0.0,0.0,0.0,0.0,0.0,0.0,0.0,0.0,0.0,0.0,0.0,0.0,0.0,0.0,0.0,0.0,0.0,0.0,0.0,0.0,0.0,0.0,0.0,0.0,0.0,0.0,0.0,0.0,0.0,0.0,0.0,0.0,0.0,0.0,0.0,0.0,0.0,0.0,0.0,0.0,0.0,0.0,0.0,0.0,0.0,0.0,0.0,0.0,0.0,0.0,0.0,0.0,0.0,0.0,0.0,0.0,0.0,0.0,0.0,0.0,0.0,0.0,0.0,0.0,0.0,0.0,0.0,0.0,0.0,0.0,0.0,0.0,0.0,0.0,0.0,0.0,0.0,0.0,0.0,0.0,0.0,0.0,0.0,0.0,0.0,0.0,0.0,0.0,0.0,0.0,0.0,0.0,0.0,0.0,0.0,-0.4692,-0.5378,-0.5877,-0.6098,-0.609,-0.6116,0.0,0.0,0.0,0.0,0.0,0.0,0.0,0.0,0.0,0.0,0.0,0.0,0.0,0.0,0.0,0.0,0.0,0.0,0.0,0.0,0.0,0.0,0.0,0.0,0.0,0.0,0.0,0.0,0.0,0.0,0.0,0.0,0.0,0.0,0.0,0.0,0.0,0.0,0.0,0.0,0.0,0.0,0.0,0.0,0.0,0.0,0.0,0.0,0.0,0.0,0.0,0.0,0.0,0.0,0.0,0.0,0.0,0.0,0.0,0.0,0.0,0.0,0.0,0.0,0.0,0.0,0.0,0.0,0.0,0.0,0.0,0.0,0.0,0.0,0.0,0.0,0.0,0.0,0.0,0.0,0.0,0.0,0.0,0.0,0.0,0.0,0.0,0.0,0.0,0.0,0.0,0.0,0.0,0.0,0.0,0.0,0.0,0.0,0.0,0.0,0.0,0.0,0.0,0.0,0.0,0.0,0.0,0.0,0.0,-0.443,-0.4239,-0.4469,-0.5195,-0.5166,-0.5375,0.0,0.0,0.0,0.0,0.0,0.0,0.0,0.0,0.0,0.0,0.0,0.0,0.0,0.0,0.0,0.0,0.0,0.0,0.0,0.0,0.0,0.0,0.0,0.0,0.0,0.0,0.0,0.0,0.0,0.0,0.0,0.0,0.0,0.0,0.0,0.0,0.0,0.0,0.0,0.0,0.0,0.0,0.0,0.0,0.0,0.0,0.0,0.0,0.0,0.0,0.0,0.0,0.0,0.0,0.0,0.0,0.0,0.0,0.0,0.0,0.0,0.0,0.0,0.0,0.0,0.0,0.0,0.0,0.0,0.0,0.0,0.0,0.0,0.0,0.0,0.0,0.0,0.0,0.0,0.0,0.0,0.0,0.0,0.0,0.0,0.0,0.0,0.0,0.0,0.0,0.0,0.0,0.0,0.0,0.0,0.0,0.0,0.0,0.0,0.0,0.0,0.0,0.0,0.0,0.0,0.0,0.0,0.0,-0.4062,-0.3629,-0.325,-0.3347,-0.3899,-0.4283,-0.4856,0.0,0.0,0.0,0.0,0.0,0.0,0.0,0.0,0.0,0.0,0.0,0.0,0.0,0.0,0.0,0.0,0.0,0.0,0.0,0.0,0.0,0.0,0.0,0.0,0.0,0.0,0.0,0.0,0.0,0.0,0.0,0.0,0.0,0.0,0.0,0.0,0.0,0.0,0.0,0.0,0.0,0.0,0.0,0.0,0.0,0.0,0.0,0.0,0.0,0.0,0.0,0.0,0.0,0.0,0.0,0.0,0.0,0.0,0.0,0.0,0.0,0.0,0.0,0.0,0.0,0.0,0.0,0.0,0.0,0.0,0.0,0.0,0.0,0.0,0.0,0.0,0.0,0.0,0.0,0.0,0.0,0.0,0.0,0.0,0.0,0.0,0.0,0.0,0.0,0.0,0.0,0.0,0.0,0.0,0.0,0.0,0.0,0.0,0.0,0.0,0.0,0.0,0.0,0.0,0.0,0.0,0.0,0.0,-0.3673,-0.2698,-0.2513,-0.2396,-0.247,-0.3514,-0.4421,0.0,0.0,0.0,0.0,0.0,0.0,0.0,0.0,0.0,0.0,0.0,0.0,0.0,0.0,0.0,0.0,0.0,0.0,0.0,0.0,0.0,0.0,0.0,0.0,0.0,0.0,0.0,0.0,0.0,0.0,0.0,0.0,0.0,0.0,0.0,0.0,0.0,0.0,0.0,0.0,0.0,0.0,0.0,0.0,0.0,0.0,0.0,0.0,0.0,0.0,0.0,0.0,0.0,0.0,0.0,0.0,0.0,0.0,0.0,0.0,0.0,0.0,0.0,0.0,0.0,0.0,0.0,0.0,0.0,0.0,0.0,0.0,0.0,0.0,0.0,0.0,0.0,0.0,0.0,0.0,0.0,0.0,0.0,0.0,0.0,0.0,0.0,0.0,0.0,0.0,0.0,0.0,0.0,0.0,0.0,0.0,0.0,0.0,0.0,0.0,0.0,0.0,0.0,0.0,0.0,0.0,0.0,0.0,-0.3238,-0.2579,-0.2094,-0.1906,-0.1924,-0.2666,-0.3495,0.0,0.0,0.0,0.0,0.0,0.0,0.0,0.0,0.0,0.0,0.0,0.0,0.0,0.0,0.0,0.0,0.0,0.0,0.0,0.0,0.0,0.0,0.0,0.0,0.0,0.0,0.0,0.0,0.0,0.0,0.0,0.0,0.0,0.0,0.0,0.0,0.0,0.0,0.0,0.0,0.0,0.0,0.0,0.0,0.0,0.0,0.0,0.0,-0.8478,0.0,0.0,0.0,0.0,0.0,0.0,0.0,0.0,0.0,0.0,0.0,0.0,0.0,0.0,0.0,0.0,0.0,0.0,0.0,0.0,0.0,0.0,0.0,0.0,0.0,0.0,0.0,0.0,0.0,0.0,0.0,0.0,0.0,0.0,0.0,0.0,0.0,0.0,0.0,0.0,0.0,0.0,0.0,0.0,0.0,0.0,0.0,0.0,0.0,0.0,0.0,0.0,0.0,0.0,0.0,0.0,0.0,0.0,0.0,-0.2537,-0.1911,-0.1401,-0.1197,-0.1376,-0.1914,-0.2759,0.0,0.0,0.0,0.0,0.0,0.0,0.0,0.0,0.0,0.0,0.0,0.0,0.0,0.0,0.0,0.0,0.0,0.0,0.0,0.0,0.0,0.0,0.0,0.0,0.0,0.0,0.0,0.0,0.0,0.0,0.0,0.0,0.0,0.0,0.0,0.0,0.0,0.0,0.0,0.0,0.0,0.0,0.0,0.0,0.0,0.0,0.0,0.0,0.0,0.0,0.0,0.0,0.0,0.0,0.0,0.0,0.0,0.0,0.0,0.0,0.0,0.0,0.0,0.0,0.0,0.0,0.0,0.0,0.0,0.0,0.0,0.0,0.0,0.0,0.0,0.0,0.0,0.0,0.0,0.0,0.0,0.0,0.0,0.0,0.0,0.0,0.0,0.0,0.0,0.0,0.0,0.0,0.0,0.0,0.0,0.0,0.0,0.0,0.0,0.0,0.0,0.0,0.0,0.0,0.0,0.0,0.0,-0.2775,-0.1958,-0.1211,-0.068,-0.0576,-0.0923,-0.1337,-0.2293,-0.3688,0.0,0.0,0.0,0.0,0.0,0.0,0.0,0.0,0.0,0.0,0.0,0.0,0.0,0.0,0.0,0.0,0.0,0.0,0.0,0.0,0.0,0.0,0.0,0.0,0.0,0.0,0.0,0.0,0.0,0.0,0.0,0.0,0.0,0.0,0.0,0.0,0.0,0.0,-0.9038,-0.8535,0.0,0.0,0.0,0.0,0.0,0.0,0.0,0.0,-0.6801,0.0,0.0,0.0,0.0,0.0,0.0,0.0,0.0,0.0,0.0,0.0,0.0,0.0,0.0,0.0,0.0,0.0,0.0,0.0,0.0,0.0,0.0,0.0,0.0,0.0,0.0,0.0,0.0,0.0,0.0,0.0,0.0,0.0,0.0,0.0,0.0,0.0,0.0,0.0,0.0,0.0,0.0,0.0,0.0,0.0,0.0,0.0,0.0,0.0,0.0,0.0,0.0,0.0,0.0,0.0,0.0,-0.3801,-0.2794,-0.198,-0.1309,-0.0688,-0.0579,-0.0878,-0.1346,-0.2081,-0.3084,0.0,0.0,0.0,0.0,0.0,0.0,0.0,0.0,0.0,0.0,0.0,0.0,0.0,0.0,0.0,0.0,0.0,0.0,0.0,0.0,0.0,0.0,0.0,0.0,0.0,0.0,0.0,0.0,0.0,0.0,0.0,0.0,0.0,0.0,0.0,0.0,0.0,0.0,0.0,-0.754,-0.7042,0.0,0.0,0.0,0.0,0.0,0.0,0.0,0.0,-0.6211,0.0,0.0,0.0,0.0,0.0,0.0,0.0,0.0,0.0,0.0,0.0,0.0,0.0,0.0,0.0,0.0,0.0,0.0,0.0,0.0,0.0,0.0,0.0,0.0,0.0,0.0,0.0,0.0,0.0,0.0,0.0,0.0,0.0,0.0,0.0,0.0,0.0,0.0,0.0,0.0,0.0,0.0,0.0,0.0,0.0,0.0,0.0,0.0,0.0,0.0,0.0,0.0,0.0,0.0,0.0,-0.3385,-0.2413,-0.1679,-0.109,-0.0513,-0.04,-0.0871,-0.1385,-0.2052,0.0,0.0,0.0,0.0,0.0,0.0,0.0,0.0,0.0,0.0,0.0,0.0,0.0,0.0,0.0,0.0,0.0,0.0,0.0,0.0,0.0,0.0,0.0,0.0,0.0,0.0,0.0,0.0,0.0,0.0,0.0,0.0,0.0,0.0,0.0,0.0,0.0,0.0,0.0,0.0,-0.6792,-0.6292,-0.5992,0.0,0.0,0.0,0.0,0.0,0.0,-0.52,-0.5162,0.0,0.0,0.0,0.0,0.0,0.0,0.0,0.0,0.0,0.0,0.0,0.0,0.0,0.0,0.0,0.0,0.0,0.0,0.0,0.0,0.0,0.0,0.0,0.0,0.0,0.0,0.0,0.0,0.0,0.0,0.0,0.0,0.0,0.0,0.0,0.0,0.0,0.0,0.0,0.0,0.0,0.0,0.0,0.0,0.0,0.0,0.0,0.0,0.0,0.0,0.0,0.0,0.0,0.0,0.0,-0.3013,-0.2076,-0.1368,-0.0921,-0.034,-0.0283,-0.0861,-0.1368,-0.2025,0.0,0.0,0.0,0.0,0.0,0.0,0.0,0.0,0.0,0.0,0.0,0.0,0.0,0.0,0.0,0.0,0.0,0.0,0.0,0.0,0.0,0.0,0.0,0.0,0.0,0.0,0.0,0.0,0.0,0.0,0.0,0.0,0.0,0.0,0.0,0.0,0.0,0.0,0.0,0.0,0.0,-0.5541,-0.5037,-0.4736,0.0,0.0,0.0,0.0,-0.4505,-0.4391,0.0,0.0,0.0,0.0,0.0,0.0,0.0,0.0,0.0,0.0,0.0,0.0,0.0,0.0,0.0,0.0,0.0,0.0,0.0,0.0,0.0,0.0,0.0,0.0,0.0,0.0,0.0,0.0,0.0,0.0,0.0,0.0,0.0,0.0,0.0,0.0,0.0,0.0,0.0,0.0,0.0,0.0,0.0,0.0,0.0,0.0,0.0,0.0,0.0,0.0,0.0,0.0,0.0,0.0,0.0,0.0,-0.3019,-0.209,-0.1376,-0.0877,-0.0285,-0.0283,-0.0861,-0.1369,-0.2025,0.0,0.0,0.0,0.0,0.0,0.0,0.0,0.0,0.0,0.0,0.0,0.0,0.0,0.0,0.0,0.0,0.0,0.0,0.0,0.0,0.0,0.0,0.0,0.0,0.0,0.0,0.0,0.0,0.0,0.0,0.0,0.0,0.0,0.0,0.0,0.0,0.0,0.0,0.0,0.0,0.0,-0.4734,-0.4234,-0.393,-0.3728,0.0,0.0,-0.3794,-0.3978,-0.3954,0.0,0.0,0.0,0.0,0.0,0.0,0.0,0.0,0.0,0.0,0.0,0.0,0.0,0.0,0.0,0.0,0.0,0.0,0.0,0.0,0.0,0.0,0.0,0.0,0.0,0.0,0.0,0.0,0.0,0.0,0.0,0.0,0.0,0.0,0.0,0.0,0.0,0.0,0.0,0.0,0.0,0.0,0.0,0.0,0.0,0.0,0.0,0.0,0.0,0.0,0.0,0.0,0.0,0.0,0.0,-0.3981,-0.3026,-0.2092,-0.137,-0.0869,-0.0341,-0.028,-0.0838,-0.1354,-0.2067,0.0,0.0,0.0,0.0,0.0,0.0,0.0,0.0,0.0,0.0,0.0,0.0,0.0,0.0,0.0,0.0,0.0,0.0,0.0,0.0,0.0,0.0,0.0,0.0,0.0,0.0,0.0,0.0,0.0,0.0,0.0,0.0,0.0,0.0,0.0,0.0,0.0,0.0,0.0,0.0,0.0,0.0,-0.3581,-0.3205,0.0,0.0,0.0,-0.3054,-0.3247,0.0,0.0,0.0,0.0,0.0,0.0,0.0,0.0,0.0,0.0,0.0,0.0,0.0,0.0,0.0,0.0,0.0,0.0,0.0,0.0,0.0,0.0,0.0,0.0,0.0,0.0,0.0,0.0,0.0,0.0,0.0,0.0,0.0,0.0,0.0,0.0,0.0,0.0,0.0,0.0,0.0,0.0,0.0,0.0,0.0,0.0,0.0,0.0,0.0,0.0,0.0,0.0,0.0,0.0,0.0,0.0,0.0,-0.2977,-0.2092,-0.1369,-0.0865,-0.0283,-0.0279,-0.0831,-0.1242,0.0,0.0,0.0,0.0,0.0,0.0,0.0,0.0,0.0,0.0,0.0,0.0,0.0,0.0,0.0,0.0,0.0,0.0,0.0,0.0,0.0,0.0,0.0,0.0,0.0,0.0,0.0,-0.689,0.0,0.0,0.0,0.0,0.0,0.0,0.0,0.0,0.0,0.0,0.0,0.0,0.0,0.0,-0.3177,-0.2827,-0.2451,-0.2154,0.0,0.0,-0.2359,-0.263,-0.26,-0.2731,0.0,0.0,0.0,0.0,0.0,0.0,0.0,0.0,0.0,0.0,0.0,0.0,0.0,0.0,0.0,0.0,0.0,0.0,0.0,0.0,0.0,0.0,0.0,0.0,0.0,0.0,0.0,0.0,0.0,0.0,0.0,0.0,0.0,0.0,0.0,0.0,0.0,0.0,0.0,0.0,0.0,0.0,0.0,0.0,0.0,0.0,0.0,0.0,0.0,0.0,0.0,0.0,0.0,0.0,-0.3861,-0.2975,-0.2092,-0.1376,-0.0937,-0.0285,-0.0282,-0.0858,-0.1148,-0.166,0.0,0.0,0.0,0.0,0.0,0.0,0.0,0.0,0.0,0.0,0.0,0.0,0.0,0.0,0.0,0.0,0.0,0.0,0.0,0.0,0.0,0.0,0.0,0.0,0.0,0.0,0.0,0.0,0.0,0.0,0.0,0.0,0.0,0.0,0.0,0.0,0.0,0.0,0.0,0.0,0.0,-0.227,-0.1768,-0.1467,-0.1366,0.0,-0.1669,-0.182,-0.2321,-0.243,-0.248,-0.2627,0.0,0.0,0.0,0.0,0.0,0.0,0.0,0.0,0.0,0.0,0.0,0.0,0.0,0.0,0.0,0.0,0.0,0.0,0.0,0.0,0.0,0.0,0.0,0.0,0.0,0.0,0.0,0.0,0.0,0.0,0.0,0.0,0.0,0.0,0.0,0.0,0.0,0.0,0.0,0.0,0.0,0.0,0.0,0.0,0.0,0.0,0.0,0.0,0.0,0.0,0.0,0.0,0.0,-0.3855,-0.3026,-0.2092,-0.137,-0.0867,-0.0284,-0.0169,-0.0566,-0.098,-0.1566,0.0,0.0,0.0,0.0,0.0,0.0,0.0,0.0,0.0,0.0,0.0,0.0,0.0,0.0,0.0,0.0,0.0,0.0,0.0,0.0,0.0,0.0,0.0,0.0,0.0,0.0,0.0,0.0,-0.5277,-0.5146,-0.5146,0.0,0.0,0.0,0.0,0.0,0.0,0.0,0.0,0.0,0.0,-0.1363,-0.1111,-0.0714,0.0,0.0,-0.0859,-0.1107,-0.1789,-0.1885,-0.1983,-0.2296,-0.2238,0.0,0.0,0.0,0.0,0.0,0.0,0.0,0.0,0.0,0.0,0.0,0.0,0.0,0.0,0.0,0.0,0.0,0.0,0.0,0.0,0.0,0.0,0.0,0.0,0.0,0.0,0.0,0.0,0.0,0.0,0.0,0.0,0.0,0.0,0.0,0.0,0.0,0.0,0.0,0.0,0.0,0.0,0.0,0.0,0.0,0.0,0.0,0.0,0.0,0.0,0.0,0.0,-0.3831,-0.2975,-0.2092,-0.1365,-0.0919,-0.0283,-0.0112,-0.0395,-0.0875,-0.1425,0.0,0.0,0.0,0.0,0.0,0.0,0.0,0.0,0.0,0.0,0.0,0.0,0.0,0.0,0.0,0.0,0.0,0.0,0.0,0.0,0.0,0.0,0.0,0.0,0.0,0.0,0.0,0.0,-0.4627,-0.4565,-0.4565,0.0,0.0,0.0,0.0,0.0,0.0,0.0,0.0,0.0,0.0,-0.0404,-0.0303,0.0,0.0153,0.0,-0.01,-0.0398,-0.1123,-0.1184,-0.1298,-0.1806,0.0,0.0,0.0,0.0,0.0,0.0,0.0,0.0,0.0,0.0,0.0,0.0,0.0,0.0,0.0,0.0,0.0,0.0,0.0,0.0,0.0,0.0,0.0,0.0,0.0,0.0,0.0,-0.9088,0.0,0.0,-0.8812,0.0,0.0,0.0,0.0,0.0,0.0,0.0,0.0,0.0,0.0,0.0,0.0,0.0,0.0,0.0,0.0,0.0,0.0,0.0,0.0,0.0,0.0,-0.3736,-0.3025,-0.2092,-0.1365,-0.0918,-0.0339,-0.0113,-0.0401,-0.0723,-0.1128,-0.1607,0.0,0.0,0.0,0.0,0.0,0.0,0.0,0.0,0.0,0.0,0.0,0.0,0.0,0.0,0.0,0.0,0.0,0.0,0.0,0.0,0.0,0.0,0.0,0.0,0.0,0.0,-0.402,-0.381,-0.3676,0.0,0.0,0.0,0.0,0.0,0.0,0.0,0.0,0.0,-0.0763,-0.0099,0.0455,0.0707,0.0758,0.0803,0.0788,0.054,0.0195,-0.0335,-0.0424,-0.0559,0.0,0.0,0.0,0.0,0.0,0.0,0.0,0.0,0.0,0.0,0.0,0.0,0.0,0.0,0.0,0.0,0.0,0.0,0.0,0.0,0.0,0.0,0.0,0.0,0.0,0.0,0.0,-0.949,-0.9318,0.0,0.0,0.0,0.0,0.0,0.0,0.0,0.0,0.0,0.0,0.0,-0.5324,-0.503,0.0,0.0,0.0,0.0,0.0,0.0,0.0,0.0,0.0,0.0,0.0,0.0,-0.3405,-0.2771,-0.183,-0.1202,-0.0918,-0.0283,-0.0057,-0.0115,-0.039,-0.0964,-0.1784,0.0,0.0,0.0,0.0,0.0,0.0,0.0,0.0,0.0,0.0,0.0,0.0,0.0,0.0,0.0,0.0,0.0,0.0,0.0,0.0,0.0,0.0,0.0,0.0,0.0,-0.3777,0.0,0.0,0.0,0.0,0.0,0.0,0.0,0.0,0.0,0.0,0.0,-0.0429,0.0238,0.0838,0.1313,0.1564,0.1698,0.173,0.0,0.0,0.0,0.0,0.0,0.0,0.0,0.0,0.0,0.0,0.0,0.0,0.0,0.0,-0.2066,-0.2676,-0.2802,-0.2941,-0.3235,0.0,0.0,0.0,0.0,0.0,0.0,0.0,0.0,0.0,0.0,0.0,0.0,0.0,0.0,-0.9548,0.0,-0.9276,0.0,0.0,0.0,0.0,0.0,0.0,0.0,0.0,-0.6161,-0.5506,-0.4962,-0.4551,-0.4336,0.0,-0.4135,-0.446,0.0,0.0,0.0,0.0,0.0,0.0,0.0,0.0,-0.3249,-0.2696,-0.1731,-0.1089,-0.0909,-0.0338,0.0,0.0,-0.0278,-0.0862,-0.1818,-0.2468,-0.3066,0.0,0.0,0.0,0.0,0.0,0.0,0.0,0.0,0.0,0.0,0.0,0.0,0.0,0.0,0.0,0.0,0.0,0.0,0.0,0.0,0.0,0.0,0.0,-0.3148,0.0,0.0,0.0,0.0,0.0,0.0,0.0,0.0,0.0,-0.0818,-0.0188,0.0482,0.1012,0.1535,0.1964,0.22,0.0,0.0,0.0,0.0,0.0,0.0,0.0,0.0584,0.0317,0.018,0.0045,-0.0045,-0.0178,-0.0354,-0.0627,0.0,0.0,-0.2146,-0.2451,-0.2727,-0.2989,-0.3429,-0.374,-0.374,-0.4003,-0.4214,0.0,0.0,0.0,0.0,0.0,0.0,0.0,0.0,-0.9474,-0.9365,0.0,-0.9124,0.0,0.0,0.0,0.0,-0.9024,-0.8176,0.0,0.0,-0.61,-0.5362,-0.4693,-0.4224,-0.3936,-0.3873,-0.3804,-0.394,-0.4293,-0.4496,0.0,0.0,0.0,0.0,0.0,0.0,-0.3226,-0.2742,-0.1688,-0.1083,-0.084,-0.028,0.0,0.0,-0.0276,-0.0767,-0.1582,-0.1821,-0.2373,-0.3422,-0.3658,0.0,0.0,0.0,0.0,0.0,0.0,0.0,0.0,0.0,0.0,0.0,0.0,0.0,0.0,0.0,0.0,0.0,0.0,0.0,0.0,-0.255,0.0,0.0,0.0,0.0,0.0,0.0,0.0,0.0,0.0,0.0047,-0.0139,0.0671,0.1424,0.162,0.0,0.0,0.0,0.0,0.2373,0.2569,0.2179,0.1748,0.1489,0.1259,0.1086,0.0877,0.0,0.0,0.0428,0.0381,0.0285,-0.0191,-0.0286,-0.0569,-0.149,-0.2158,-0.2561,-0.261,-0.3271,-0.3762,-0.3857,-0.4207,-0.452,-1.016,0.0,0.0,0.0,0.0,-0.9964,-0.9976,-1.0134,-1.0025,-0.9958,-0.9791,-0.962,0.0,0.0,0.0,0.0,0.0,0.0,-0.7278,-0.672,-0.579,-0.5011,-0.4353,-0.3749,-0.3382,-0.3132,-0.2992,-0.3206,-0.3692,-0.3597,-0.3873,-0.458,0.0,0.0,0.0,0.0,-0.2669,-0.2225,-0.1373,-0.0813,-0.056,-0.0168,0.0,0.0,-0.0279,-0.0499,-0.0767,-0.1401,-0.1943,-0.2323,-0.2964,0.0,0.0,0.0,0.0,0.0,0.0,0.0,0.0,0.0,0.0,0.0,0.0,0.0,0.0,0.0,0.0,0.0,0.0,0.0,-0.1797,-0.1583,-0.147,0.0,0.0,0.0,0.0,0.0,0.0,0.0,0.0,0.0,0.1305,0.1609,0.1964,0.0,0.0,0.277,0.3007,0.2969,0.2883,0.2949,0.2671,0.0,0.2343,0.1968,0.1644,0.1606,0.1326,0.0997,0.0715,0.0715,0.0623,0.0485,0.0195,-0.0244,-0.0688,-0.1499,-0.2196,-0.2572,-0.3241,-0.3815,-0.3862,-0.4241,-0.4567,-1.0352,-1.0121,-1.0168,-1.0165,-1.0106,-0.9992,-0.9986,-1.0069,-1.0015,-0.9907,-0.976,-0.9659,-0.9583,-0.9537,-0.9334,0.0,0.0,0.0,-0.7212,-0.663,-0.5643,-0.4704,-0.3895,-0.3419,-0.2989,-0.2611,-0.2549,-0.2784,-0.336,-0.3152,-0.3359,-0.3876,0.0,0.0,-0.3513,-0.297,-0.252,-0.2152,-0.1255,-0.0751,-0.061,-0.0222,0.0,0.0,-0.0166,-0.0274,-0.0434,-0.1022,-0.1478,-0.1838,-0.2397,-0.2995,0.0,0.0,0.0,0.0,0.0,0.0,0.0,0.0,0.0,0.0,0.0,-0.4465,-0.4289,0.0,0.0,0.0,-0.2415,-0.1741,-0.0969,-0.0758,0.0,0.0,0.0,0.0,0.0,0.0,0.0,0.1254,0.157,0.1886,0.2284,0.2432,0.2533,0.2778,0.2906,0.302,0.3148,0.0,0.3131,0.3108,0.2879,0.2667,0.2667,0.224,0.1865,0.1784,0.1555,0.1318,0.1171,0.1123,0.1078,0.0941,0.0596,0.0149,-0.0302,-0.1041,-0.1805,-0.239,-0.3169,-0.3705,-0.3853,-0.4289,-0.4667,-1.0426,-1.0323,-1.0458,-1.0421,-1.0266,-0.9975,-0.9854,-0.9782,-0.9552,-0.9425,-0.9415,-0.9401,-0.9432,-0.9525,-0.9174,0.0,-0.9087,-0.7935,-0.7118,-0.6619,-0.5604,-0.4558,-0.3517,-0.3142,-0.275,-0.235,-0.2253,-0.2548,-0.3033,-0.3033,-0.3119,-0.3219,-0.3483,-0.3524,-0.334,-0.2821,-0.2484,-0.232,-0.1337,-0.0845,-0.0872,-0.0327,-0.0055,0.0,0.0,-0.0106,-0.0372,-0.068,-0.1087,-0.165,-0.2017,-0.2434,-0.2941,0.0,0.0,0.0,0.0,0.0,0.0,0.0,0.0,0.0,0.0,0.0,0.0,0.0,0.0,-0.286,-0.1808,0.0,-0.0364,-0.0052,0.0,0.0,0.0,0.0343,0.0964,0.1027,0.1285,0.1978,0.0,0.0,0.2788,0.3041,0.3144,0.289,0.3034,0.316,0.3105,0.3102,0.3125,0.313,0.2922,0.2729,0.2691,0.2259,0.1837,0.167,0.1598,0.1562,0.1563,0.1563,0.1464,0.1261,0.101,0.0555,-0.0202,-0.0706,-0.1313,-0.2215,-0.302,-0.3626,-0.3922,-0.437,-0.4698,-1.0578,-1.0436,-1.0515,-1.0447,-1.0315,-1.0253,-1.0122,-0.9951,-0.9893,-0.9765,-0.971,-0.9602,-0.9355,-0.9041,-0.8457,-0.8067,-0.7871,-0.6956,-0.6295,-0.5904,-0.4999,-0.4179,-0.3516,-0.3108,-0.2602,-0.2048,-0.1935,-0.2132,-0.2455,-0.2442,-0.2542,-0.275,-0.2732,-0.2803,-0.2925,-0.2424,-0.2002,-0.1818,-0.1338,-0.0892,-0.0536,-0.0371,-0.021,0.0,0.0,-0.0154,-0.0358,-0.0662,-0.096,-0.1244,-0.1768,-0.226,-0.2704,-0.3109,0.0,0.0,0.0,0.0,0.0,0.0,0.0,0.0,0.0,-0.3705,-0.3293,0.0,-0.2449,0.0,-0.0912,-0.0157,0.0159,0.0688,0.0,0.0,0.1205,0.1513,0.1871,0.1877,0.2092,0.2719,0.2834,0.2946,0.3212,0.3317,0.3315,0.3262,0.3185,0.3175,0.3161,0.3158,0.3204,0.3188,0.3133,0.3036,0.2784,0.2341,0.1896,0.1605,0.1562,0.1566,0.1566,0.1566,0.1566,0.1465,0.1111,0.0707,0.0252,-0.0252,-0.0959,-0.1917,-0.2724,-0.343,-0.3882,-0.4286,-0.4529,-1.067,-1.0595,-1.0592,-1.051,-1.0365,-1.0236,-1.0131,-1.0046,-0.9913,-0.99,-0.9815,-0.9556,-0.93,-0.9047,-0.8269,-0.7736,-0.7383,-0.648,-0.5837,-0.5293,-0.4542,-0.3871,-0.3236,-0.2844,-0.2402,-0.191,-0.1805,-0.1955,-0.2298,-0.2241,-0.235,-0.2611,-0.2402,-0.2328,-0.238,-0.2075,-0.1881,-0.1703,-0.1361,-0.0983,-0.0631,-0.057,-0.0513,-0.0359,-0.03,-0.0394,-0.0542,-0.0788,-0.098,-0.1115,-0.1551,-0.196,-0.2409,-0.2704,-0.3071,0.0,0.0,0.0,0.0,0.0,0.0,0.0,0.0,0.0,0.0,0.0,-0.2032,-0.127,-0.0366,0.0373,0.0754,0.1347,0.1725,0.1886,0.2034,0.2237,0.2504,0.2558,0.2717,0.3145,0.3199,0.3252,0.3358,0.3413,0.3401,0.3376,0.3313,0.322,0.3216,0.3199,0.318,0.318,0.318,0.3029,0.2675,0.2372,0.207,0.1667,0.1566,0.1566,0.1566,0.1566,0.1566,0.1566,0.1263,0.0859,0.0455,0.005,-0.0606,-0.1615,-0.2574,-0.333,-0.3883,-0.4237,-0.4487,-1.0707,-1.069,-1.069,-1.0605,-1.0443,-1.0105,-1.0053,-1.0105,-0.9907,-0.9778,-0.97,-0.94,-0.9217,-0.9092,-0.8113,-0.7505,-0.7141,-0.6099,-0.536,-0.474,-0.4057,-0.3417,-0.2833,-0.2521,-0.2202,-0.1879,-0.1849,-0.1949,-0.2235,-0.2204,-0.2261,-0.2454,-0.2237,-0.2058,-0.1875,-0.1855,-0.1838,-0.1768,-0.1421,-0.1116,-0.0876,-0.0861,-0.0853,-0.0801,-0.0724,-0.071,-0.0757,-0.0946,-0.1136,-0.1136,-0.1376,-0.1697,-0.2131,-0.2281,-0.2624,0.0,-0.3228,0.0,0.0,0.0,0.0,0.0,0.0,0.0,0.0,-0.229,-0.1602,-0.091,0.0,0.0766,0.1315,0.192,0.2359,0.2632,0.2707,0.2843,0.3058,0.3058,0.3165,0.3381,0.3435,0.3435,0.3427,0.3422,0.3402,0.3352,0.3275,0.3315,0.3315,0.3267,0.318,0.318,0.318,0.2978,0.2573,0.2422,0.2221,0.1768,0.1667,0.1667,0.1617,0.1566,0.1566,0.1566,0.1364,0.1061,0.0556,0.0252,-0.0353,-0.1263,-0.2272,-0.3079,-0.3731,-0.4085,-0.4437,-1.0649,-1.0538,-1.0534,-1.0453,-1.0304,-1.0065,-0.999,-0.9987,-0.9957,-0.9753,-0.9396,-0.9095,-0.8668,-0.8116,-0.7138,-0.6526,-0.6101,-0.4868,-0.4189,-0.4064,-0.3408,-0.2901,-0.2527,-0.235,-0.2144,-0.1847,-0.1818,-0.186,-0.1916,-0.1854,-0.1874,-0.1865,-0.1811,-0.1761,-0.1667,0.0,0.0,0.0,-0.151,-0.1385,-0.1141,-0.112,-0.1012,-0.0819,-0.0742,0.0,-0.0998,-0.1089,-0.118,-0.1362,-0.143,0.0,0.0,0.0,0.0,0.0,0.0,0.0,0.0,0.0,0.0,0.0,-0.276,-0.2518,-0.25,-0.1654,-0.0911,-0.0498,0.033,0.1099,0.1672,0.2233,0.2736,0.2956,0.3226,0.3442,0.3499,0.3498,0.3499,0.3555,0.3553,0.3534,0.3486,0.3481,0.3456,0.3397,0.3352,0.3271,0.3319,0.3216,0.3181,0.318,0.3079,0.2876,0.2775,0.2573,0.2321,0.2021,0.192,0.1819,0.1667,0.1617,0.1566,0.1566,0.1364,0.1162,0.1061,0.0505,-0.0151,-0.0859,-0.1465,-0.2171,-0.3179,-0.3732,-0.4135,-1.0565,-1.0487,-1.0415,-1.0304,0.0,-1.0021,-0.9943,-0.9876,-0.9876,-0.9648,-0.9278,-0.8668,-0.8116,-0.7627,-0.6589,-0.5792,-0.5116,-0.4253,-0.3744,-0.3352,-0.2903,-0.2571,-0.2355,-0.2144,-0.1947,-0.1817,-0.1803,-0.1795,-0.1795,-0.1795,-0.1772,-0.1727,-0.178,-0.1682,-0.1596,-0.1579,-0.1572,-0.1571,-0.1571,-0.1529,-0.1392,-0.1356,-0.1288,-0.1143,-0.1054,0.0,0.0,0.0,0.0,0.0,0.0,0.0,0.0,-0.2,0.0,-0.2498,-0.2721,-0.2889,-0.2967,-0.2977,-0.2898,-0.2796,-0.253,-0.2281,-0.2103,-0.1389,-0.0764,-0.0391,0.0501,0.1333,0.1961,0.2523,0.3027,0.3306,0.3475,0.3587,0.3587,0.3587,0.3587,0.3587,0.3587,0.3564,0.3504,0.3496,0.3459,0.3382,0.329,0.3259,0.323,0.32,0.3181,0.318,0.3079,0.2927,0.2826,0.2725,0.2522,0.2272,0.2071,0.1971,0.1819,0.1667,0.1566,0.1566,0.1465,0.1364,0.1212,0.096,0.0556,-0.0252,-0.1061,-0.1768,-0.2523,-0.3128,-0.3783,-1.0477,-1.0443,-1.03,-1.0148,-0.9947,-0.9947,-0.9876,-0.9697,-0.97,0.0,0.0,-0.8299,-0.7627,-0.7079,-0.6206,-0.528,-0.4297,-0.3857,-0.3401,-0.2822,-0.2454,-0.2241,-0.2186,-0.1949,-0.1819,-0.1795,-0.1795,-0.1795,-0.1795,-0.1795,-0.1779,-0.1807,-0.1804,-0.1764,-0.1633,-0.1583,-0.1582,-0.1628,-0.1642,-0.1583,-0.1607,-0.156,-0.1534,-0.1534,-0.1434,-0.1406,-0.1406,-0.1406,-0.1406,-0.1407,-0.1457,-0.1621,-0.1744,-0.1849,-0.205,-0.2337,-0.236,-0.2387,-0.2495,-0.2477,-0.2428,-0.247,-0.2235,-0.203,-0.1805,-0.1261,-0.0718,-0.0392,0.0673,0.157,0.2244,0.2747,0.325,0.3531,0.3587,0.3587,0.3587,0.3587,0.3587,0.3587,0.3587,0.3559,0.3489,0.3478,0.3437,0.3335,0.325,0.3238,0.3244,0.3183,0.318,0.318,0.318,0.313,0.2928,0.2876,0.2775,0.2522,0.2222,0.2071,0.1971,0.1768,0.1617,0.1566,0.1566,0.1516,0.1313,0.1364,0.1162,0.0252,-0.0707,-0.1515,-0.1968,-0.2573,-0.333,-1.0422,-1.03,-1.0144,-0.9992,-0.9852,-0.9856,-0.966,-0.9396,-0.94,-0.9089,-0.8477,-0.8113,-0.7263,-0.6096,-0.5589,-0.4831,-0.3924,-0.3277,-0.2783,-0.2481,-0.204,-0.1849,-0.1839,-0.1813,-0.1799,-0.1795,-0.1795,-0.1795,-0.1795,-0.1795,-0.178,-0.1809,-0.1804,-0.173,-0.1695,-0.1684,-0.1683,-0.169,-0.1612,-0.1574,-0.1577,-0.1569,-0.1565,-0.1564,-0.1531,-0.1465,-0.1466,-0.1465,-0.1513,-0.1467,-0.1547,-0.1624,-0.1647,-0.1882,-0.2075,-0.2164,-0.2374,-0.2484,-0.2504,-0.2533,-0.2462,-0.228,-0.201,-0.1833,-0.1808,-0.1274,-0.0671,-0.0112,0.0785,0.1683,0.2524,0.2915,0.325,0.3531,0.3587,0.3587,0.3587,0.3587,0.3587,0.3587,0.3587,0.3545,0.345,0.3428,0.3384,0.3227,0.3203,0.3191,0.3185,0.318,0.318,0.318,0.318,0.318,0.313,0.313,0.3029,0.2775,0.2523,0.2271,0.2071,0.1819,0.1617,0.1566,0.1566,0.1566,0.1516,0.1313,0.101,0.0455,-0.0252,-0.0959,-0.1765,-0.2321,-0.2925,-1.0337,-1.0253,-1.0025,-0.9886,-0.9758,-0.9576,-0.9271,-0.8784,-0.8601,-0.8358,-0.8052,-0.738,-0.6526,-0.5604,-0.5075,-0.4249,-0.3372,-0.2991,-0.26,-0.2094,-0.1904,-0.1774,-0.1815,-0.1801,-0.1795,-0.1795,-0.1795,-0.1795,-0.1795,-0.1795,-0.1788,-0.1774,-0.1813,-0.1797,-0.1783,-0.1712,-0.1704,-0.1703,-0.1665,-0.1636,-0.1672,-0.1605,-0.1588,-0.1572,-0.1542,-0.1478,-0.1478,-0.1478,-0.1534,-0.155,-0.1579,-0.161,-0.164,-0.1824,-0.1909,-0.1942,-0.2053,-0.2117,-0.2082,-0.2153,-0.2114,-0.1962,-0.1851,-0.1789,-0.1776,-0.1228,-0.0673,0.0,0.0953,0.1907,0.2637,0.3083,0.3419,0.3587,0.3587,0.3587,0.3587,0.3587,0.3587,0.3587,0.3587,0.3542,0.3427,0.3413,0.3367,0.3256,0.318,0.318,0.318,0.318,0.318,0.318,0.318,0.318,0.318,0.318,0.318,0.3029,0.2775,0.2523,0.2271,0.197,0.1768,0.1617,0.1566,0.1566,0.1566,0.1465,0.1162,0.0657,-0.0101,-0.0858,-0.1464,-0.232,-0.3226,-1.0196,-1.0016,-0.9749,-0.964,-0.9579,-0.9275,-0.8784,-0.8297,-0.7869,-0.7625,-0.7322,-0.6587,-0.5851,-0.5049,-0.4485,-0.3718,-0.2895,-0.2763,-0.2427,-0.1854,-0.1793,-0.1838,-0.1817,-0.1816,-0.1815,-0.1816,-0.1815,-0.1816,-0.1815,-0.1809,-0.1802,-0.1793,-0.1827,-0.1815,-0.1814,-0.1737,-0.1725,-0.1725,-0.1725,-0.1708,-0.1724,-0.1643,-0.1615,-0.1642,-0.1563,-0.1546,-0.1498,-0.1498,-0.1561,-0.164,-0.1614,-0.1643,-0.1732,-0.1702,-0.1728,-0.181,-0.1815,-0.1825,-0.1792,-0.1795,-0.1795,-0.1795,-0.1795,-0.1795,-0.1739,-0.129,-0.0729,0.0,0.1009,0.1963,0.2637,0.3139,0.3531,0.3587,0.3587,0.3587,0.3587,0.3587,0.3587,0.3587,0.3587,0.3546,0.3459,0.342,0.3362,0.3262,0.318,0.318,0.318,0.318,0.318,0.318,0.318,0.318,0.318,0.318,0.318,0.318,0.2978,0.2675,0.2423,0.2171,0.192,0.1667,0.1566,0.1566,0.1566,0.1566,0.1364,0.0808,-0.005,-0.0909,-0.1515,-0.2622,-0.3629,-0.9886,-0.9315,-0.9345,-0.9217,-0.8976,-0.8601,-0.8236,-0.7869,-0.7258,-0.6648,-0.6101,-0.5978,-0.5239,-0.412,-0.3955,-0.3384,-0.2468,-0.2377,-0.2182,-0.1881,-0.1881,-0.188,-0.1874,-0.1875,-0.1877,-0.1875,-0.1874,-0.1871,-0.1871,-0.1848,-0.1822,-0.1798,-0.1792,-0.1791,-0.1789,-0.1787,-0.1785,-0.1786,-0.1787,-0.1759,-0.1703,-0.1673,-0.1656,-0.1705,-0.1624,-0.1609,-0.1605,-0.1608,-0.1622,-0.1702,-0.1707,-0.1736,-0.1787,-0.1799,-0.1814,-0.1788,-0.179,-0.1793,-0.1795,-0.1795,-0.1795,-0.1795,-0.1795,-0.1795,-0.1795,-0.1458,-0.0897,-0.0056,0.0841,0.1683,0.2581,0.2971,0.3306,0.3587,0.3587,0.3587,0.3587,0.3587,0.3587,0.3587,0.3587,0.3561,0.3493,0.3441,0.3365,0.3207,0.3192,0.3237,0.318,0.318,0.318,0.318,0.318,0.318,0.318,0.318,0.318,0.318,0.2978,0.2725,0.2473,0.2222,0.192,0.1768,0.1617,0.1617,0.1566,0.1566,0.1415,0.0859,-0.005,-0.106,-0.2069,-0.2976,-0.363,-0.9494,-0.9109,-0.9093,-0.879,-0.8302,-0.7744,-0.7197,-0.6709,-0.6217,-0.5544,-0.4745,-0.4745,-0.4375,-0.388,-0.3554,-0.298,-0.2409,-0.2395,-0.2198,-0.1887,-0.1885,-0.1885,-0.1885,-0.1885,-0.1885,-0.1885,-0.1885,-0.1885,-0.1883,-0.1872,-0.1851,-0.1824,-0.1821,-0.1813,-0.1796,-0.1795,-0.1795,-0.1795,-0.1795,-0.1782,-0.1759,-0.1783,-0.175,-0.1717,-0.1701,-0.1635,-0.1619,-0.1566,-0.163,-0.1712,-0.1714,-0.1741,-0.1802,-0.1804,-0.1818,-0.1791,-0.1795,-0.1795,-0.1795,-0.1795,-0.1795,-0.1795,-0.1795,-0.1795,-0.1795,-0.1458,-0.1009,-0.028,0.0561,0.1458,0.23,0.2802,0.325,0.3531,0.3587,0.3587,0.3587,0.3587,0.3587,0.3587,0.3587,0.3564,0.3504,0.3447,0.3379,0.3251,0.3283,0.3271,0.324,0.318,0.318,0.318,0.318,0.318,0.318,0.318,0.318,0.318,0.313,0.2927,0.2675,0.2423,0.2171,0.1869,0.1718,0.1617,0.1566,0.1566,0.1415,0.0758,-0.005,-0.1111,-0.217,-0.2925,-0.343,-0.8775,-0.8505,-0.8404,-0.7997,-0.7444,-0.6891,-0.628,-0.573,-0.5237,-0.4559,-0.3943,-0.3635,-0.3512,-0.3452,-0.3022,-0.2636,-0.2308,-0.2305,-0.2172,-0.1912,-0.1911,-0.1911,-0.1911,-0.1911,-0.1911,-0.1911,-0.1911,-0.1907,-0.1899,-0.1898,-0.1883,-0.1856,-0.1787,-0.1829,-0.1809,-0.1801,-0.1795,-0.1795,-0.1795,-0.1795,-0.1791,-0.1774,-0.1788,-0.1732,-0.1719,-0.1648,-0.1568,-0.1566,-0.1631,-0.1712,-0.1714,-0.1742,-0.1799,-0.1804,-0.1818,-0.1791,-0.1795,-0.1795,-0.1795,-0.1795,-0.1795,-0.1795,-0.1795,-0.1795,-0.1739,-0.157,-0.1234,-0.0673,0.0056,0.0953,0.1963,0.2523,0.3026,0.3418,0.3531,0.3587,0.3587,0.3587,0.3587,0.3587,0.3587,0.3564,0.3507,0.3459,0.341,0.3337,0.3318,0.3298,0.3247,0.318,0.318,0.318,0.318,0.318,0.318,0.318,0.318,0.318,0.318,0.3079,0.2876,0.2624,0.2372,0.2021,0.1819,0.1667,0.1617,0.1566,0.1313,0.0657,-0.0202,-0.1111,-0.2068,-0.2725,-0.333,-0.7783,-0.7104,-0.7028,-0.6837,-0.6464,-0.6037,-0.573,-0.5298,-0.4375,-0.3943,-0.3698,-0.2959,-0.259,-0.259,-0.2529,-0.2344,-0.2035,-0.2034,-0.2032,-0.2029,-0.203,-0.1971,-0.2034,-0.2034,-0.2032,-0.2027,-0.2025,-0.1953,-0.193,-0.1869,-0.1913,-0.1884,-0.1859,-0.1784,-0.1776,-0.181,-0.1795,-0.1795,-0.1795,-0.1795,-0.1795,-0.1793,-0.1763,-0.1707,-0.173,-0.1653,-0.1624,-0.1568,-0.1632,-0.1714,-0.1717,-0.1743,-0.1797,-0.1806,-0.1821,-0.1791,-0.1795,-0.1795,-0.1795,-0.1795,-0.1795,-0.1795,-0.1795,-0.1795,-0.1795,-0.1739,-0.157,-0.129,-0.0673,0.0224,0.1458,0.2019,0.2523,0.3025,0.3362,0.3531,0.3587,0.3587,0.3587,0.3587,0.3587,0.3565,0.3508,0.3496,0.344,0.3362,0.3272,0.325,0.3197,0.318,0.318,0.318,0.318,0.318,0.318,0.318,0.318,0.318,0.318,0.313,0.2927,0.2725,0.2474,0.2223,0.2021,0.1869,0.1667,0.1364,0.101,0.0455,-0.0252,-0.1111,-0.1967,-0.2675,-0.333,-0.7149,-0.6591,-0.6346,-0.6099,-0.5667,-0.4928,-0.4559,-0.4375,-0.3637,-0.3207,-0.2959,-0.2651,-0.2406,-0.216,-0.216,-0.2099,-0.2038,-0.2038,-0.2038,-0.2038,-0.2038,-0.2038,-0.2038,-0.2038,-0.2038,-0.2038,-0.2038,-0.1971,-0.1962,-0.196,-0.1945,-0.1919,-0.1844,-0.1822,-0.1788,-0.1772,-0.1815,-0.1797,-0.1795,-0.1795,-0.1795,-0.1795,-0.1775,-0.1791,-0.1778,-0.1704,-0.1674,-0.1673,-0.1678,-0.1688,-0.1689,-0.1707,-0.18,-0.1823,-0.1783,-0.1793,-0.1795,-0.1795,-0.1795,-0.1795,-0.1795,-0.1795,-0.1795,-0.1795,-0.1795,-0.1795,-0.1683,-0.1346,-0.1121,-0.0504,0.028,0.129,0.2075,0.2523,0.297,0.325,0.3306,0.3475,0.3587,0.3587,0.3587,0.3576,0.356,0.3555,0.3508,0.3406,0.3379,0.3332,0.3207,0.318,0.318,0.318,0.318,0.318,0.318,0.318,0.318,0.318,0.318,0.318,0.3079,0.2876,0.2625,0.2322,0.2171,0.192,0.1718,0.1263,0.0859,0.0455,-0.0252,-0.106,-0.1866,-0.2573,-0.3279,-0.6237,-0.5925,-0.5671,-0.5302,-0.4867,-0.4189,-0.376,-0.3576,-0.3083,-0.2714,-0.2529,-0.2406,-0.2222,-0.2038,-0.2038,-0.2038,-0.2038,-0.2038,-0.2038,-0.2038,-0.2038,-0.2038,-0.2038,-0.2038,-0.2038,-0.2038,-0.2038,-0.2038,-0.2038,-0.2038,-0.1966,-0.1946,-0.1876,-0.1911,-0.1816,-0.186,-0.184,-0.1815,-0.181,-0.1806,-0.1797,-0.1795,-0.1785,-0.1823,-0.182,-0.1744,-0.1707,-0.1704,-0.1704,-0.1704,-0.1704,-0.1718,-0.1803,-0.1778,-0.1795,-0.1795,-0.1795,-0.1795,-0.1795,-0.1795,-0.1795,-0.1795,-0.1795,-0.1795,-0.1795,-0.1795,-0.1683,-0.1514,-0.1346,-0.1121,-0.0617,0.0392,0.129,0.1851,0.2466,0.2858,0.2971,0.325,0.3475,0.3587,0.3587,0.3587,0.3587,0.3586,0.353,0.3428,0.3412,0.3362,0.3262,0.318,0.318,0.318,0.318,0.318,0.318,0.318,0.318,0.318,0.318,0.318,0.318,0.3029,0.2775,0.2472,0.2221,0.1969,0.1617,0.1162,0.0758,0.0404,-0.0252,-0.106,-0.1817,-0.2522,-0.3179,-0.5005,-0.4943,-0.4875,-0.4567,-0.4006,-0.3883,-0.3515,-0.3022,-0.2653,-0.2467,-0.2406,-0.216,-0.2038,-0.2038,-0.2038,-0.2038,-0.2038,-0.2038,-0.2038,-0.2038,-0.2038,-0.2038,-0.2038,-0.2038,-0.2038,-0.2038,-0.2038,-0.2038,-0.2038,-0.2038,-0.1975,-0.197,-0.1947,-0.1932,-0.1868,-0.1898,-0.1871,-0.1847,-0.1781,-0.1825,-0.18,-0.1796,-0.1793,-0.1792,-0.1791,-0.1766,-0.1712,-0.171,-0.1713,-0.1711,-0.171,-0.172,-0.1807,-0.178,-0.1795,-0.1795,-0.1795,-0.1795,-0.1795,-0.1795,-0.1795,-0.1795,-0.1795,-0.1795,-0.1795,-0.1795,-0.1795,-0.1739,-0.157,-0.1346,-0.129,-0.0729,0.0112,0.1121,0.1794,0.23,0.2636,0.2915,0.325,0.3531,0.3587,0.3587,0.3587,0.3578,0.3529,0.3444,0.3402,0.3361,0.3256,0.318,0.318,0.318,0.318,0.318,0.318,0.318,0.318,0.318,0.318,0.318,0.318,0.3079,0.2826,0.2522,0.217,0.1919,0.1667,0.1212,0.0758,0.0353,-0.0353,-0.106,-0.1766,-0.2472,-0.2978,-0.4886,-0.4638,-0.4635,-0.4234,-0.3642,-0.3391,-0.3022,-0.2652,-0.2284,-0.2161,-0.2099,-0.2038,-0.2038,-0.2038,-0.2038,-0.2038,-0.2038,-0.2038,-0.2038,-0.2038,-0.2038,-0.2038,-0.2038,-0.2038,-0.2038,-0.2038,-0.2038,-0.2038,-0.2038,-0.2038,-0.2038,-0.1974,-0.1967,-0.1951,-0.1872,-0.1921,-0.1902,-0.1872,-0.1851,-0.1778,-0.1824,-0.1806,-0.1795,-0.1795,-0.1795,-0.1784,-0.1768,-0.1767,-0.1766,-0.1765,-0.1767,-0.1772,-0.1781,-0.179,-0.1795,-0.1795,-0.1795,-0.1795,-0.1795,-0.1795,-0.1795,-0.1795,-0.1795,-0.1795,-0.1795,-0.1795,-0.1907,-0.2019,-0.1963,-0.2019,-0.2076,-0.1739,-0.0841,0.028,0.1121,0.1739,0.2131,0.269,0.3194,0.3531,0.3587,0.3587,0.3579,0.356,0.3499,0.3428,0.338,0.3319,0.3204,0.318,0.318,0.318,0.318,0.318,0.318,0.318,0.318,0.318,0.318,0.318,0.318,0.318,0.2876,0.2523,0.217,0.1868,0.1566,0.1162,0.0707,0.0252,-0.0353,-0.111,-0.1816,-0.2422,-0.2978,-0.4573,-0.4326,-0.4325,-0.3974,-0.3362,-0.3111,-0.2729,-0.2346,-0.21,-0.2038,-0.2038,-0.2038,-0.2038,-0.2038,-0.2038,-0.2038,-0.2038,-0.2038,-0.2038,-0.2038,-0.2038,-0.2038,-0.2038,-0.2038,-0.2038,-0.2038,-0.2038,-0.2038,-0.2038,-0.2038,-0.2038,-0.2038,-0.2038,-0.1968,-0.1949,-0.1947,-0.1933,-0.1904,-0.1884,-0.1805,-0.1784,-0.1822,-0.1806,-0.1797,-0.1795,-0.1795,-0.1795,-0.1795,-0.1795,-0.1795,-0.1795,-0.1795,-0.1795,-0.1795,-0.1795,-0.1795,-0.1795,-0.1795,-0.1795,-0.1795,-0.1795,-0.1795,-0.1795,-0.1795,-0.1795,-0.1851,-0.2019,-0.2188,-0.23,-0.2412,-0.2412,-0.2188,-0.1514,-0.0617,0.028,0.1065,0.1683,0.2467,0.3027,0.3307,0.3531,0.3587,0.3575,0.3534,0.3476,0.342,0.336,0.3248,0.32,0.3181,0.318,0.318,0.318,0.318,0.318,0.318,0.318,0.318,0.318,0.318,0.318,0.318,0.3029,0.2473,0.207,0.1716,0.1414,0.096,0.0505,0.0,-0.0555,-0.1313,-0.207,-0.2472,-0.2927,-0.4185,-0.4068,-0.4131,-0.3713,-0.316,-0.3091,-0.2692,-0.2106,-0.2038,-0.2038,-0.2038,-0.2038,-0.2038,-0.2038,-0.2038,-0.2038,-0.2038,-0.2038,-0.2038,-0.2038,-0.2038,-0.2038,-0.2038,-0.2038,-0.2038,-0.2038,-0.2038,-0.2038,-0.2038,-0.2038,-0.2038,-0.2038,-0.2038,-0.2038,-0.1973,-0.1975,-0.196,-0.1937,-0.1929,-0.1898,-0.1795,-0.1782,-0.1827,-0.1801,-0.1797,-0.1795,-0.1795,-0.1795,-0.1795,-0.1795,-0.1795,-0.1795,-0.1795,-0.1795,-0.1795,-0.1795,-0.1795,-0.1795,-0.1795,-0.1795,-0.1795,-0.1795,-0.1795,-0.1795,-0.1795,-0.1963,-0.2132,-0.2188,-0.2412,-0.2524,-0.23,-0.2188,-0.1851,-0.129,-0.028,0.0617,0.1627,0.23,0.2748,0.3082,0.3362,0.3583,0.3575,0.3521,0.3463,0.3406,0.3294,0.3234,0.32,0.318,0.318,0.318,0.318,0.318,0.318,0.318,0.318,0.318,0.313,0.3079,0.3029,0.2978,0.2827,0.2322,0.1868,0.1515,0.1111,0.0657,0.0151,-0.0404,-0.101,-0.1717,-0.2222,-0.2624,-0.2876,-0.4248,-0.4194,-0.4194,-0.377,-0.3141,-0.3108,-0.2709,-0.2067,-0.1985,-0.2041,-0.2039,-0.2038,-0.2039,-0.2039,-0.204,-0.2038,-0.2043,-0.2041,-0.2038,-0.2038,-0.2038,-0.2038,-0.2038,-0.2038,-0.2038,-0.2038,-0.2038,-0.2038,-0.2038,-0.2038,-0.2038,-0.2038,-0.2038,-0.2038,-0.2038,-0.2038,-0.1973,-0.1962,-0.1941,-0.1865,-0.1844,-0.1803,-0.178,-0.1828,-0.1808,-0.1796,-0.1795,-0.1795,-0.1795,-0.1795,-0.1795,-0.1795,-0.1795,-0.1795,-0.1795,-0.1795,-0.1795,-0.1795,-0.1795,-0.1795,-0.1795,-0.1795,-0.1795,-0.1795,-0.1795,-0.1851,-0.2019,-0.2132,-0.23,-0.2412,-0.2468,-0.23,-0.1795,-0.1065,-0.0224,0.0673,0.1514,0.2131,0.2523,0.3026,0.3138,0.329,0.3472,0.3476,0.3418,0.3358,0.3303,0.3205,0.3187,0.318,0.318,0.318,0.318,0.318,0.318,0.318,0.318,0.318,0.3029,0.2826,0.2676,0.2524,0.2223,0.1819,0.1464,0.1162,0.0707,0.0303,-0.0252,-0.0859,-0.1364,-0.1969,-0.2423,-0.2826,-0.2927,-0.4353,-0.4451,-0.432,-0.3826,-0.319,-0.3163,-0.2691,-0.216,-0.2007,-0.1994,-0.1992,-0.2043,-0.1984,-0.1993,-0.1994,-0.2002,-0.2012,-0.2013,-0.2014,-0.2014,-0.2016,-0.2001,-0.1984,-0.2038,-0.2038,-0.2038,-0.2039,-0.2038,-0.2038,-0.2038,-0.2038,-0.2038,-0.2038,-0.2038,-0.2038,-0.2038,-0.2038,-0.1973,-0.1958,-0.1945,-0.1867,-0.1898,-0.1806,-0.1788,-0.1821,-0.181,-0.1797,-0.1795,-0.1795,-0.1795,-0.1795,-0.1795,-0.1795,-0.1795,-0.1795,-0.1795,-0.1795,-0.1795,-0.1795,-0.1795,-0.1795,-0.1795,-0.1795,-0.1795,-0.1851,-0.1907,-0.2075,-0.2188,-0.23,-0.2356,-0.2188,-0.1795,-0.1177,-0.0561,0.0168,0.0841,0.1402,0.1851,0.2299,0.2634,0.2856,0.3009,0.3287,0.3287,0.3283,0.3279,0.3275,0.3197,0.318,0.318,0.318,0.318,0.318,0.318,0.318,0.318,0.3029,0.2978,0.2575,0.2423,0.2221,0.1969,0.1717,0.1364,0.1061,0.0707,0.0202,-0.0252,-0.0758,-0.1263,-0.1717,-0.2171,-0.2624,-0.2978,-0.3079,-0.4507,-0.4772,-0.444,-0.3876,-0.324,-0.3167,-0.2743,-0.2195,-0.2036,-0.2024,-0.2019,-0.1997,-0.2005,-0.2023,-0.2024,-0.2037,-0.2124,-0.2119,-0.2123,-0.2121,-0.2117,-0.2035,-0.2062,-0.206,-0.1992,-0.1987,-0.2043,-0.2041,-0.204,-0.2038,-0.2038,-0.2038,-0.2038,-0.2038,-0.2038,-0.2038,-0.2038,-0.2038,-0.2036,-0.1961,-0.1943,-0.1926,-0.19,-0.1807,-0.1784,-0.1821,-0.1802,-0.1795,-0.1795,-0.1795,-0.1795,-0.1795,-0.1795,-0.1795,-0.1795,-0.1795,-0.1795,-0.1795,-0.1795,-0.1795,-0.1795,-0.1795,-0.1795,-0.1739,-0.1739,-0.1851,-0.1963,-0.1907,-0.23,-0.2075,-0.1627,-0.0841,-0.0392,0.0056,0.0561,0.0897,0.1065,0.1683,0.2188,0.2188,0.2468,0.2727,0.2955,0.3014,0.3016,0.3093,0.3101,0.3139,0.318,0.318,0.318,0.318,0.318,0.318,0.318,0.318,0.2928,0.2726,0.207,0.1717,0.1514,0.1313,0.1162,0.0859,0.0455,0.0,-0.0505,-0.0909,-0.1364,-0.1818,-0.2372,-0.2675,-0.2927,-0.318,-0.3332,-0.4507,-0.4772,-0.4441,-0.3896,-0.3278,-0.3179,-0.2765,-0.2097,-0.2067,-0.2054,-0.2052,-0.2111,-0.2112,-0.2054,-0.2054,-0.2059,-0.2133,-0.2134,-0.2129,-0.2129,-0.2129,-0.2124,-0.2109,-0.2109,-0.2031,-0.2016,-0.2009,-0.1998,-0.1984,-0.2042,-0.2038,-0.2038,-0.2038,-0.2038,-0.2038,-0.2038,-0.2038,-0.2038,-0.2038,-0.1974,-0.1962,-0.1943,-0.1926,-0.1844,-0.1805,-0.1825,-0.1802,-0.1795,-0.1795,-0.1795,-0.1795,-0.1795,-0.1795,-0.1795,-0.1795,-0.1795,-0.1795,-0.1795,-0.1795,-0.1795,-0.1795,-0.1739,-0.1739,-0.1683,-0.1402,-0.1458,-0.1402,-0.1234,-0.1234,-0.1121,-0.0785,-0.0168,0.0224,0.0448,0.0841,0.1234,0.129,0.1627,0.1963,0.2132,0.2242,0.2386,0.2642,0.268,0.2734,0.2866,0.2939,0.298,0.3079,0.318,0.318,0.318,0.318,0.318,0.313,0.3029,0.2574,0.217,0.1515,0.096,0.0757,0.0454,0.0202,0.0,-0.0252,-0.0707,-0.1212,-0.1615,-0.2019,-0.2523,-0.2927,-0.313,-0.3281,-0.3433,-0.3383,-0.4507,-0.4772,-0.4441,-0.3901,-0.3291,-0.3205,-0.2795,-0.2257,-0.2099,-0.2085,-0.2082,-0.2137,-0.2137,-0.2085,-0.2086,-0.2091,-0.217,-0.2172,-0.2173,-0.2174,-0.2173,-0.2173,-0.2172,-0.2167,-0.2151,-0.2048,-0.204,-0.2024,-0.2003,-0.1994,-0.1991,-0.2039,-0.2038,-0.2038,-0.2038,-0.2038,-0.2038,-0.2038,-0.2038,-0.2038,-0.1973,-0.1962,-0.1942,-0.1863,-0.1816,-0.1773,-0.1819,-0.1801,-0.1796,-0.1795,-0.1795,-0.1795,-0.1795,-0.1795,-0.1795,-0.1795,-0.1795,-0.1795,-0.1795,-0.1683,-0.157,-0.157,-0.1458,-0.1177,-0.1009,-0.0897,-0.0729,-0.0561,-0.0448,-0.0392,-0.0056,0.0504,0.0785,0.0897,0.1234,0.1514,0.157,0.1683,0.1851,0.1963,0.2019,0.2147,0.2271,0.235,0.246,0.2601,0.2632,0.2675,0.2876,0.2978,0.3079,0.313,0.318,0.318,0.3079,0.2775,0.2221,0.1565,0.0808,0.0252,-0.0151,-0.0454,-0.0808,-0.0959,-0.106,-0.1413,-0.1867,-0.227,-0.2623,-0.2927,-0.3229,-0.3482,-0.3583,-0.3584,-0.3433,-0.4507,-0.4772,-0.4441,-0.3901,-0.3295,-0.3227,-0.2823,-0.2216,-0.2128,-0.2116,-0.2112,-0.2088,-0.2099,-0.2112,-0.2116,-0.2132,-0.2213,-0.2217,-0.2209,-0.2199,-0.2209,-0.2204,-0.2138,-0.2136,-0.2192,-0.2145,-0.2073,-0.2054,-0.2032,-0.2019,-0.2005,-0.1987,-0.2038,-0.2038,-0.2038,-0.2038,-0.2038,-0.2038,-0.2038,-0.2038,-0.2038,-0.1973,-0.1959,-0.1926,-0.1833,-0.1799,-0.1844,-0.1823,-0.1804,-0.1802,-0.1797,-0.1795,-0.1795,-0.1795,-0.1795,-0.1795,-0.1795,-0.1739,-0.1627,-0.1458,-0.129,-0.1177,-0.0953,-0.0673,-0.0392,-0.028,-0.0112,0.0056,0.0224,0.0336,0.0561,0.1009,0.129,0.1402,0.1627,0.1795,0.1795,0.1795,0.1795,0.1795,0.1848,0.1988,0.2002,0.2075,0.2184,0.2295,0.2331,0.2422,0.2675,0.2826,0.2978,0.313,0.318,0.2978,0.2876,0.2271,0.1716,0.1009,0.0202,-0.0404,-0.0959,-0.1464,-0.1766,-0.1766,-0.1917,-0.222,-0.2572,-0.2976,-0.3229,-0.338,-0.3583,-0.3835,-0.3835,-0.3684,-0.3482,-0.4507,-0.4774,-0.4441,-0.3901,-0.3295,-0.3228,-0.2826,-0.2289,-0.2148,-0.2147,-0.2212,-0.2208,-0.2204,-0.2212,-0.2213,-0.2218,-0.2218,-0.2213,-0.2136,-0.2125,-0.2202,-0.2138,-0.2127,-0.214,-0.221,-0.2203,-0.2115,-0.2086,-0.2056,-0.2032,-0.2022,-0.2009,-0.199,-0.2042,-0.2039,-0.2038,-0.2038,-0.2038,-0.2038,-0.2038,-0.2038,-0.2037,-0.1965,-0.1937,-0.1915,-0.1839,-0.1875,-0.1851,-0.1776,-0.1774,-0.1808,-0.1798,-0.1797,-0.1797,-0.1795,-0.1795,-0.1739,-0.1627,-0.1458,-0.129,-0.1009,-0.0673,-0.0448,-0.0168,0.0168,0.0336,0.0561,0.0729,0.0953,0.1065,0.1177,0.1458,0.1627,0.1739,0.1739,0.1795,0.1795,0.1795,0.1795,0.1795,0.1789,0.1774,0.1841,0.1856,0.1928,0.2048,0.2076,0.2271,0.2574,0.2725,0.2876,0.3029,0.318,0.2876,0.2573,0.1817,0.1161,0.0454,-0.0303,-0.101,-0.1666,-0.2423,-0.2775,-0.2623,-0.2724,-0.2976,-0.3328,-0.3632,-0.3783,-0.3885,-0.4086,-0.4237,-0.4036,-0.3784,-0.3583,-0.4374,-0.4507,-0.4171,-0.3699,-0.3228,-0.3027,-0.2692,-0.2222,-0.2222,-0.2222,-0.2222,-0.2222,-0.2222,-0.2222,-0.2222,-0.2215,-0.2131,-0.2112,-0.2099,-0.2091,-0.21,-0.2112,-0.2107,-0.2126,-0.2141,-0.2146,-0.2137,-0.2116,-0.2089,-0.2074,-0.2048,-0.202,-0.2003,-0.1992,-0.2041,-0.2038,-0.2038,-0.2038,-0.2038,-0.2038,-0.2038,-0.2038,-0.1967,-0.1957,-0.1939,-0.1924,-0.1909,-0.188,-0.1865,-0.1858,-0.1835,-0.1822,-0.1814,-0.1804,-0.1795,-0.1739,-0.1627,-0.1458,-0.1177,-0.0953,-0.0448,-0.0224,0.0168,0.0673,0.1009,0.129,0.1346,0.1514,0.1458,0.157,0.157,0.1683,0.1795,0.1795,0.1795,0.1795,0.1795,0.1795,0.1795,0.1795,0.1792,0.177,0.1722,0.1745,0.1722,0.175,0.1774,0.2071,0.2424,0.2524,0.2675,0.2675,0.2775,0.2372,0.1968,0.1212,0.0505,-0.0151,-0.0858,-0.1565,-0.217,-0.2876,-0.3279,-0.3379,-0.353,-0.3681,-0.3781,-0.3932,-0.4185,-0.4388,-0.4437,-0.4437,-0.4135,-0.3883,-0.3682,-0.4172,-0.4171,-0.3834,-0.3432,-0.3096,-0.2828,-0.2492,-0.2223,-0.2222,-0.2222,-0.2222,-0.2222,-0.2218,-0.2211,-0.2202,-0.2187,-0.2097,-0.2075,-0.2065,-0.2058,-0.2067,-0.208,-0.2094,-0.211,-0.2126,-0.2219,-0.2219,-0.2142,-0.2121,-0.2106,-0.2078,-0.205,-0.2031,-0.2009,-0.1991,-0.2043,-0.2041,-0.2038,-0.2038,-0.2038,-0.2038,-0.2038,-0.2038,-0.2038,-0.1953,-0.1941,-0.1937,-0.1911,-0.1897,-0.1887,-0.1868,-0.1788,-0.1722,-0.1704,-0.1633,-0.1516,-0.1346,-0.1234,-0.0841,-0.0392,0.0112,0.0504,0.1065,0.157,0.1907,0.2075,0.2188,0.2188,0.2019,0.1795,0.1739,0.1795,0.1795,0.1795,0.1795,0.1795,0.1795,0.1795,0.1795,0.1795,0.1795,0.1772,0.1731,0.17,0.1733,0.1705,0.173,0.182,0.2122,0.2272,0.2323,0.227,0.217,0.1817,0.1262,0.0555,-0.0101,-0.0808,-0.1464,-0.217,-0.2725,-0.3229,-0.353,-0.3781,-0.4081,-0.4182,-0.4234,-0.4234,-0.4437,-0.4587,-0.4686,-0.4636,-0.4286,-0.4034,-0.3783,-0.3834,-0.3834,-0.343,-0.3095,-0.276,-0.2694,-0.2492,-0.2222,-0.2222,-0.2222,-0.2218,-0.2219,-0.2138,-0.2114,-0.2152,-0.2139,-0.2132,-0.2059,-0.2043,-0.2029,-0.2044,-0.2124,-0.2075,-0.2099,-0.2124,-0.2216,-0.2222,-0.2221,-0.2141,-0.2122,-0.2108,-0.2086,-0.2047,-0.2015,-0.2007,-0.1992,-0.2039,-0.2039,-0.2038,-0.2038,-0.2038,-0.2038,-0.2038,-0.1975,-0.1971,-0.1967,-0.1962,-0.194,-0.1927,-0.1862,-0.1897,-0.1752,-0.15,-0.1436,-0.108,-0.0902,-0.0897,-0.0953,-0.028,0.0224,0.0785,0.129,0.1907,0.2244,0.2524,0.2581,0.2525,0.2188,0.2132,0.2019,0.1851,0.1795,0.1795,0.1795,0.1795,0.1795,0.1795,0.1795,0.1795,0.1795,0.1795,0.1779,0.1805,0.1721,0.1692,0.1662,0.1688,0.1777,0.1819,0.192,0.202,0.1969,0.1514,0.1111,0.0656,-0.005,-0.0808,-0.1465,-0.207,-0.2725,-0.3177,-0.3581,-0.3783,-0.4085,-0.4384,-0.4583,-0.4533,-0.4583,-0.4686,-0.4736,-0.4784,-0.4636,-0.4437,-0.4185,-0.3882,-0.3297,-0.3432,-0.3096,-0.2827,-0.2694,-0.2492,-0.2357,-0.2222,-0.2222,-0.2145,-0.2131,-0.2129,-0.2112,-0.2082,-0.2052,-0.2039,-0.2035,-0.2024,-0.2009,-0.1999,-0.2012,-0.2098,-0.2126,-0.208,-0.2106,-0.2213,-0.2222,-0.2222,-0.2148,-0.2142,-0.2129,-0.2107,-0.2082,-0.205,-0.2027,-0.2008,-0.1992,-0.2044,-0.2038,-0.2038,-0.2038,-0.2038,-0.2038,-0.2038,-0.2038,-0.2038,-0.1973,-0.1967,-0.1956,-0.189,-0.1747,-0.1541,-0.1343,-0.104,-0.0628,-0.0281,-0.0056,0.0168,0.0504,0.0953,0.1458,0.1963,0.2467,0.2859,0.3085,0.3029,0.2859,0.2746,0.2411,0.2188,0.2019,0.1907,0.1795,0.1795,0.1795,0.1795,0.1795,0.1795,0.1795,0.1795,0.1793,0.1781,0.1763,0.1727,0.1697,0.1669,0.1641,0.1673,0.1617,0.1566,0.1667,0.1767,0.1111,0.0454,-0.005,-0.0657,-0.1464,-0.2121,-0.2524,-0.3128,-0.353,-0.3883,-0.4085,-0.4286,-0.4535,-0.4684,-0.4784,-0.4784,-0.4784,-0.4784,-0.4784,-0.4636,-0.4487,-0.4185,-0.3883,-0.2673,-0.2865,-0.2685,-0.2554,-0.2545,-0.2277,-0.2204,-0.2198,-0.2196,-0.2118,-0.2101,-0.2089,-0.2072,-0.205,-0.2023,-0.2008,-0.2007,-0.1986,-0.2041,-0.2038,-0.2046,-0.2014,-0.2113,-0.2135,-0.2163,-0.2221,-0.2222,-0.2222,-0.2222,-0.2218,-0.2207,-0.2121,-0.2108,-0.2085,-0.205,-0.2023,-0.2003,-0.2041,-0.2038,-0.2038,-0.2038,-0.2038,-0.2038,-0.2038,-0.2038,-0.2038,-0.1977,-0.1852,-0.1851,-0.1785,-0.1344,-0.1083,-0.0885,-0.0349,0.0115,0.0565,0.0897,0.129,0.1514,0.185,0.2131,0.2467,0.2859,0.3251,0.3475,0.3362,0.3138,0.3025,0.2636,0.2356,0.2188,0.1963,0.1851,0.1795,0.1795,0.1795,0.1795,0.1795,0.1795,0.1795,0.1795,0.1795,0.1771,0.1732,0.1701,0.1675,0.1649,0.1572,0.1465,0.1313,0.1212,0.1262,0.0606,-0.0151,-0.0758,-0.1364,-0.2121,-0.2675,-0.313,-0.3432,-0.3831,-0.4085,-0.4288,-0.4487,-0.4636,-0.4734,-0.4784,-0.4782,-0.4782,-0.4782,-0.4784,-0.4734,-0.4535,-0.4234,-0.3885,-0.2161,-0.2204,-0.2197,-0.2203,-0.2178,-0.2112,-0.2097,-0.2144,-0.214,-0.2138,-0.2064,-0.204,-0.2027,-0.2016,-0.1999,-0.1984,-0.2043,-0.2039,-0.2038,-0.2038,-0.2044,-0.2012,-0.211,-0.2137,-0.2159,-0.2213,-0.2222,-0.2222,-0.2222,-0.2222,-0.222,-0.2216,-0.2127,-0.2112,-0.2083,-0.2046,-0.2012,-0.1989,-0.2045,-0.2041,-0.204,-0.2038,-0.2038,-0.2038,-0.2038,-0.2038,-0.1977,-0.1668,-0.1482,-0.1482,-0.0862,-0.0425,-0.0119,0.0412,0.0925,0.1418,0.1796,0.2188,0.2522,0.2522,0.2748,0.3027,0.3306,0.3531,0.3587,0.3587,0.3419,0.3194,0.2861,0.2525,0.23,0.1963,0.1907,0.1795,0.1795,0.1795,0.1795,0.1795,0.1795,0.1795,0.1795,0.1851,0.1894,0.1854,0.1715,0.169,0.1644,0.1566,0.1414,0.1212,0.0859,0.0606,0.0,-0.0657,-0.1414,-0.207,-0.2675,-0.3128,-0.3581,-0.3783,-0.4033,-0.4236,-0.4489,-0.4537,-0.4684,-0.4734,-0.4782,-0.4782,-0.4782,-0.4782,-0.4784,-0.4684,-0.4535,-0.4234,-0.3935,-0.2075,-0.2131,-0.209,-0.2092,-0.2081,-0.2082,-0.2075,-0.213,-0.2128,-0.2116,-0.2035,-0.2007,-0.1993,-0.1989,-0.1985,-0.2038,-0.2038,-0.2038,-0.2038,-0.2038,-0.2046,-0.2012,-0.2109,-0.2138,-0.216,-0.221,-0.2222,-0.2222,-0.2222,-0.2222,-0.2222,-0.2216,-0.2206,-0.2125,-0.2099,-0.2069,-0.2034,-0.2009,-0.2,-0.1996,-0.204,-0.2038,-0.2038,-0.2038,-0.2038,-0.1853,-0.1668,-0.1359,-0.1112,-0.0741,-0.0185,0.0244,0.0658,0.1185,0.1689,0.2108,0.2483,0.2861,0.3026,0.3026,0.3083,0.3363,0.3531,0.3587,0.3587,0.3587,0.3587,0.3363,0.3139,0.2803,0.2525,0.2244,0.2019,0.1851,0.1795,0.1795,0.1795,0.1795,0.1851,0.1851,0.1851,0.1851,0.1946,0.2033,0.1894,0.1703,0.1655,0.1566,0.1313,0.101,0.0606,0.005,-0.0555,-0.1161,-0.1868,-0.2523,-0.3179,-0.3581,-0.3984,-0.4183,-0.4334,-0.4483,-0.4686,-0.4684,-0.4684,-0.4734,-0.4782,-0.4782,-0.4782,-0.4782,-0.4734,-0.4684,-0.4485,-0.4284,-0.4034,-0.2173,-0.2103,-0.2048,-0.205,-0.205,-0.205,-0.2045,-0.2038,-0.2036,-0.2027,-0.2005,-0.1984,-0.2038,-0.2038,-0.2038,-0.2038,-0.2038,-0.2038,-0.2038,-0.2038,-0.2045,-0.2013,-0.2109,-0.2138,-0.216,-0.2209,-0.2222,-0.2222,-0.2222,-0.2222,-0.2222,-0.2222,-0.2221,-0.2139,-0.2124,-0.2093,-0.2062,-0.2038,-0.202,-0.2012,-0.1991,-0.2043,-0.1915,-0.1853,-0.1853,-0.1544,-0.1235,-0.0803,-0.0432,0.0062,0.0554,0.1101,0.1508,0.1902,0.2281,0.2647,0.2948,0.3253,0.325,0.325,0.3362,0.3531,0.3587,0.3587,0.3587,0.3587,0.3587,0.3531,0.3306,0.297,0.2748,0.2356,0.2075,0.1851,0.1795,0.1795,0.1795,0.1795,0.1907,0.1963,0.1963,0.2074,0.222,0.2304,0.2149,0.1902,0.1701,0.1518,0.1212,0.0859,0.0303,-0.0353,-0.106,-0.1665,-0.2321,-0.3026,-0.3632,-0.3934,-0.4286,-0.4485,-0.4636,-0.4784,-0.4782,-0.4784,-0.4734,-0.4784,-0.4782,-0.4782,-0.4782,-0.4782,-0.4784,-0.4734,-0.4636,-0.4437,-0.4135,-0.2318,-0.2045,-0.2009,-0.202,-0.202,-0.2019,-0.2006,-0.199,-0.1987,-0.1985,-0.2045,-0.2039,-0.2038,-0.2038,-0.2038,-0.2038,-0.2038,-0.2038,-0.2038,-0.2038,-0.2041,-0.2013,-0.2041,-0.2065,-0.2085,-0.2206,-0.2217,-0.2214,-0.2222,-0.2222,-0.2222,-0.2222,-0.2222,-0.222,-0.2216,-0.2123,-0.2093,-0.2063,-0.2036,-0.2023,-0.2009,-0.199,-0.1793,-0.1668,-0.1482,-0.1173,-0.0679,-0.0123,0.0308,0.0863,0.1542,0.2022,0.2361,0.2802,0.3051,0.3174,0.3403,0.3539,0.3587,0.3587,0.3587,0.3587,0.3587,0.3587,0.3587,0.3587,0.3587,0.3587,0.3362,0.3026,0.2747,0.2468,0.2187,0.2019,0.1963,0.1963,0.2019,0.2019,0.2132,0.2188,0.2244,0.2296,0.2495,0.2624,0.2454,0.2194,0.1791,0.152,0.1213,0.0657,0.005,-0.0707,-0.1464,-0.212,-0.2774,-0.3479,-0.4034,-0.4336,-0.4537,-0.4686,-0.4734,-0.4784,-0.4782,-0.4782,-0.4782,-0.4782,-0.4782,-0.4782,-0.4782,-0.4782,-0.4782,-0.4734,-0.4686,-0.4537,-0.4286,-0.2294,-0.2039,-0.1986,-0.1991,-0.1991,-0.199,-0.1985,-0.2039,-0.2038,-0.2038,-0.2038,-0.2038,-0.2038,-0.2038,-0.2038,-0.2038,-0.2038,-0.2038,-0.2038,-0.2038,-0.2038,-0.1999,-0.2025,-0.2044,-0.2068,-0.211,-0.2125,-0.2139,-0.2222,-0.2222,-0.2222,-0.2222,-0.2222,-0.2222,-0.222,-0.214,-0.2125,-0.2095,-0.2065,-0.204,-0.2018,-0.1807,-0.1607,-0.1483,-0.105,-0.0617,-0.0062,0.0555,0.1172,0.1665,0.2343,0.2766,0.2988,0.3373,0.3442,0.3506,0.3681,0.3628,0.3602,0.3587,0.3587,0.3591,0.3589,0.3589,0.3587,0.3587,0.3587,0.3587,0.3475,0.3251,0.297,0.2914,0.269,0.2524,0.2468,0.2468,0.2468,0.2468,0.2524,0.2524,0.2525,0.2692,0.2842,0.2915,0.2795,0.2578,0.2222,0.1627,0.1264,0.0505,-0.0151,-0.106,-0.1817,-0.2523,-0.3179,-0.3732,-0.4185,-0.4437,-0.4585,-0.4734,-0.4784,-0.4782,-0.4782,-0.4782,-0.4782,-0.4782,-0.4782,-0.4782,-0.4782,-0.4782,-0.4782,-0.4782,-0.4734,-0.4587,-0.4388,-0.2406,-0.2038,-0.2038,-0.2038,-0.2038,-0.2038,-0.2038,-0.2038,-0.2038,-0.2038,-0.2038,-0.2038,-0.2038,-0.2038,-0.2038,-0.2038,-0.2038,-0.2038,-0.2038,-0.2038,-0.2038,-0.1996,-0.2011,-0.202,-0.205,-0.2084,-0.2107,-0.2122,-0.2137,-0.2216,-0.2221,-0.2222,-0.2222,-0.2222,-0.2221,-0.2217,-0.2211,-0.2119,-0.2095,-0.2001,-0.1847,-0.1633,-0.1304,-0.0928,-0.0432,0.0123,0.074,0.1418,0.2034,0.2466,0.2899,0.3331,0.3501,0.365,0.3662,0.3794,0.3744,0.3695,0.3668,0.3659,0.3666,0.3662,0.3619,0.359,0.3587,0.3587,0.3587,0.3587,0.3587,0.3418,0.3194,0.3138,0.3027,0.2805,0.275,0.275,0.2693,0.2693,0.2748,0.2805,0.2861,0.3027,0.3189,0.3202,0.3203,0.2928,0.2663,0.2006,0.1368,0.0556,-0.0252,-0.1161,-0.2019,-0.2675,-0.3279,-0.3833,-0.4236,-0.4485,-0.4636,-0.4734,-0.4782,-0.4782,-0.4782,-0.4782,-0.4782,-0.4782,-0.4782,-0.4782,-0.4782,-0.4782,-0.4782,-0.4782,-0.4782,-0.4686,-0.4489,-0.2592,-0.2038,-0.2038,-0.2038,-0.2038,-0.2038,-0.2038,-0.2038,-0.2038,-0.2038,-0.2038,-0.2038,-0.2038,-0.2038,-0.2038,-0.2038,-0.2038,-0.2038,-0.2038,-0.21,-0.21,-0.2119,-0.2131,-0.2139,-0.2286,-0.2189,-0.2212,-0.2289,-0.2176,-0.2123,-0.2204,-0.2216,-0.2146,-0.2149,-0.2219,-0.2221,-0.2218,-0.2138,-0.2116,-0.1955,-0.1734,-0.1458,-0.0875,-0.031,0.037,0.0986,0.1665,0.2281,0.2775,0.3208,0.3517,0.364,0.3809,0.3895,0.3934,0.3902,0.3796,0.3822,0.3807,0.3798,0.3802,0.378,0.3661,0.3616,0.3598,0.3605,0.3602,0.3593,0.3587,0.3418,0.325,0.3194,0.3083,0.2973,0.2862,0.2862,0.2862,0.2862,0.2971,0.3027,0.3138,0.3249,0.3413,0.3487,0.34,0.3245,0.292,0.2342,0.1641,0.0758,-0.0152,-0.1161,-0.1968,-0.2825,-0.3379,-0.3833,-0.4185,-0.4437,-0.4587,-0.4686,-0.4734,-0.4782,-0.4782,-0.4782,-0.4782,-0.4782,-0.4782,-0.4782,-0.4782,-0.4782,-0.4782,-0.4782,-0.4782,-0.4782,-0.4686,-0.2592,-0.2038,-0.2038,-0.2038,-0.2038,-0.2038,-0.2038,-0.2038,-0.2038,-0.2038,-0.2038,-0.2038,-0.2038,-0.2038,-0.2038,-0.2038,-0.2038,-0.2038,-0.2222,-0.2284,-0.2346,-0.2476,-0.2606,-0.2676,-0.2697,-0.2722,-0.2684,-0.2642,-0.2399,-0.2288,-0.2174,-0.2119,-0.2122,-0.2133,-0.2144,-0.2221,-0.2218,-0.2145,-0.2121,-0.1835,-0.1421,-0.1081,-0.0376,0.0372,0.1171,0.1788,0.2343,0.2899,0.3331,0.3455,0.3702,0.3826,0.3884,0.3931,0.3914,0.3857,0.3866,0.3826,0.3827,0.3829,0.3836,0.3842,0.3737,0.3698,0.3669,0.365,0.3638,0.3624,0.3615,0.3507,0.3445,0.3385,0.3326,0.3267,0.3208,0.3197,0.3197,0.3197,0.3307,0.3307,0.3362,0.3418,0.358,0.3576,0.3488,0.3395,0.313,0.2593,0.1922,0.1076,0.0101,-0.0909,-0.1716,-0.2472,-0.3177,-0.3632,-0.4034,-0.4386,-0.4487,-0.4638,-0.4734,-0.4782,-0.4782,-0.4782,-0.4782,-0.4782,-0.4782,-0.4782,-0.4782,-0.4782,-0.4782,-0.4782,-0.4782,-0.4782,-0.4782,-0.2592,-0.2038,-0.2038,-0.2038,-0.2038,-0.2038,-0.2038,-0.2038,-0.2038,-0.2038,-0.2038,-0.2038,-0.2099,-0.2222,-0.2222,-0.2284,-0.2469,-0.2469,-0.253,-0.2653,-0.2713,-0.2901,-0.3085,-0.321,-0.3165,-0.3187,-0.3147,-0.3049,-0.2748,-0.2448,-0.2273,-0.2285,-0.2222,-0.2168,-0.2111,-0.2178,-0.2115,-0.2053,-0.1917,-0.1639,-0.1165,-0.0638,0.0126,0.1052,0.1912,0.2343,0.2837,0.3455,0.3579,0.364,0.3888,0.3888,0.3888,0.3885,0.3881,0.3895,0.3875,0.3854,0.3854,0.385,0.3843,0.3839,0.3834,0.3808,0.3764,0.3733,0.3706,0.3683,0.3673,0.3664,0.3651,0.3642,0.3634,0.3627,0.3608,0.3589,0.3587,0.3587,0.3587,0.3587,0.3587,0.3587,0.3587,0.3587,0.3579,0.3545,0.3399,0.3083,0.2384,0.1561,0.0511,-0.0506,-0.1313,-0.2119,-0.2774,-0.3429,-0.3833,-0.4185,-0.4388,-0.4537,-0.4684,-0.4782,-0.4782,-0.4782,-0.4782,-0.4782,-0.4782,-0.4782,-0.4782,-0.4782,-0.4782,-0.4782,-0.4782,-0.4782,-0.4782,-0.2592,-0.2038,-0.2038,-0.2038,-0.2038,-0.2038,-0.2038,-0.2038,-0.2099,-0.2038,-0.21,-0.2038,-0.2222,-0.2468,-0.2529,-0.2714,-0.29,-0.2961,-0.3085,-0.3145,-0.3207,-0.3454,-0.3639,-0.3642,-0.3771,-0.366,-0.3616,-0.3578,-0.3093,-0.2795,-0.2556,-0.2575,-0.2319,-0.2197,-0.2143,-0.2144,-0.2082,-0.2086,-0.1708,-0.1314,-0.0711,-0.0128,0.0636,0.1798,0.2405,0.2837,0.3393,0.3703,0.3888,0.3888,0.3888,0.3888,0.3888,0.3888,0.3884,0.3881,0.3865,0.3863,0.392,0.3857,0.3865,0.3872,0.3885,0.3903,0.3853,0.3801,0.3767,0.3793,0.3779,0.3777,0.3769,0.3696,0.3685,0.3661,0.3635,0.3609,0.3589,0.3589,0.3587,0.3587,0.3587,0.3587,0.3587,0.3587,0.3587,0.3568,0.3495,0.3349,0.2867,0.2065,0.1144,0.0,-0.086,-0.1667,-0.2422,-0.3026,-0.3581,-0.3935,-0.4237,-0.4539,-0.4736,-0.4784,-0.4782,-0.4782,-0.4782,-0.4782,-0.4782,-0.4782,-0.4782,-0.4782,-0.4782,-0.4782,-0.4782,-0.4782,-0.4782,-0.2592,-0.2038,-0.2038,-0.2038,-0.2038,-0.2038,-0.216,-0.2406,-0.2406,-0.2403,-0.2406,-0.2405,-0.2591,-0.29,-0.296,-0.3146,-0.3393,-0.3577,-0.3701,-0.3946,-0.4069,-0.4253,-0.4502,-0.4564,-0.4564,-0.4567,-0.4458,-0.4222,-0.3734,-0.3249,-0.2764,-0.2598,-0.2411,-0.2291,-0.2118,-0.2119,-0.2056,-0.2055,-0.1485,-0.1034,-0.0509,0.019,0.0941,0.2045,0.2714,0.3146,0.3579,0.3826,0.3888,0.3888,0.3888,0.3888,0.3888,0.3888,0.3888,0.3888,0.3888,0.3888,0.3888,0.3888,0.3888,0.3888,0.3887,0.3881,0.3914,0.3867,0.3885,0.3852,0.3836,0.3837,0.3831,0.3756,0.3732,0.3698,0.3718,0.3627,0.3593,0.3589,0.3587,0.3587,0.3587,0.3587,0.3587,0.3587,0.3587,0.3585,0.3582,0.3445,0.3242,0.2646,0.1911,0.0833,-0.0305,-0.1164,-0.1922,-0.2623,-0.3179,-0.3682,-0.4034,-0.4386,-0.4736,-0.4784,-0.4782,-0.4782,-0.4782,-0.4782,-0.4782,-0.4782,-0.4782,-0.4782,-0.4782,-0.4782,-0.4782,-0.4782,-0.4782,-0.2469,-0.2038,-0.2038,-0.1969,-0.2019,-0.2078,-0.2252,-0.242,-0.2539,-0.2779,-0.2971,-0.3,-0.3145,-0.3453,-0.3576,-0.3824,-0.4132,-0.4316,-0.4561,-0.4807,-0.5051,-0.5297,-0.5423,-0.5548,-0.5546,-0.5546,-0.5177,-0.4872,-0.4436,-0.3825,-0.3292,-0.3059,-0.2814,-0.2448,-0.2279,-0.2152,-0.2091,-0.2024,-0.133,-0.082,-0.0313,0.0376,0.1313,0.2417,0.296,0.3331,0.3702,0.3888,0.3888,0.3888,0.3888,0.3888,0.3888,0.3888,0.3888,0.3888,0.3888,0.3888,0.3888,0.3888,0.3888,0.3888,0.3888,0.3883,0.3884,0.3903,0.3899,0.3872,0.3871,0.3872,0.3857,0.3841,0.3786,0.3802,0.3748,0.3646,0.361,0.3587,0.3587,0.3587,0.3587,0.3587,0.3587,0.3587,0.3587,0.3587,0.3586,0.3586,0.3383,0.308,0.238,0.1596,0.0417,-0.0513,-0.128,-0.2034,-0.2724,-0.3228,-0.3848,-0.4289,-0.4645,-0.4738,-0.4782,-0.4834,-0.4834,-0.4782,-0.4782,-0.4834,-0.4834,-0.4782,-0.4782,-0.4782,-0.4784,-0.4834,-0.4834,-0.2273,-0.2027,-0.1964,-0.195,-0.1988,-0.2225,-0.2387,-0.2481,-0.2769,-0.3242,-0.3728,-0.3758,-0.392,-0.4117,-0.4363,-0.4739,-0.5053,-0.5237,-0.5481,-0.5788,-0.597,-0.6278,-0.6462,-0.6587,-0.6526,-0.628,-0.5974,-0.5667,-0.53,-0.4622,-0.4069,-0.376,-0.3206,-0.2591,-0.2467,-0.2224,-0.2109,-0.1864,-0.1367,-0.0743,-0.0062,0.0625,0.168,0.2477,0.3022,0.3331,0.3702,0.3888,0.3888,0.3888,0.3888,0.3888,0.3888,0.3888,0.3888,0.3888,0.3888,0.3888,0.3888,0.3888,0.3888,0.3888,0.3888,0.3888,0.3888,0.3887,0.3883,0.3881,0.388,0.3936,0.3921,0.3902,0.3843,0.3837,0.3779,0.3712,0.3619,0.3589,0.3587,0.3587,0.3587,0.3587,0.3587,0.3587,0.3587,0.3587,0.3587,0.3587,0.3523,0.3166,0.2637,0.1954,0.1015,0.0158,-0.073,-0.1602,-0.2458,-0.3131,-0.3761,-0.4182,-0.4552,-0.4696,-0.4841,-0.4885,-0.4885,-0.4935,-0.4985,-0.5035,-0.4935,-0.4985,-0.5033,-0.5085,-0.4935,-0.4935,-0.4885,-0.2224,-0.1903,-0.1903,-0.19,-0.1953,-0.219,-0.248,-0.2769,-0.3294,-0.3767,-0.4232,-0.49,-0.5193,-0.5017,-0.5077,-0.5403,-0.5953,-0.6208,-0.6648,-0.7018,-0.7074,-0.7319,-0.7505,-0.7505,-0.7447,-0.7138,-0.6771,-0.6342,-0.6035,-0.5421,-0.4682,-0.4006,-0.3883,-0.3267,-0.2528,-0.2406,-0.2222,-0.1914,-0.142,-0.0803,-0.0247,0.0557,0.1732,0.2407,0.3022,0.3393,0.3765,0.3888,0.3888,0.3888,0.3888,0.3888,0.3888,0.3888,0.3888,0.3888,0.3888,0.3888,0.3888,0.3888,0.3888,0.3888,0.3888,0.3888,0.3888,0.3888,0.3885,0.3885,0.3885,0.3885,0.3876,0.3876,0.3895,0.3815,0.3807,0.3723,0.3605,0.3593,0.3587,0.3587,0.3587,0.3587,0.3587,0.3587,0.3587,0.3587,0.3587,0.3587,0.3587,0.324,0.2896,0.2151,0.1418,0.0431,-0.0638,-0.1584,-0.2414,-0.3048,-0.3723,-0.4262,-0.4574,-0.4714,-0.4853,-0.5067,-0.5199,-0.5238,-0.5236,-0.5336,-0.5486,-0.5536,-0.5486,-0.5436,-0.5238,-0.5087,-0.5035]}]]